GFSSW_con_mlcape_000.txt.gz
CAPE
0 1 2 6 5 1 1 0 12 42 41 38 13 30 29 20 17 0 0 0 0 0 68 19 13 0 0 0 0 0 0 0 0 0 0 0 0 0 0 0 0 0 0 0 0
0 1 4 4 5 13 21 8 11 28 38 49 23 12 10 21 10 4 0 0 0 0 0 0 9 10 0 0 0 0 0 0 0 0 0 0 0 0 0 0 0 0 0 0 0
7 3 4 4 5 9 25 31 30 27 44 49 56 45 38 13 1 0 0 0 0 0 8 1 0 9 0 0 0 0 0 0 0 0 0 0 0 0 0 0 0 0 0 0 0
5 13 8 4 1 2 10 39 42 49 42 56 64 96 43 14 1 2 0 0 0 0 1 26 7 16 0 0 0 0 0 0 0 0 0 0 0 0 0 0 0 0 0 0 0
1 9 8 5 3 2 0 17 29 57 69 94 86 26 45 12 0 0 0 0 0 0 8 46 0 0 0 0 0 0 0 0 0 0 0 0 0 0 0 0 0 0 0 0 0
22 14 4 1 3 2 4 1 14 49 87 151 216 99 24 0 0 0 0 0 0 0 3 46 5 0 1 1 0 0 0 0 0 0 0 0 0 0 0 0 0 0 0 0 0
23 28 16 13 0 9 20 13 8 63 31 110 126 48 7 0 0 0 0 0 0 0 0 28 18 0 2 13 0 6 0 0 0 0 0 0 0 0 0 0 0 0 0 0 0
27 31 10 14 3 8 2 24 21 50 66 79 114 35 0 0 0 0 0 0 0 0 0 94 47 5 4 0 1 9 0 0 0 0 0 0 0 0 0 0 0 0 0 0 0
3 21 23 23 18 28 22 27 31 49 120 67 36 12 6 0 0 0 0 0 1 0 6 71 32 21 17 13 13 0 6 0 0 0 0 0 0 0 0 0 0 0 0 0 0
20 28 5 2 11 8 37 12 14 22 14 13 7 2 0 0 0 0 0 0 10 0 5 109 36 34 20 33 15 0 0 0 0 0 0 0 0 0 0 0 0 0 0 0 0
0 13 3 1 0 15 42 17 0 1 6 0 0 0 0 0 0 0 0 0 12 0 5 75 50 24 6 0 0 6 0 0 0 0 0 0 0 0 0 0 0 0 0 0 0
1 41 8 1 6 40 6 0 0 3 0 0 8 0 3 11 18 0 0 6 10 0 24 54 8 1 0 0 10 3 0 0 0 0 0 0 0 0 0 0 0 0 0 0 0
0 6 0 3 24 31 1 0 27 23 4 0 0 0 2 0 12 0 0 18 2 0 6 17 10 5 3 0 0 0 0 0 0 0 0 0 0 0 0 0 0 0 0 0 0
0 0 0 15 19 14 1 0 14 8 0 1 2 0 0 17 7 19 2 15 1 0 1 25 9 1 3 0 0 0 0 0 0 0 0 0 0 0 0 0 0 0 0 0 0
0 0 5 20 20 27 18 0 17 29 0 0 1 0 0 2 13 13 0 0 0 0 19 18 7 21 7 0 0 0 0 5 2 0 0 0 0 0 0 0 0 0 0 0 0
0 0 1 1 14 15 7 7 13 1 0 0 1 0 0 0 16 13 21 22 22 0 16 5 8 7 14 0 0 0 0 0 0 0 0 0 0 0 0 0 0 0 0 0 0
0 0 2 5 11 42 9 1 0 0 0 0 0 4 1 0 16 0 0 0 4 1 5 2 12 0 0 1 0 0 0 0 0 0 0 0 0 0 0 0 0 0 0 0 0
0 2 8 1 8 0 24 0 0 0 0 3 0 0 3 0 16 16 28 17 3 0 0 1 4 0 0 0 0 0 0 0 0 0 0 0 0 0 0 0 0 0 0 0 0
2 0 3 5 12 5 3 0 0 0 1 22 6 0 0 8 17 26 3 5 4 2 0 5 0 0 0 0 0 0 0 0 0 0 0 0 0 0 0 0 0 0 0 0 0
0 0 0 2 14 7 2 0 4 2 1 3 1 5 20 9 6 7 14 5 5 3 0 0 0 0 0 0 0 0 0 0 0 0 0 0 0 0 0 0 0 0 0 0 0
0 0 0 3 23 11 1 0 4 0 0 4 0 1 1 0 5 0 0 0 0 0 0 0 0 0 0 0 0 0 0 0 0 0 0 0 0 0 0 0 0 0 0 0 0
0 0 4 6 5 12 6 16 0 0 18 0 3 1 0 3 1 3 3 0 0 0 0 0 0 0 0 0 0 0 0 0 0 0 0 0 0 0 0 0 0 0 0 0 0
0 0 2 2 1 2 13 6 4 0 8 12 0 0 0 2 1 2 0 0 0 0 0 0 0 0 0 0 0 0 0 0 0 0 0 0 0 0 0 0 0 0 0 0 0
0 0 1 2 1 0 2 2 10 10 6 2 0 0 0 15 0 0 1 0 0 0 0 0 0 0 0 0 0 0 0 0 0 0 0 0 0 0 0 0 0 0 0 0 0
0 0 0 0 0 0 0 0 8 6 0 9 7 0 0 8 0 0 0 0 0 0 0 0 0 0 0 0 0 0 0 0 0 0 0 0 0 0 0 0 0 0 0 0 0
0 0 0 0 0 0 0 0 0 0 0 6 2 5 11 1 0 0 0 0 0 0 0 0 0 0 0 0 0 0 0 0 0 0 0 0 0 0 0 0 0 0 0 0 0
0 0 0 0 0 0 0 0 0 0 0 0 0 2 0 0 0 0 0 0 0 0 0 0 0 0 0 0 0 0 0 0 0 0 0 0 0 0 0 0 0 0 0 0 0

GFSSW_con_mlcape_003.txt.gz
CAPE
0 0 0 1 3 5 1 0 0 5 20 22 15 28 8 14 13 1 0 0 0 0 0 0 3 1 0 0 0 0 0 0 0 0 0 0 0 0 0 0 0 0 0 0 0
1 1 1 0 1 4 5 7 0 0 3 40 30 15 9 30 4 1 0 0 0 0 0 0 2 12 0 0 0 0 0 0 0 0 0 0 0 0 0 0 0 0 0 0 0
0 0 0 0 1 0 4 12 24 16 16 36 27 6 43 12 7 0 0 0 0 0 0 2 0 22 0 0 0 0 0 0 0 0 0 0 0 0 0 0 0 0 0 0 0
0 0 0 1 6 8 6 7 19 28 35 38 38 12 37 1 0 0 0 0 0 0 0 2 19 14 8 0 0 0 0 0 0 0 0 0 0 0 0 0 0 0 0 0 0
5 1 1 0 7 9 14 2 11 32 43 49 41 18 14 19 1 0 0 0 0 9 0 1 47 5 1 0 0 0 0 0 0 0 0 0 0 0 0 0 0 0 0 0 0
4 0 0 0 0 20 9 2 3 20 52 48 62 16 0 0 0 0 0 0 0 10 0 0 17 2 0 0 2 0 0 0 0 0 0 0 0 0 0 0 0 0 0 0 0
1 8 5 0 28 13 3 10 4 1 53 39 40 18 12 0 0 0 0 0 0 1 2 0 10 4 5 19 0 5 10 0 0 0 0 0 0 0 0 0 0 0 0 0 0
6 12 18 0 13 10 22 27 26 10 24 26 4 15 4 0 0 0 0 0 0 0 0 0 7 21 8 10 8 25 13 2 0 0 0 0 0 0 0 0 0 0 0 0 0
2 1 14 13 24 23 27 37 40 25 41 16 0 11 8 0 0 0 0 0 0 7 0 0 77 80 28 23 33 19 0 0 0 0 0 0 0 0 0 0 0 0 0 0 0
0 12 18 0 10 8 31 38 25 27 13 18 4 10 1 1 0 0 0 0 9 43 40 16 126 48 42 39 9 10 1 0 0 0 0 0 0 0 0 0 0 0 0 0 0
0 5 14 0 0 0 8 19 2 3 5 0 0 0 2 0 0 0 0 0 1 39 0 8 48 31 20 16 2 0 0 0 0 0 0 0 0 0 0 0 0 0 0 0 0
0 0 18 4 0 2 27 0 0 0 0 0 0 0 0 25 105 12 0 0 18 0 0 28 52 17 3 10 3 0 3 0 0 0 0 0 0 0 0 0 0 0 0 0 0
0 0 18 0 0 13 9 0 0 11 1 0 0 0 0 0 10 16 0 0 28 0 0 7 6 6 4 18 16 0 0 0 0 0 0 0 0 0 0 0 0 0 0 0 0
0 1 6 0 3 4 4 0 0 0 0 0 0 0 0 3 0 15 0 0 22 0 0 41 6 3 15 4 0 0 0 0 0 0 0 0 0 0 0 0 0 0 0 0 0
0 0 1 0 9 10 2 0 1 2 0 0 0 1 0 0 5 0 0 2 10 0 1 6 7 11 6 0 0 2 0 2 4 0 0 0 0 0 0 0 0 0 0 0 0
0 0 1 0 4 6 8 6 16 1 0 0 3 4 5 2 8 21 0 28 25 0 0 13 8 43 0 0 0 0 0 0 0 0 0 0 0 0 0 0 0 0 0 0 0
0 1 5 0 15 7 3 4 0 0 0 1 1 7 2 0 6 5 0 6 3 1 1 6 23 9 26 0 0 0 4 0 0 0 0 0 0 0 0 0 0 0 0 0 0
5 7 5 5 34 1 11 1 0 0 0 1 0 14 1 0 10 11 0 1 6 2 0 0 3 0 3 1 0 0 0 0 0 0 0 0 0 0 0 0 0 0 0 0 0
3 0 3 0 26 21 1 0 0 0 0 0 3 1 4 0 7 2 0 0 2 9 0 0 0 0 0 0 0 0 0 0 0 0 0 0 0 0 0 0 0 0 0 0 0
1 1 1 1 4 2 0 0 1 1 3 0 0 0 0 1 1 2 1 1 14 0 0 0 1 0 0 0 0 0 0 0 0 0 0 0 0 0 0 0 0 0 0 0 0
2 0 1 15 5 6 0 0 2 10 0 0 1 0 0 0 1 0 0 28 13 0 0 0 0 0 0 0 0 0 0 0 0 0 0 0 0 0 0 0 0 0 0 0 0
0 0 1 3 1 2 3 1 0 0 8 3 0 3 0 0 0 4 0 0 8 0 0 0 0 0 0 0 0 0 0 0 0 0 0 0 0 0 0 0 0 0 0 0 0
0 1 5 5 1 4 1 1 2 0 1 5 3 2 0 0 1 8 4 0 0 2 0 0 0 0 0 0 0 0 0 0 0 0 0 0 0 0 0 0 0 0 0 0 0
0 0 4 5 3 2 9 7 5 14 18 20 0 0 0 0 0 0 1 0 0 0 0 0 0 0 0 0 0 0 0 0 0 0 0 0 0 0 0 0 0 0 0 0 0
0 0 0 0 1 1 0 5 5 6 7 2 1 0 0 0 4 0 0 0 0 0 0 0 0 0 0 0 0 0 0 0 0 0 0 0 0 0 0 0 0 0 0 0 0
0 0 0 0 0 0 1 10 7 7 4 0 0 0 0 0 1 0 0 0 0 0 0 0 0 0 0 0 0 0 0 0 0 0 0 0 0 0 0 0 0 0 0 0 0
0 0 0 0 0 0 0 0 3 1 0 0 0 0 0 2 0 0 0 0 0 0 0 0 0 0 0 0 0 0 0 0 0 0 0 0 0 0 0 0 0 0 0 0 0

GFSSW_con_mlcape_006.txt.gz
CAPE
0 0 0 0 0 0 0 0 0 0 0 7 22 16 9 13 8 9 2 0 0 0 0 0 5 60 28 0 0 0 0 0 0 0 0 0 0 0 0 0 0 0 0 0 0
0 0 0 0 0 0 0 0 3 0 0 0 18 14 3 2 24 14 0 0 0 0 0 0 0 115 21 0 0 0 0 0 0 0 0 0 0 0 0 0 0 0 0 0 0
0 0 0 0 0 0 3 0 0 14 3 0 0 27 12 30 23 4 0 0 6 6 0 0 136 121 43 2 0 0 0 0 0 0 0 0 0 0 0 0 0 0 0 0 0
0 0 0 0 0 0 0 1 5 11 25 23 18 23 19 28 2 34 0 0 2 31 12 0 7 42 78 25 2 0 0 0 0 0 0 0 0 0 0 0 0 0 0 0 0
4 0 0 0 0 0 0 0 0 6 19 33 34 18 26 25 10 22 0 0 0 5 8 0 14 16 30 47 14 0 0 0 0 0 0 0 0 0 0 0 0 0 0 0 0
7 4 0 0 0 0 0 0 0 0 19 46 45 21 13 10 0 0 1 0 0 1 6 1 23 22 12 61 29 0 0 0 0 0 0 0 0 0 0 0 0 0 0 0 0
8 7 0 0 0 1 0 0 0 16 3 42 10 29 24 0 0 0 0 0 0 0 2 1 0 115 20 80 67 30 9 4 0 0 0 0 0 0 0 0 0 0 0 0 0
2 18 7 0 0 0 0 2 16 38 28 5 9 18 6 0 0 0 0 0 0 0 0 1 3 33 132 64 101 64 44 28 0 1 0 0 0 0 0 0 0 0 0 0 0
1 14 5 17 12 4 0 1 22 38 41 27 7 20 2 0 0 0 0 0 0 0 0 0 32 57 159 32 55 46 18 3 5 0 0 0 0 0 0 0 0 0 0 0 0
1 6 12 19 9 3 0 4 28 28 22 19 19 5 0 0 0 0 0 0 6 75 46 23 23 68 113 55 14 11 13 9 10 0 0 0 0 0 0 0 0 0 0 0 0
0 3 0 9 16 3 0 1 1 6 4 0 0 0 0 0 0 0 0 0 13 136 16 8 14 11 18 23 36 13 0 10 3 0 0 0 0 0 0 0 0 0 0 0 0
0 3 2 0 23 9 5 7 0 0 1 0 0 0 13 3 14 5 0 0 2 0 75 8 9 17 4 32 17 9 3 6 8 0 0 0 0 0 0 0 0 0 0 0 0
0 0 0 12 3 0 4 6 0 0 1 3 0 4 6 0 36 35 10 0 0 4 6 1 7 9 15 36 24 16 7 2 2 0 0 0 0 0 0 0 0 0 0 0 0
0 0 3 6 0 2 16 2 0 0 0 0 3 2 16 31 1 5 10 0 24 5 7 0 9 17 34 24 33 14 21 2 0 25 28 0 0 0 0 0 0 0 0 0 0
0 0 6 2 20 0 0 0 0 0 0 0 4 1 3 6 9 0 62 1 12 19 1 0 12 2 38 3 15 29 6 6 11 13 0 0 0 0 0 0 0 0 0 0 0
0 0 0 8 13 3 1 0 0 0 0 1 4 4 11 16 18 68 39 12 25 15 0 0 28 6 17 3 18 0 0 0 0 0 2 0 0 0 0 0 0 0 0 0 0
3 0 0 0 5 3 3 0 1 0 0 0 0 4 2 4 1 8 9 3 5 0 0 0 2 7 72 16 0 17 9 2 4 1 1 0 0 0 0 0 0 0 0 0 0
11 2 0 2 9 16 1 1 0 0 0 0 2 3 2 8 13 10 12 11 7 7 0 0 0 27 12 4 0 4 10 2 1 0 0 0 0 0 0 0 0 0 0 0 0
2 1 2 1 39 2 1 0 0 1 0 0 16 4 10 9 1 14 7 2 7 1 0 0 0 10 16 0 0 0 0 0 0 0 0 0 0 0 0 0 0 0 0 0 0
0 0 1 0 30 4 0 0 0 4 3 5 0 2 2 5 0 10 4 0 2 0 12 0 0 0 0 1 0 0 0 0 0 0 0 0 0 0 0 0 0 0 0 0 0
0 1 0 1 8 3 0 0 3 5 0 0 0 0 0 0 0 9 1 1 0 0 0 2 0 0 0 1 0 0 0 0 0 0 0 0 0 0 0 0 0 0 0 0 0
2 1 2 7 1 2 1 3 2 3 1 0 0 0 0 0 0 5 0 2 0 14 1 0 1 0 0 0 0 1 0 0 5 0 0 0 0 0 0 0 0 0 0 0 0
0 1 2 2 2 3 5 3 6 5 0 0 0 0 0 0 0 1 1 0 0 2 8 0 2 2 0 0 0 1 0 0 0 0 0 0 0 0 0 0 0 0 0 0 0
0 1 6 9 4 3 4 4 7 5 3 14 2 1 0 0 0 0 5 0 1 0 0 0 0 0 0 0 0 0 0 0 0 0 0 0 0 0 0 0 0 0 0 0 0
0 0 0 3 2 2 3 6 3 19 17 18 2 0 0 0 3 1 2 2 0 0 0 0 2 0 0 0 0 0 0 0 0 0 0 0 0 0 0 0 0 0 0 0 0
0 0 0 1 2 2 0 6 3 8 1 0 4 0 0 0 0 1 0 0 2 2 8 1 2 0 0 0 0 0 0 0 0 0 0 0 0 0 0 0 0 0 0 0 0
0 0 0 0 0 0 0 2 0 2 2 0 1 0 0 1 1 0 0 0 0 0 0 0 0 0 0 0 0 0 0 0 0 0 0 0 0 0 0 0 0 0 0 0 0

GFSSW_con_mlcape_009.txt.gz
CAPE
0 0 1 0 0 0 0 0 0 0 0 0 1 5 6 14 20 8 1 0 0 0 0 0 0 0 16 0 0 0 0 0 0 0 0 0 0 0 0 0 0 0 0 0 0
1 0 0 0 0 0 0 0 0 0 0 0 0 10 31 12 9 33 1 0 0 0 0 0 0 0 45 27 14 0 0 0 0 0 0 0 0 0 0 0 0 0 0 0 0
2 0 0 0 0 0 0 0 0 0 0 0 0 14 24 22 30 9 6 1 7 13 0 0 0 20 37 55 21 17 0 0 0 1 0 0 0 0 0 0 0 0 0 0 0
5 6 1 0 4 4 0 0 0 0 0 0 0 20 6 6 3 48 18 0 0 3 2 2 0 4 21 16 28 20 4 0 2 4 0 0 0 0 0 0 0 0 0 0 0
2 10 6 0 6 4 1 0 0 0 0 12 28 20 18 27 9 18 0 0 0 9 7 3 0 0 10 22 38 27 7 1 2 6 0 0 0 0 0 0 0 0 0 0 0
0 5 6 0 1 0 0 0 0 0 0 0 44 32 20 15 1 22 19 0 0 5 7 22 1 0 1 14 18 23 39 9 16 8 0 0 0 0 0 0 0 0 0 0 0
0 1 4 0 0 12 1 0 0 0 0 0 16 19 25 0 0 2 0 0 0 0 14 19 30 14 10 19 0 24 60 9 16 25 0 0 0 0 0 0 0 0 0 0 0
0 1 5 3 2 22 25 1 0 0 0 0 0 20 25 0 0 0 0 0 0 0 0 7 33 7 9 32 8 13 48 16 12 26 1 1 0 0 0 0 0 0 0 0 0
0 0 0 9 0 25 20 19 14 14 11 0 1 33 5 0 0 0 0 0 1 0 0 2 40 22 16 11 41 44 12 13 32 29 0 6 0 0 0 0 0 0 0 0 0
10 0 0 0 0 16 27 4 21 15 20 30 15 21 0 0 0 0 0 0 3 19 8 11 26 14 7 26 11 14 13 18 10 15 4 11 0 0 0 0 0 0 0 0 0
10 0 0 0 0 25 5 0 3 3 7 0 0 0 0 0 0 0 0 4 6 16 18 16 17 9 0 0 0 44 105 40 48 10 18 7 0 0 0 0 0 0 0 0 0
13 0 0 0 0 18 22 5 1 0 2 1 0 3 5 1 0 0 1 7 11 14 10 51 56 0 0 1 5 44 64 87 52 12 0 0 0 0 0 0 0 0 0 0 0
2 0 0 0 0 18 17 0 0 0 0 2 0 4 1 5 4 11 2 6 8 12 10 107 74 46 3 0 128 83 52 86 36 7 0 1 0 0 0 0 0 0 0 0 0
0 0 0 1 0 0 10 0 0 0 0 0 0 0 0 10 4 2 37 20 13 11 15 79 23 127 13 1 27 32 44 49 23 5 1 4 0 0 0 0 0 0 0 0 0
0 0 0 0 10 24 0 2 0 0 0 0 2 1 5 4 2 0 0 40 15 13 0 0 5 2 20 2 9 60 60 52 44 46 29 10 2 0 0 0 0 0 0 0 0
3 0 1 15 5 13 1 0 0 0 0 1 3 1 5 7 0 11 0 13 29 4 5 0 0 2 2 11 6 68 101 96 41 17 4 3 1 0 0 0 0 0 0 0 0
28 3 0 1 1 0 0 2 0 0 0 0 0 2 3 2 10 20 18 18 14 2 0 4 0 0 6 3 3 9 24 5 5 9 0 4 7 0 0 0 0 0 0 0 0
38 5 1 0 22 2 0 0 0 0 0 2 1 1 0 3 12 15 24 20 3 0 0 0 0 2 0 9 4 2 4 0 2 1 0 0 0 0 0 0 0 0 0 0 0
15 4 2 0 21 2 2 0 1 6 0 0 4 0 0 0 6 7 19 22 4 0 0 0 0 0 0 10 0 0 3 0 0 0 9 0 0 0 0 0 0 0 0 0 0
0 0 0 2 16 3 1 1 2 6 2 2 1 4 5 8 16 16 8 0 2 0 0 1 0 0 2 1 0 2 14 2 0 0 3 0 0 0 0 0 0 0 0 0 0
0 1 4 0 18 4 1 1 3 11 1 5 6 0 5 8 5 9 2 0 0 0 0 5 0 0 1 4 4 3 0 0 0 0 26 16 0 0 0 0 0 0 0 0 0
1 1 2 8 2 1 3 0 2 3 2 2 0 9 4 0 0 15 3 1 0 0 5 7 3 0 0 0 0 1 0 0 1 0 0 0 0 0 0 0 0 0 0 0 0
1 8 2 2 2 2 3 3 3 2 4 0 1 1 0 0 0 2 0 0 0 0 12 15 1 0 0 0 0 0 0 1 4 0 0 0 0 0 0 0 0 0 0 0 0
3 7 1 8 1 3 2 3 2 0 7 0 0 1 3 1 0 0 1 0 0 0 0 5 0 0 1 0 0 1 0 0 0 0 0 1 0 0 0 0 0 0 0 0 0
0 3 2 1 3 2 3 5 4 5 2 0 7 0 1 0 0 3 0 14 0 0 0 7 7 0 0 0 0 0 0 0 0 0 0 0 0 0 0 0 0 0 0 0 0
0 0 3 23 0 0 2 2 4 1 12 4 10 6 1 0 0 0 0 9 7 15 0 2 17 0 2 0 0 0 0 0 0 0 0 0 0 0 0 0 0 0 0 0 0
0 0 0 13 15 3 2 0 1 3 3 6 0 14 6 0 0 7 0 0 13 0 7 11 19 6 7 0 0 0 0 0 0 0 0 0 0 0 0 0 0 0 0 0 0

GFSSW_con_mlcape_012.txt.gz
CAPE
0 0 2 6 1 0 0 0 0 0 0 0 3 0 9 7 9 6 0 0 0 0 0 0 0 0 0 6 0 6 0 0 0 0 0 0 0 0 0 0 0 0 0 0 0
0 1 1 3 1 0 0 0 0 0 0 0 1 0 0 0 1 19 0 1 9 1 0 0 0 0 0 16 6 3 0 0 0 0 0 1 0 0 0 0 0 0 0 0 0
0 1 0 1 1 2 0 1 0 0 0 0 0 0 0 2 2 0 0 0 9 18 0 0 0 0 5 3 20 6 0 0 0 0 0 0 0 0 0 0 0 0 0 0 0
0 1 1 0 0 1 0 0 0 0 1 6 0 0 0 0 0 20 7 0 2 38 15 1 0 0 9 0 14 21 10 0 0 0 10 0 0 0 0 0 0 0 0 0 0
0 1 1 0 0 2 0 0 0 0 0 13 16 0 0 2 0 5 0 0 0 0 8 2 11 0 0 9 34 20 20 13 1 0 1 2 0 0 0 0 0 0 0 0 0
2 0 1 1 1 4 0 0 0 2 6 9 39 23 0 1 0 0 14 4 0 1 14 27 30 9 0 3 13 43 43 20 18 2 1 1 0 0 0 0 0 0 0 0 0
16 0 0 0 0 0 1 0 0 13 25 36 38 23 13 0 0 0 13 8 0 0 0 22 18 41 13 2 10 14 16 48 11 9 7 8 0 0 0 0 0 0 0 0 0
9 12 0 0 3 3 2 0 0 4 25 44 21 32 8 0 0 0 0 0 0 0 0 0 5 26 32 6 29 50 30 3 0 6 7 6 0 0 0 0 0 0 0 0 0
6 11 4 4 12 11 8 0 0 0 24 24 2 34 2 0 0 0 0 0 0 0 0 0 0 15 30 11 13 14 0 0 0 13 5 8 0 0 0 0 0 0 0 0 0
10 9 15 0 19 14 21 0 0 0 8 24 3 7 0 0 0 0 0 0 1 1 0 0 7 5 13 13 0 1 4 0 0 0 14 4 1 0 0 0 0 0 0 0 0
4 0 13 0 7 12 13 0 0 0 10 0 0 0 0 0 0 0 0 1 2 9 3 9 9 0 0 0 0 0 19 31 0 51 14 5 0 0 0 0 0 0 0 0 0
3 0 5 0 12 11 21 1 0 0 0 0 0 0 0 0 0 0 0 5 11 9 8 14 2 0 0 1 3 0 6 9 33 67 28 11 1 1 0 0 0 0 0 0 0
9 0 0 0 13 6 1 0 0 0 6 6 0 0 0 0 2 2 0 0 1 6 9 2 0 0 0 9 15 6 2 0 35 102 36 25 3 0 0 0 0 0 0 0 0
11 0 0 0 0 0 12 7 8 0 0 0 1 2 0 0 0 1 2 3 6 2 8 25 1 0 13 4 10 5 0 2 30 12 24 1 0 0 0 0 0 0 0 0 0
16 0 0 0 15 4 0 0 0 1 0 0 3 0 2 0 0 0 0 11 14 0 14 0 0 0 10 1 5 1 7 0 20 46 11 0 0 0 0 0 0 0 0 0 0
22 0 0 0 0 6 1 0 0 0 0 0 1 3 4 3 5 2 0 21 8 15 18 0 13 6 0 8 14 2 9 3 20 14 59 1 1 0 0 0 0 0 0 0 0
33 12 0 6 0 0 0 0 0 0 0 0 1 2 2 4 3 2 1 7 5 10 2 5 0 0 0 84 2 54 31 55 40 28 7 1 37 1 0 0 0 0 0 0 0
46 27 2 2 0 0 0 0 0 1 0 2 1 1 0 3 2 1 1 4 16 5 2 0 0 0 0 4 0 25 7 4 9 9 0 0 0 0 0 0 0 0 0 0 0
53 18 2 0 0 0 0 0 0 8 1 1 1 0 0 6 3 2 8 0 0 3 10 0 0 0 0 0 40 3 0 0 1 0 0 0 0 0 0 0 0 0 0 0 0
13 3 2 0 2 4 2 0 6 6 2 3 0 1 1 2 0 1 4 1 0 3 0 0 0 4 3 6 14 0 1 3 0 0 0 0 0 0 0 0 0 0 0 0 0
0 0 0 1 1 3 1 0 1 5 2 1 0 2 3 0 0 0 0 0 0 0 0 1 0 0 0 24 1 4 4 0 0 0 14 0 0 0 0 0 0 0 0 0 0
1 0 1 4 2 3 1 0 2 4 7 3 2 0 1 0 0 0 0 0 0 0 3 0 1 0 0 0 0 3 0 0 22 0 0 0 0 0 0 0 0 0 0 0 0
0 0 3 0 1 2 1 2 1 0 5 4 1 0 0 0 0 0 4 2 0 0 0 2 0 0 0 2 5 5 2 0 0 0 0 0 0 0 0 0 0 0 0 0 0
0 2 5 4 1 1 3 2 1 3 2 9 0 0 0 0 0 0 0 0 0 0 0 12 8 0 0 0 0 0 0 0 0 0 0 0 0 0 0 0 0 0 0 0 0
0 1 0 1 1 1 1 2 3 1 2 0 0 0 0 1 0 0 0 0 0 0 1 2 1 3 0 0 0 0 0 0 0 0 0 0 0 0 0 0 0 0 0 0 0
0 0 1 12 0 0 2 1 2 2 3 0 0 1 0 0 0 0 0 1 0 1 0 0 0 0 0 0 0 0 0 0 0 0 0 0 0 0 0 0 0 0 0 0 0
0 0 0 6 3 3 1 0 0 3 3 0 0 0 0 0 0 0 0 0 3 0 0 0 0 3 0 0 0 0 0 0 0 0 0 0 0 0 0 0 0 0 0 0 0

GFSSW_con_mlcape_015.txt.gz
CAPE
0 0 0 1 0 0 0 0 0 0 0 1 2 15 25 20 10 5 0 0 0 0 0 0 0 0 0 0 0 0 0 0 0 0 0 0 0 0 0 0 0 0 0 0 0
0 0 1 0 0 0 0 0 0 0 0 0 0 4 6 14 1 3 0 0 3 3 0 0 0 0 0 0 1 1 0 0 0 0 0 0 0 0 0 0 0 0 0 0 0
0 0 4 0 0 0 0 0 0 0 2 2 0 0 11 8 0 0 0 0 12 28 0 0 0 0 0 0 0 2 0 0 0 0 0 0 0 0 0 0 0 0 0 0 0
0 0 4 4 0 0 0 0 0 0 0 4 10 0 0 3 0 0 0 0 0 44 29 0 0 0 0 0 0 2 0 0 0 0 0 0 0 0 0 0 0 0 0 0 0
0 0 3 5 6 0 0 0 0 0 0 4 13 20 1 0 0 0 0 0 0 4 5 6 3 0 0 0 0 0 0 2 0 0 0 0 0 0 0 0 0 0 0 0 0
10 6 0 0 6 0 0 0 0 0 0 0 0 15 0 0 0 0 0 0 0 0 0 8 1 5 9 0 0 0 2 0 0 1 0 0 0 0 0 0 0 0 0 0 0
27 19 0 0 0 0 0 9 0 0 0 0 0 0 0 0 0 0 0 0 0 0 0 22 14 41 21 0 0 0 0 0 0 4 0 0 0 0 0 0 0 0 0 0 0
17 23 1 0 0 0 0 11 20 0 2 2 0 0 0 0 0 0 0 0 0 0 0 0 0 0 8 10 0 0 8 0 0 0 0 19 0 0 0 0 0 0 0 0 0
21 17 13 2 0 4 2 10 0 3 8 8 0 1 0 0 0 0 0 0 0 0 0 0 0 0 3 9 7 4 0 8 2 0 15 34 0 0 0 0 0 0 0 0 0
35 20 8 10 0 1 10 11 0 0 1 19 3 3 0 0 0 0 0 0 0 0 0 0 0 0 0 22 3 0 0 1 0 0 5 22 11 0 0 0 0 0 0 0 0
19 17 7 11 0 0 1 0 0 0 9 0 0 0 0 0 0 0 0 0 0 1 1 0 0 1 0 0 1 0 0 1 0 0 9 0 0 0 0 0 0 0 0 0 0
26 27 8 12 0 0 2 0 0 0 0 0 0 0 0 0 0 0 0 0 7 1 0 1 2 0 0 0 1 0 0 0 0 0 25 13 1 0 0 0 0 0 0 0 0
36 15 14 3 1 0 0 0 0 0 0 2 0 0 0 0 0 0 0 0 1 4 0 0 0 0 0 0 1 0 0 0 0 0 2 24 4 0 0 0 0 0 0 0 0
39 16 10 1 0 0 0 0 0 1 5 0 1 7 2 0 0 0 3 0 9 2 0 0 0 0 0 0 3 0 0 0 0 2 0 40 11 0 0 0 0 0 0 0 0
51 22 2 0 0 0 0 0 5 2 0 0 3 0 4 7 1 0 0 4 2 2 1 0 0 0 0 0 0 0 0 0 5 0 4 3 28 0 0 0 0 0 0 0 0
63 35 6 0 0 0 0 0 1 0 0 0 0 1 2 8 9 4 1 4 6 3 1 0 3 1 0 0 0 0 0 0 15 21 16 0 5 1 0 0 0 0 0 0 0
54 31 3 0 0 0 0 0 0 0 0 0 1 2 2 3 2 4 2 2 0 0 0 3 0 2 1 0 0 16 10 4 2 11 0 0 0 0 0 0 0 0 0 0 0
61 47 6 0 0 0 0 0 0 0 0 0 1 0 1 0 5 6 4 1 4 0 0 0 0 0 0 0 0 0 0 12 0 0 0 52 0 0 0 0 0 0 0 0 0
102 41 3 7 0 0 1 2 0 0 0 0 1 0 1 2 2 7 7 0 0 0 0 0 0 0 0 0 16 0 9 0 15 6 16 17 3 0 0 0 0 0 0 0 0
74 6 2 0 0 0 1 0 0 0 0 0 0 0 0 0 1 1 0 0 0 0 0 0 0 0 0 0 1 6 30 1 0 13 0 0 0 0 0 0 0 0 0 0 0
6 6 1 2 1 2 1 0 0 0 0 0 0 0 0 0 0 0 0 0 0 0 0 0 0 0 0 1 0 2 105 15 1 0 19 2 0 0 0 0 0 0 0 0 0
0 6 2 1 3 3 2 0 1 0 7 2 3 1 3 0 0 0 0 0 0 0 0 0 1 0 0 0 10 0 32 9 0 0 0 0 0 0 0 0 0 0 0 0 0
2 3 3 3 1 1 2 1 3 2 3 4 1 1 0 3 0 0 0 0 0 0 0 1 0 0 1 3 2 3 1 0 1 4 0 0 0 0 0 0 0 0 0 0 0
0 1 13 8 5 1 2 2 2 1 2 10 3 1 0 0 0 0 0 0 0 0 3 2 0 0 0 1 5 2 0 1 1 0 0 0 0 0 0 0 0 0 0 0 0
0 2 0 0 1 1 1 2 1 0 1 5 4 0 0 0 0 0 0 0 0 0 5 2 0 1 0 0 0 0 0 0 2 0 0 0 0 0 0 0 0 0 0 0 0
0 0 1 0 1 2 1 1 2 1 2 6 1 0 0 0 0 0 0 0 3 0 0 0 0 4 2 0 2 0 0 3 0 0 0 0 0 0 0 0 0 0 0 0 0
0 0 0 2 0 1 1 0 0 0 0 0 3 0 0 0 4 18 0 0 4 0 0 0 0 2 0 2 1 0 0 0 0 0 0 0 0 0 0 0 0 0 0 0 0

GFSSW_con_mlcape_018.txt.gz
CAPE
0 0 1 2 1 0 0 0 0 0 0 0 0 6 23 29 24 8 0 0 0 0 0 0 0 0 0 0 0 0 0 0 0 0 0 0 0 0 0 0 0 0 0 0 0
0 0 2 3 2 0 0 0 1 0 0 0 0 3 5 5 6 2 0 7 19 3 0 0 0 0 0 0 0 0 0 0 0 0 0 0 0 0 0 0 0 0 0 0 0
0 0 1 7 4 0 0 0 0 0 0 0 0 0 11 0 0 0 0 0 29 48 0 0 0 0 0 0 0 0 0 0 0 0 0 0 0 0 0 0 0 0 0 0 0
13 0 1 4 6 0 0 0 0 0 0 0 4 0 0 0 0 0 0 0 0 45 20 0 0 0 0 0 0 0 0 0 2 0 0 0 0 0 0 0 0 0 0 0 0
16 8 1 2 9 0 0 0 0 0 0 0 0 3 0 0 0 0 0 0 0 15 19 4 0 0 0 0 0 0 0 0 0 0 0 0 0 0 0 0 0 0 0 0 0
31 13 6 0 4 3 0 0 0 0 0 0 0 0 0 0 0 0 0 0 0 6 22 19 0 0 0 0 0 0 0 0 0 0 0 0 0 0 0 0 0 0 0 0 0
44 25 16 1 0 4 0 0 0 0 0 0 2 0 0 0 0 0 0 0 0 5 0 4 0 18 14 1 0 0 0 0 0 0 0 0 0 0 0 0 0 0 0 0 0
43 25 28 9 0 1 0 13 15 0 0 0 1 0 0 0 0 0 0 0 0 2 0 0 0 20 2 10 1 0 0 0 0 0 0 0 0 0 0 0 0 0 0 0 0
53 33 13 13 4 0 6 22 3 0 0 10 0 0 0 0 0 0 0 0 0 0 0 0 0 0 1 24 17 3 0 0 0 0 0 0 0 0 0 0 0 0 0 0 0
44 46 35 18 7 3 13 17 15 0 0 18 6 0 0 0 0 0 0 0 0 0 0 0 0 0 0 12 0 0 0 0 0 4 0 0 0 0 0 0 0 0 0 0 0
23 42 36 19 14 7 20 4 0 0 1 0 0 0 0 0 0 0 0 0 0 0 0 0 0 1 0 0 0 0 0 0 0 9 0 0 0 0 0 0 0 0 0 0 0
19 46 43 15 15 2 0 0 0 0 0 0 0 0 0 0 0 0 0 0 0 0 0 3 4 0 0 0 0 0 0 0 0 0 2 0 0 0 0 0 0 0 0 0 0
15 40 56 19 14 3 0 0 0 0 0 1 0 3 0 3 1 0 0 0 0 0 6 1 0 0 0 0 0 0 0 0 0 0 0 0 0 0 0 0 0 0 0 0 0
22 52 55 39 2 0 3 0 0 3 0 0 0 4 4 13 3 1 1 2 4 1 0 1 0 0 2 4 0 0 0 0 3 3 0 15 0 0 0 0 0 0 0 0 0
31 73 39 1 0 0 0 0 0 12 0 0 1 0 9 5 0 0 1 6 2 1 0 0 0 0 0 0 0 0 0 0 10 12 10 0 1 0 0 0 0 0 0 0 0
51 85 26 0 0 0 0 0 9 0 0 0 0 1 1 7 8 1 0 4 9 4 1 0 0 0 0 0 0 9 6 9 15 25 1 0 0 0 0 0 0 0 0 0 0
13 89 2 0 0 0 0 4 0 0 0 1 0 0 0 1 2 1 0 2 1 3 0 0 0 1 5 0 2 15 20 0 0 0 0 0 0 0 0 0 0 0 0 0 0
3 43 0 0 0 0 0 0 0 0 0 1 0 0 0 0 2 4 7 2 2 0 0 0 0 0 0 0 0 4 0 0 0 0 0 0 0 0 0 0 0 0 0 0 0
2 3 3 0 0 0 4 1 0 0 0 0 2 2 2 2 0 5 2 3 0 3 1 0 0 0 0 0 5 4 11 0 0 0 2 0 0 0 0 0 0 0 0 0 0
8 37 13 0 0 2 2 0 0 0 0 0 0 0 1 1 1 3 0 0 1 0 0 0 0 0 0 0 2 3 1 0 1 0 0 0 0 0 0 0 0 0 0 0 0
5 34 2 1 6 8 0 0 0 0 0 0 0 0 0 0 0 0 0 0 0 0 0 0 0 0 0 0 0 1 0 10 0 0 35 0 0 0 0 0 0 0 0 0 0
11 1 1 1 0 1 0 0 0 0 0 0 2 3 3 0 0 0 0 0 0 0 0 0 1 0 0 0 0 0 0 0 2 0 0 0 0 0 0 0 0 0 0 0 0
20 8 2 0 0 1 2 0 0 0 0 2 1 1 1 0 0 0 0 0 0 0 0 0 0 0 0 0 2 2 1 0 10 0 2 1 0 0 0 0 0 0 0 0 0
0 1 3 6 2 1 2 2 2 0 4 4 2 2 4 0 0 0 0 0 0 0 0 2 0 0 0 0 0 1 1 0 0 0 0 0 0 0 0 0 0 0 0 0 0
7 1 1 1 3 0 2 1 0 2 2 3 1 1 2 0 0 0 0 0 0 0 2 1 0 0 0 1 1 8 0 9 31 0 0 0 0 0 0 0 0 0 0 0 0
10 0 0 0 1 2 0 0 3 3 1 2 1 2 1 0 0 0 0 0 0 0 2 3 0 0 0 0 4 1 0 7 5 0 0 0 0 0 0 0 0 0 0 0 0
0 0 0 1 0 2 0 0 0 0 0 1 1 2 1 0 0 0 0 2 0 0 2 1 0 0 0 4 2 0 0 1 0 0 0 0 0 0 0 0 0 0 0 0 0

GFSSW_con_mlcape_021.txt.gz
CAPE
1 0 0 1 3 4 4 1 0 0 2 0 0 1 30 22 7 15 0 0 0 0 0 0 0 0 0 0 0 0 0 0 0 0 0 0 0 0 0 0 0 0 0 0 0
5 1 0 4 2 3 3 1 0 0 0 3 0 3 10 8 9 7 0 0 7 11 0 0 0 0 0 0 0 0 0 0 0 0 0 0 0 0 0 0 0 0 0 0 0
14 14 2 1 10 5 2 3 0 0 0 0 0 0 6 3 0 0 0 2 26 41 0 0 0 0 0 0 0 0 0 0 0 0 0 0 0 0 0 0 0 0 0 0 0
36 25 9 0 5 10 2 1 0 0 0 0 0 0 0 0 0 0 0 0 4 27 0 0 0 0 0 0 0 0 0 0 0 0 0 0 0 0 0 0 0 0 0 0 0
32 37 19 6 0 17 3 1 0 0 0 0 0 0 0 0 0 0 0 0 0 20 8 7 0 0 0 0 0 0 0 0 0 0 0 0 0 0 0 0 0 0 0 0 0
13 26 24 12 4 10 11 0 0 0 0 0 0 1 0 0 0 0 0 0 0 31 17 21 0 0 0 0 0 0 0 0 0 0 0 0 0 0 0 0 0 0 0 0 0
24 31 33 21 9 0 13 9 7 0 0 0 0 0 0 0 0 0 0 0 0 0 1 22 37 20 15 2 0 0 0 0 0 0 0 0 0 0 0 0 0 0 0 0 0
2 29 23 17 14 1 1 16 29 9 1 0 8 0 0 0 0 0 0 0 0 0 0 0 19 14 32 9 2 5 1 0 0 0 0 0 0 0 0 0 0 0 0 0 0
0 12 43 36 14 0 0 14 26 21 9 15 0 0 0 0 0 0 0 0 0 0 0 1 0 0 2 10 6 2 0 0 0 0 0 0 0 0 0 0 0 0 0 0 0
21 0 23 31 25 6 3 14 29 7 3 15 6 0 0 0 0 0 0 0 0 0 0 0 0 0 0 5 0 0 0 1 0 0 0 0 0 0 0 0 0 0 0 0 0
14 8 34 46 41 6 3 9 1 0 0 0 1 0 0 0 0 0 0 0 0 0 0 0 0 0 0 0 1 0 0 0 0 0 0 0 0 0 0 0 0 0 0 0 0
3 13 33 56 35 19 0 0 0 0 0 0 0 0 0 0 0 0 0 0 0 0 0 0 0 0 0 0 0 0 0 1 0 0 0 0 0 0 0 0 0 0 0 0 0
5 7 36 67 43 13 0 0 0 0 0 0 0 0 0 0 1 0 0 0 0 0 0 0 0 0 0 0 0 0 0 0 0 0 0 0 0 0 0 0 0 0 0 0 0
20 1 40 77 32 1 4 0 0 4 0 0 0 0 2 17 2 0 0 0 0 0 0 0 0 0 0 0 0 0 0 0 0 0 0 0 0 0 0 0 0 0 0 0 0
6 0 28 26 0 1 0 0 4 8 0 0 2 0 13 3 0 0 1 2 0 0 0 0 0 0 0 0 0 1 0 0 0 0 0 0 1 0 0 0 0 0 0 0 0
1 6 5 0 0 0 0 0 20 0 0 0 0 1 3 6 4 1 0 19 8 4 1 0 0 0 0 0 0 6 1 12 8 2 1 0 0 0 0 0 0 0 0 0 0
1 22 3 0 0 0 0 0 1 0 0 0 0 2 0 1 2 3 0 2 3 0 1 0 1 2 0 0 0 2 5 0 0 2 0 0 0 0 0 0 0 0 0 0 0
14 0 2 0 0 0 0 0 0 0 0 0 0 0 0 0 1 2 6 1 16 4 0 0 0 1 0 0 0 0 0 0 0 0 0 0 0 0 0 0 0 0 0 0 0
17 0 16 3 0 1 1 0 0 0 0 0 1 1 0 0 1 3 6 1 3 1 1 0 0 0 0 0 0 0 0 0 0 0 0 0 0 0 0 0 0 0 0 0 0
2 5 18 1 1 9 1 0 0 0 0 0 0 0 0 2 1 2 0 0 1 0 1 0 0 0 0 0 1 0 0 0 0 0 0 0 0 0 0 0 0 0 0 0 0
10 5 39 1 5 7 0 0 0 0 0 0 0 0 0 0 1 0 0 0 0 0 1 4 1 0 1 3 0 5 1 5 0 0 0 0 0 0 0 0 0 0 0 0 0
7 0 23 5 4 0 0 0 0 0 0 0 0 0 1 0 0 0 0 0 0 0 2 1 1 0 0 0 0 0 0 3 0 0 0 0 0 0 0 0 0 0 0 0 0
10 6 24 11 0 0 2 0 0 0 0 0 0 2 0 5 0 0 0 0 0 0 0 0 0 0 0 0 1 0 0 1 0 11 0 0 0 0 0 0 0 0 0 0 0
5 0 7 8 2 0 1 3 2 0 1 2 2 5 4 0 0 0 0 0 0 0 0 0 0 0 0 0 0 1 2 1 1 3 0 0 0 0 0 0 0 0 0 0 0
0 1 1 0 1 0 0 1 2 2 1 2 2 2 2 1 1 0 0 0 0 0 1 1 0 0 0 0 0 0 1 2 1 0 0 0 0 0 0 0 0 0 0 0 0
7 2 3 3 1 0 1 1 1 0 1 0 1 1 1 2 0 0 0 0 0 0 2 4 0 0 0 2 3 0 0 1 1 2 0 0 0 0 0 0 0 0 0 0 0
1 0 0 4 1 2 1 0 0 3 1 0 0 1 3 1 0 0 0 0 0 0 2 0 0 0 0 2 0 0 0 0 0 0 1 0 0 0 0 0 0 0 0 0 0

GFSSW_con_mlcape_024.txt.gz
CAPE
12 5 0 0 1 5 1 1 2 6 3 8 0 1 0 35 39 17 0 0 0 0 0 0 0 0 0 0 0 0 0 0 0 0 0 0 0 0 0 0 0 0 0 0 0
39 7 6 2 0 4 5 2 2 5 4 0 0 4 6 19 42 15 0 5 0 4 0 0 0 0 0 0 0 0 0 0 0 0 0 0 0 0 0 0 0 0 0 0 0
32 21 18 9 0 1 6 3 2 1 0 1 0 0 2 0 0 0 0 4 31 48 0 0 0 0 0 0 0 0 0 0 0 0 0 0 0 0 0 0 0 0 0 0 0
28 44 31 17 7 0 3 3 3 0 0 0 6 0 0 0 0 0 0 0 13 42 4 0 0 0 0 0 0 0 0 0 0 0 0 0 0 0 0 0 0 0 0 0 0
36 50 62 32 14 1 6 0 4 1 0 0 9 9 0 0 0 0 0 0 0 28 17 2 0 0 0 0 0 0 0 0 0 0 0 0 0 0 0 0 0 0 0 0 0
32 7 15 46 17 10 12 4 2 2 0 0 0 8 0 0 0 0 0 0 2 8 8 19 2 0 0 0 0 0 0 0 0 0 0 0 0 0 0 0 0 0 0 0 0
11 22 15 30 22 19 8 12 9 0 0 0 13 0 0 0 0 0 0 0 0 15 25 25 16 6 7 0 0 0 0 0 0 0 0 0 0 0 0 0 0 0 0 0 0
6 22 2 47 40 27 14 30 10 11 0 0 21 0 0 0 0 0 0 0 0 0 0 0 26 20 25 2 2 1 1 0 0 0 0 0 0 0 0 0 0 0 0 0 0
8 7 27 8 52 37 17 20 29 30 14 13 1 0 0 0 0 0 0 0 0 0 0 0 0 0 0 4 1 0 0 0 0 0 0 0 0 0 0 0 0 0 0 0 0
5 6 3 11 49 51 16 17 38 13 5 4 7 0 0 0 0 0 0 0 0 0 0 0 4 5 1 0 0 0 0 0 0 0 0 0 0 0 0 0 0 0 0 0 0
11 8 6 32 36 68 12 8 11 14 0 0 0 0 0 0 0 0 0 0 0 0 0 0 1 1 2 0 0 0 0 0 3 0 0 0 0 0 0 0 0 0 0 0 0
28 16 7 4 39 41 0 0 0 0 0 0 0 0 0 0 0 0 0 0 0 0 0 0 0 0 0 0 1 0 0 0 0 0 0 0 0 0 0 0 0 0 0 0 0
46 38 22 0 23 4 0 0 0 0 0 0 0 0 0 1 1 0 0 0 0 0 0 0 0 0 0 0 0 0 0 0 0 0 0 0 0 0 0 0 0 0 0 0 0
42 6 4 5 8 1 3 0 0 0 0 0 0 0 0 4 6 2 1 0 1 0 0 0 0 0 0 0 0 0 0 0 0 0 0 0 0 0 0 0 0 0 0 0 0
48 13 0 12 19 1 0 0 0 0 0 0 4 0 15 0 0 0 1 4 6 0 0 0 0 0 1 0 0 1 0 0 0 0 0 0 1 0 0 0 0 0 0 0 0
7 1 2 2 2 0 0 1 0 0 0 0 1 3 7 3 0 1 7 20 2 4 3 0 0 0 0 0 0 2 0 4 5 0 1 0 0 0 0 0 0 0 0 0 0
0 11 25 29 12 0 0 1 0 0 0 0 1 1 1 0 2 3 4 4 3 1 0 3 1 1 0 0 0 1 0 0 0 0 0 0 0 0 0 0 0 0 0 0 0
25 40 8 0 29 0 1 0 0 0 0 0 0 0 1 0 0 1 1 3 14 1 0 0 0 0 0 0 0 0 0 0 0 0 0 0 0 0 0 0 0 0 0 0 0
53 30 10 0 41 3 0 0 0 0 0 0 1 1 1 0 0 3 5 1 0 2 0 1 0 0 0 0 1 1 0 0 0 0 0 0 0 0 0 0 0 0 0 0 0
11 19 0 2 34 16 0 0 0 0 0 0 0 0 0 0 0 1 0 0 1 1 0 0 1 0 0 0 2 3 0 0 0 0 0 0 0 0 0 0 0 0 0 0 0
0 1 30 43 29 15 1 0 0 0 0 0 0 0 0 0 0 0 0 0 0 0 0 1 2 0 3 4 0 2 1 0 0 0 0 0 0 0 0 0 0 0 0 0 0
0 0 67 27 1 2 1 0 0 0 0 0 0 0 0 0 0 1 0 0 0 0 0 0 2 0 0 0 0 0 0 6 3 0 0 0 0 4 0 0 0 0 0 0 0
4 1 48 1 0 0 0 0 0 0 0 0 0 0 0 0 0 0 0 0 0 0 0 0 0 0 0 0 2 0 0 0 6 4 0 0 0 0 0 0 0 0 0 0 0
0 0 7 9 4 0 0 3 0 0 0 0 0 2 0 2 0 0 0 0 0 0 0 0 0 0 0 0 0 0 1 0 0 0 0 0 0 0 0 0 0 0 0 0 0
0 1 1 0 1 0 0 0 0 0 0 0 2 2 2 1 1 0 0 0 0 0 0 0 0 0 0 1 0 0 0 1 0 0 0 0 0 0 0 0 0 0 0 0 0
1 2 2 2 1 0 0 0 0 0 1 1 2 2 3 1 0 0 0 0 0 0 1 3 0 1 0 0 1 2 1 0 0 0 0 0 0 0 6 0 0 0 0 0 0
0 6 0 6 1 1 1 0 1 1 0 1 0 1 1 0 0 0 0 0 0 0 3 1 0 0 0 0 0 0 1 3 2 2 0 0 0 0 0 0 2 0 0 0 0

GFSSW_con_mlcape_027.txt.gz
CAPE
52 41 17 3 0 0 0 3 7 6 1 0 0 2 6 27 37 8 0 0 0 1 0 0 0 0 0 0 0 0 0 0 0 0 0 0 0 0 0 0 0 0 0 0 0
34 50 51 17 1 0 0 3 2 3 1 0 0 1 0 17 31 17 0 4 17 31 0 0 0 0 0 0 0 0 0 0 0 0 0 0 0 0 0 0 0 0 0 0 0
76 46 39 52 22 1 0 5 0 0 3 1 0 0 0 7 0 0 0 24 48 44 5 0 0 0 0 0 0 0 0 0 0 0 0 0 0 0 0 0 0 0 0 0 0
15 73 84 70 54 12 2 1 0 0 0 0 0 0 0 0 0 0 0 0 2 37 4 0 0 0 0 0 0 0 0 0 0 0 0 0 0 0 0 0 0 0 0 0 0
20 8 59 49 67 24 3 0 0 0 0 0 0 1 0 0 0 0 0 0 0 10 8 1 0 0 0 0 0 0 0 0 0 0 0 0 0 0 0 0 0 0 0 0 0
5 15 3 32 12 39 7 7 0 0 0 0 0 0 0 0 0 0 0 0 0 20 15 10 2 0 0 0 0 0 0 0 0 0 0 0 0 0 0 0 0 0 0 0 0
7 8 7 4 32 44 18 17 1 0 0 0 1 0 0 0 0 0 0 0 0 9 16 26 2 0 0 0 0 0 0 0 0 0 0 0 0 0 0 0 0 0 0 0 0
15 8 10 8 17 24 32 35 12 0 12 0 18 0 0 0 0 0 0 0 0 0 0 9 14 23 16 4 2 4 0 0 0 0 0 0 0 0 0 0 0 0 0 0 0
43 16 3 10 9 14 30 26 33 16 30 29 0 0 0 0 0 0 0 0 0 0 0 0 5 0 0 0 0 1 0 0 0 0 0 0 0 0 0 0 0 0 0 0 0
36 31 9 7 6 28 39 15 42 35 9 15 8 0 0 0 0 0 0 0 0 0 0 1 0 0 2 0 0 0 0 0 0 0 0 0 0 0 0 0 0 0 0 0 0
47 29 24 14 8 25 44 13 5 4 1 0 0 0 0 0 0 0 0 0 0 0 0 0 1 0 0 0 0 0 0 0 0 0 0 0 0 0 0 0 0 0 0 0 0
51 34 41 14 16 2 0 0 0 0 0 0 0 0 0 0 0 0 0 0 0 0 0 0 0 0 1 0 1 2 1 0 1 0 0 0 0 0 0 0 0 0 0 0 0
49 62 41 11 5 2 1 0 0 0 0 0 0 0 0 0 0 0 0 0 0 0 0 0 0 0 0 0 1 0 1 1 0 0 0 0 0 0 0 0 0 0 0 0 0
48 57 48 24 0 12 2 0 0 0 0 0 0 0 0 8 0 0 0 0 0 0 0 0 0 0 0 0 0 0 0 0 0 0 0 0 0 0 0 0 0 0 0 0 0
41 45 30 43 0 3 4 0 0 0 0 0 0 2 10 0 0 0 0 4 1 0 0 0 0 0 0 0 0 0 0 0 0 0 0 0 0 0 0 0 0 0 0 0 0
19 7 11 15 4 0 0 0 0 0 0 0 3 5 9 6 10 2 14 22 2 3 2 0 0 0 0 0 0 0 0 3 4 2 0 0 0 0 0 0 0 0 0 0 0
37 66 5 4 2 8 3 0 0 0 0 0 2 6 5 2 5 3 2 5 1 2 2 0 1 0 0 0 0 1 1 0 0 0 0 0 0 0 0 0 0 0 0 0 0
38 32 18 1 0 0 0 0 0 0 0 0 0 1 1 1 0 0 1 4 3 2 4 0 0 1 0 1 0 0 0 0 0 0 0 0 0 0 0 0 0 0 0 0 0
83 40 15 9 1 0 4 0 0 0 0 1 1 3 2 0 0 1 1 1 1 8 0 0 0 0 0 0 0 0 2 0 0 0 0 0 0 0 0 0 0 0 0 0 0
17 12 20 12 0 7 0 0 0 0 0 0 0 0 0 0 0 3 0 0 0 0 5 0 0 0 0 1 0 7 0 6 1 0 0 0 0 0 0 0 0 0 0 0 0
5 10 13 9 2 2 0 0 0 0 0 0 0 0 0 0 0 0 0 0 0 0 0 0 0 0 0 0 0 3 4 0 2 3 1 0 0 0 0 1 0 0 0 0 0
5 0 4 55 0 0 0 0 0 0 0 0 0 0 0 0 0 0 0 0 0 0 0 0 1 0 0 0 0 0 0 0 5 0 0 0 0 0 9 0 0 0 0 0 0
3 9 22 0 0 0 1 0 0 0 0 0 0 0 0 0 0 0 0 0 0 0 0 0 2 0 0 0 0 1 0 0 0 0 0 0 0 0 0 0 0 0 0 0 0
0 6 1 14 0 0 0 0 0 0 0 0 0 0 0 2 0 0 0 0 0 0 0 0 0 0 0 0 0 0 1 0 0 0 0 0 0 0 0 0 0 0 0 0 0
0 1 0 0 0 0 0 0 0 0 0 0 0 0 0 2 2 2 0 0 0 0 0 0 0 0 0 0 1 0 0 0 0 0 0 0 0 0 0 0 0 0 0 0 0
4 2 1 1 0 2 0 0 0 0 0 0 0 0 1 1 0 0 0 0 0 0 0 1 0 1 0 1 1 0 0 1 0 1 1 0 0 0 0 0 0 0 0 0 0
1 2 6 2 0 0 0 0 0 0 0 0 0 1 3 1 1 0 0 0 0 3 1 3 0 0 0 0 0 0 0 0 1 1 0 0 0 0 0 0 0 0 0 0 0

GFSSW_con_mlcape_030.txt.gz
CAPE
55 64 57 42 6 0 0 0 0 1 4 3 0 8 13 7 19 27 11 1 1 0 0 0 0 0 0 0 0 0 0 0 0 0 0 0 0 0 0 0 0 0 0 0 0
5 27 62 55 42 6 0 0 0 0 0 0 3 5 0 2 32 23 1 14 27 19 0 0 0 0 0 0 0 0 0 0 0 0 0 0 0 0 0 0 0 0 0 0 0
3 7 20 49 54 25 0 0 0 0 0 0 2 0 0 0 4 1 1 61 65 54 0 0 0 0 0 0 0 0 0 0 0 0 0 0 0 0 0 0 0 0 0 0 0
3 7 6 11 50 53 14 0 0 0 0 0 0 1 0 0 0 0 0 0 33 48 17 0 0 0 0 0 0 0 0 0 0 0 0 0 0 0 0 0 0 0 0 0 0
5 2 5 6 5 39 45 6 0 0 0 0 0 0 0 0 0 0 0 0 0 38 22 0 0 1 0 0 0 0 0 0 0 0 0 0 0 0 0 0 0 0 0 0 0
11 18 0 7 9 17 34 6 3 0 0 0 0 0 0 0 0 0 0 0 0 19 43 8 2 0 2 0 0 0 0 0 0 0 0 0 0 0 0 0 0 0 0 0 0
11 32 25 3 5 4 37 22 15 1 0 0 0 0 0 0 0 0 0 0 0 35 27 21 3 0 4 7 5 1 0 0 0 0 0 0 0 0 0 0 0 0 0 0 0
15 28 29 9 1 8 25 73 22 2 0 0 6 0 0 0 0 0 0 0 0 0 32 31 17 19 20 6 5 0 0 0 0 0 0 0 0 0 0 0 0 0 0 0 0
17 22 30 19 6 9 5 44 27 22 18 6 0 0 0 0 0 0 0 0 0 0 0 40 32 0 8 5 1 1 0 0 0 0 0 0 0 0 0 0 0 0 0 0 0
38 37 31 31 22 12 0 41 25 36 33 33 3 0 0 0 0 0 0 0 0 0 0 0 0 0 0 1 0 0 0 0 0 0 0 0 0 0 0 0 0 0 0 0 0
28 79 63 32 30 10 9 40 15 7 4 0 0 0 0 0 0 0 0 0 0 2 6 8 3 0 0 0 0 0 0 0 0 0 0 0 0 0 0 0 0 0 0 0 0
77 107 87 58 38 20 2 9 1 0 0 0 0 0 0 0 0 0 0 0 5 5 8 1 0 0 0 0 0 3 1 0 0 0 0 0 0 0 0 0 0 0 0 0 0
70 81 79 42 41 2 4 7 0 0 0 0 0 0 0 0 0 0 0 0 0 2 0 0 0 0 0 0 2 2 0 1 0 0 0 0 0 0 0 0 0 0 0 0 0
28 63 62 49 15 1 11 0 0 0 1 0 0 0 0 4 0 0 0 0 0 0 0 3 0 0 0 1 0 0 0 1 3 1 0 0 0 0 0 0 0 0 0 0 0
41 46 18 31 14 0 0 27 0 0 0 0 1 2 4 0 0 1 0 1 5 0 0 0 0 1 2 0 1 1 0 1 1 2 0 0 1 0 0 0 0 0 0 0 0
32 43 59 22 23 0 0 2 0 0 0 1 4 7 5 6 6 8 11 19 6 6 0 1 0 0 2 0 0 1 4 6 6 7 2 0 0 0 0 0 0 0 0 0 0
25 56 26 27 9 14 10 0 0 0 0 1 3 12 5 5 10 5 10 8 3 2 2 4 6 1 0 1 0 5 2 2 1 1 0 0 0 0 0 0 0 0 0 0 0
46 72 83 9 24 15 13 0 0 0 1 2 10 9 11 2 12 4 6 6 6 5 0 1 0 0 1 3 2 3 6 2 0 0 0 0 0 0 0 0 0 0 0 0 0
8 2 33 39 10 17 1 0 0 0 0 1 9 4 3 3 0 3 6 0 0 4 0 1 0 0 0 0 1 2 3 0 8 5 5 0 0 0 0 0 0 0 0 0 0
3 4 23 45 23 0 0 1 0 0 0 0 1 0 0 1 2 1 1 0 1 1 2 4 0 0 0 0 2 3 1 2 3 1 1 0 0 0 0 0 0 0 0 0 0
6 1 34 41 1 0 0 0 2 0 0 0 0 2 1 2 1 0 0 0 0 0 7 4 1 0 3 2 0 2 1 3 1 4 1 0 0 0 0 0 0 0 1 0 0
5 0 23 0 0 0 2 4 4 0 0 0 0 0 0 0 0 1 0 0 0 0 0 0 1 0 0 0 0 0 0 1 1 0 0 1 0 0 0 0 12 0 0 0 0
1 32 13 1 0 2 1 6 0 0 0 0 0 0 0 0 0 0 0 0 0 0 0 1 3 0 0 0 0 0 0 0 3 0 0 1 0 0 0 2 0 0 0 0 0
4 0 1 1 5 0 0 0 0 0 0 0 0 0 0 0 0 0 0 0 0 0 0 0 4 0 0 0 0 0 0 1 1 0 0 0 0 0 0 0 0 0 0 0 0
1 0 0 1 1 0 0 0 0 0 0 0 0 0 0 0 0 0 0 0 0 0 0 1 0 0 0 0 0 0 2 3 0 0 0 0 0 0 1 0 0 0 0 0 0
2 11 2 3 2 1 1 0 0 0 0 0 0 0 0 0 0 1 1 1 0 0 2 5 0 2 0 0 2 0 0 1 2 1 3 4 0 0 0 0 0 1 0 0 0
0 0 6 4 5 8 1 0 0 0 0 0 0 0 0 0 0 3 0 0 0 0 0 5 2 0 0 0 0 0 1 2 0 1 1 1 0 0 0 0 0 0 0 0 0

GFSSW_con_mlcape_033.txt.gz
CAPE
0 4 23 27 40 37 0 0 0 0 0 0 1 0 9 17 22 28 12 4 3 0 0 1 0 0 0 0 0 0 0 0 0 0 0 0 0 0 0 0 0 0 0 0 0
3 1 4 19 31 45 20 1 0 0 0 0 0 0 0 2 36 17 2 4 2 2 0 0 0 0 0 0 0 0 0 0 0 0 0 0 0 0 0 0 0 0 0 0 0
6 6 3 5 17 18 48 11 0 1 0 0 0 0 0 0 31 7 0 17 35 27 6 8 6 0 0 0 0 0 0 0 0 0 0 0 0 0 0 0 0 0 0 0 0
7 8 7 2 4 12 32 65 0 2 1 0 0 0 0 1 4 12 0 19 47 54 19 7 5 0 0 0 0 0 0 0 0 0 0 0 0 0 0 0 0 0 0 0 0
2 3 2 7 1 5 10 33 22 3 1 0 0 0 0 3 1 0 0 0 0 44 35 7 9 4 0 0 0 0 0 0 0 0 0 0 0 0 0 0 0 0 0 0 0
5 1 10 22 8 2 2 10 53 13 4 0 0 0 0 0 0 0 0 0 2 16 28 20 18 12 17 6 0 0 0 0 0 0 0 0 0 0 0 0 0 0 0 0 0
9 12 4 17 16 9 0 10 58 23 14 1 0 0 0 0 0 0 0 0 9 8 31 11 6 0 11 3 4 0 0 0 0 0 0 0 0 0 0 0 0 0 0 0 0
10 15 19 13 22 18 5 7 20 31 19 0 0 0 0 0 0 0 0 0 0 38 31 31 9 13 15 9 0 0 0 0 0 0 0 0 0 0 0 0 0 0 0 0 0
10 20 18 26 28 29 9 7 4 48 35 15 4 3 1 0 0 0 0 6 4 1 27 22 22 21 24 10 2 1 0 0 0 0 0 0 0 0 0 0 0 0 0 0 0
24 19 22 30 44 29 21 3 4 44 31 45 15 0 0 0 0 0 0 12 7 10 19 11 7 0 0 8 0 0 0 0 0 0 0 0 0 0 0 0 0 0 0 0 0
48 43 70 59 48 29 21 0 50 14 44 7 0 0 0 0 0 0 0 10 8 6 1 0 1 0 0 4 1 0 0 0 0 0 0 0 0 0 0 0 0 0 0 0 0
46 34 79 97 82 50 32 2 5 11 4 0 0 1 0 0 0 0 0 3 1 2 1 2 2 0 0 0 0 0 0 0 0 0 0 0 0 0 0 0 0 0 0 0 0
18 14 26 87 75 16 29 0 1 2 8 8 2 0 0 0 3 0 0 3 4 4 0 3 0 0 0 0 0 0 0 0 0 0 0 0 0 0 0 0 0 0 0 0 0
6 18 56 32 0 8 27 35 0 6 0 1 3 0 0 0 1 4 0 0 3 0 1 4 0 0 0 0 0 0 0 0 0 0 0 0 0 0 0 0 0 0 0 0 0
27 40 30 29 16 18 22 3 36 18 0 0 5 2 4 0 0 4 1 7 1 3 0 0 0 2 0 0 0 0 1 0 0 1 0 0 0 0 0 0 0 0 0 0 0
29 24 49 39 22 11 33 43 14 0 0 2 2 3 3 8 5 12 10 12 5 3 2 2 0 2 3 0 0 0 0 0 1 2 0 0 0 0 0 0 0 0 0 0 0
28 1 82 12 9 29 23 3 0 0 0 3 5 8 5 1 6 12 6 6 0 2 0 3 1 1 0 2 2 5 3 0 0 1 0 0 0 0 0 0 0 0 0 0 0
6 0 92 12 22 60 0 0 3 1 1 0 14 15 9 1 8 1 2 7 5 1 0 0 0 0 0 1 1 0 4 0 0 0 0 0 0 0 0 0 0 0 0 0 0
18 5 33 65 34 0 6 1 0 0 1 6 20 10 10 6 2 10 11 7 6 2 0 0 0 0 2 2 1 2 1 0 2 0 0 0 0 0 0 0 0 0 0 0 0
10 4 17 36 36 0 5 0 5 1 0 6 1 1 2 10 4 3 4 1 0 0 1 1 0 0 3 4 0 1 1 0 0 1 0 0 0 0 0 0 0 0 1 5 0
0 15 50 23 5 1 0 3 20 5 1 4 0 1 0 3 3 1 0 0 0 0 3 0 1 0 0 1 0 0 3 2 1 1 1 0 0 0 0 0 0 12 19 20 3
1 2 31 14 2 1 0 6 5 2 0 0 2 0 0 2 4 3 0 0 0 0 0 1 0 0 0 0 0 2 0 1 2 0 0 0 0 0 0 0 26 30 30 7 0
8 6 32 9 2 1 2 4 8 1 1 1 2 0 0 2 0 3 0 0 0 0 1 0 1 0 0 0 0 0 0 0 1 0 0 1 0 0 0 0 1 41 6 0 0
5 1 1 2 5 5 0 3 2 11 1 0 0 0 0 0 0 0 0 0 0 0 0 2 2 0 0 0 0 0 1 0 0 0 0 0 0 0 2 6 0 0 6 2 3
17 1 2 4 21 4 3 3 5 3 0 0 0 0 0 0 2 0 1 0 0 0 0 1 0 2 1 0 0 0 1 0 1 0 0 0 0 0 1 2 2 4 5 0 0
1 4 4 9 5 6 0 0 12 0 0 0 0 0 0 1 1 0 0 1 1 1 1 3 0 2 0 0 0 1 0 1 2 1 1 0 0 0 0 0 0 0 2 3 2
0 0 2 5 10 6 0 0 6 0 0 0 0 0 2 1 0 0 0 1 1 1 4 7 3 0 0 0 0 1 0 2 2 4 2 0 0 3 0 0 1 0 0 0 10

GFSSW_con_mlcape_036.txt.gz
CAPE
3 3 1 1 6 11 45 41 0 0 2 3 0 1 0 0 0 14 3 0 2 13 0 0 0 0 0 0 0 0 0 0 0 0 0 0 0 0 0 0 0 0 0 0 330
4 1 2 3 1 5 10 54 17 0 1 3 1 0 0 0 3 6 0 15 29 15 0 0 0 0 0 0 0 0 0 0 0 0 0 0 0 0 0 0 0 0 0 0 4
5 4 1 3 6 0 7 10 61 7 0 1 0 0 0 0 7 0 0 4 44 30 0 0 0 0 0 0 0 0 0 0 0 0 0 0 0 0 0 0 0 0 0 0 0
16 11 7 6 5 3 5 4 11 68 2 1 0 0 0 0 0 1 38 25 58 50 19 20 0 1 0 0 0 0 0 0 0 0 0 0 0 0 0 0 0 0 0 0 0
22 20 14 7 13 5 9 6 6 48 26 5 0 0 0 1 0 2 0 0 15 44 32 18 0 0 0 0 0 0 0 0 0 0 0 0 0 0 0 0 0 0 0 0 0
33 22 23 16 16 26 22 10 3 12 36 9 0 0 0 0 0 0 0 0 0 5 34 36 10 7 10 0 1 1 0 0 0 0 0 0 0 0 0 0 0 0 0 0 0
33 22 16 22 20 22 26 27 5 1 71 18 1 0 2 0 0 0 0 0 14 4 48 49 11 10 11 5 3 1 0 0 0 0 0 0 0 0 0 0 0 0 0 0 0
72 59 18 22 15 22 31 33 5 1 46 14 19 0 4 0 0 0 0 0 0 23 20 39 22 10 18 3 2 0 0 0 0 0 0 0 0 0 0 0 0 0 0 0 0
71 78 61 35 24 26 37 36 14 0 9 21 26 10 0 0 0 0 0 0 0 43 22 69 18 2 9 1 4 1 0 0 0 0 0 0 0 0 0 0 0 0 0 0 0
73 85 87 61 55 52 43 42 12 0 26 34 27 21 0 0 0 0 0 1 1 1 27 37 2 4 11 6 0 0 0 0 0 0 0 0 0 0 0 0 0 0 0 0 0
84 95 65 17 74 57 19 6 35 33 34 5 2 0 0 0 0 0 0 3 5 12 11 26 5 0 0 0 0 0 0 0 0 0 0 0 0 0 0 0 0 0 0 0 0
70 38 15 25 44 81 57 15 0 1 7 6 6 6 0 0 0 0 0 5 6 8 4 0 0 0 0 3 2 0 0 0 0 0 0 0 0 0 0 0 0 0 0 0 0
17 8 33 37 11 0 39 6 0 0 6 3 10 8 0 0 0 0 0 0 2 3 1 2 0 0 0 0 0 0 0 0 0 0 0 0 0 0 0 0 0 0 0 0 0
11 23 30 23 4 3 29 17 6 2 0 2 2 17 0 3 0 0 0 2 6 0 0 0 0 0 0 0 0 0 0 0 0 0 0 0 0 0 0 0 0 0 0 0 0
25 29 40 74 0 0 17 11 0 9 0 0 3 4 0 0 0 1 0 6 1 2 3 0 0 0 0 0 0 0 0 0 0 0 0 0 0 0 0 0 0 0 0 0 0
19 25 24 1 11 0 0 15 3 0 0 2 1 3 4 20 8 0 4 3 1 0 0 1 0 0 0 0 0 0 0 0 0 0 0 0 0 0 0 0 0 0 0 0 0
7 22 7 52 9 0 16 0 0 0 0 0 2 9 5 9 14 1 4 0 0 0 0 1 0 0 0 0 0 1 0 0 0 0 0 0 0 0 0 0 0 0 0 0 0
22 23 38 17 20 21 1 0 0 0 0 0 6 5 3 9 12 8 8 2 3 0 0 0 0 1 0 0 0 0 0 0 0 0 0 0 0 0 0 0 0 0 0 0 0
14 1 8 41 38 4 4 0 0 0 1 13 13 1 6 7 2 8 3 4 0 4 0 0 0 0 0 1 0 1 0 0 0 0 0 0 0 0 0 0 0 0 0 0 0
27 3 42 14 12 0 1 0 1 1 0 7 3 5 0 1 0 7 4 0 1 0 0 0 0 0 4 1 1 0 0 0 0 0 0 0 0 0 0 0 0 0 0 0 0
0 7 19 28 3 0 1 0 4 1 0 2 0 2 0 1 5 2 0 0 1 0 1 0 1 0 0 0 0 0 0 0 0 0 0 0 0 0 0 0 0 0 0 0 2
0 2 6 16 0 0 2 0 3 2 3 5 1 0 2 2 5 0 0 0 0 0 0 0 0 0 0 0 0 0 0 0 1 0 0 0 0 0 0 0 0 0 3 0 0
3 4 11 8 0 1 0 0 4 4 11 6 0 1 0 0 0 2 0 0 0 0 0 0 0 0 0 0 0 0 0 0 0 0 0 0 0 0 0 0 0 0 0 0 1
1 0 0 0 1 0 0 3 1 0 6 3 0 1 0 0 2 0 0 0 0 0 0 0 0 0 0 0 0 0 0 0 0 0 0 0 0 0 0 0 0 0 0 0 2
8 0 1 1 8 1 2 3 0 13 0 2 5 4 3 0 0 0 0 0 0 0 0 0 0 0 0 0 0 0 0 0 0 0 1 0 1 0 0 0 0 0 0 0 1
0 1 7 0 4 7 0 1 18 8 3 6 0 0 0 1 0 1 0 0 0 0 0 0 0 0 0 0 0 0 0 0 0 2 3 1 0 2 2 4 1 0 0 0 0
0 0 1 1 1 2 8 0 4 2 0 0 0 0 1 0 0 0 0 0 0 0 0 3 0 0 0 0 0 0 0 0 0 1 2 0 1 2 1 1 3 1 0 0 0

GFSSW_con_mlcape_039.txt.gz
CAPE
7 5 5 2 1 2 7 7 22 27 0 0 1 0 1 0 0 5 0 0 0 9 0 0 0 0 0 0 0 0 0 0 0 0 0 0 0 0 0 0 0 0 0 155 312
6 14 6 7 7 2 1 4 6 30 21 1 0 0 0 0 0 1 0 0 3 24 1 0 0 0 0 0 0 0 0 0 0 0 0 0 0 0 0 0 0 0 0 197 349
17 18 18 13 6 11 2 8 7 5 56 5 2 0 0 0 3 0 0 0 12 30 0 0 0 0 0 0 0 0 0 0 0 0 0 0 0 0 0 0 0 0 0 0 23
36 28 29 17 17 13 11 6 6 6 22 33 5 0 0 0 0 1 35 0 10 40 0 0 0 2 0 0 0 0 0 0 0 0 0 0 0 0 0 0 0 0 0 0 0
29 38 26 37 20 24 18 5 11 16 10 66 10 1 0 0 0 0 12 79 68 17 0 0 0 0 2 0 0 0 0 0 0 0 0 0 0 0 0 0 0 0 0 0 0
53 37 41 36 37 25 24 28 13 16 2 16 12 10 0 0 0 0 0 14 26 34 9 23 0 0 0 0 0 0 0 0 0 0 0 0 0 0 0 0 0 0 0 0 0
47 31 71 51 28 26 20 26 29 26 2 7 19 2 3 0 0 0 0 0 0 0 16 23 31 0 3 0 0 0 0 0 0 0 0 0 0 0 0 0 0 0 0 0 0
64 84 110 85 68 50 30 16 27 10 2 0 35 1 0 0 0 0 0 0 0 2 6 50 21 3 12 0 0 0 0 0 0 0 0 0 0 0 0 0 0 0 0 0 0
100 115 123 117 74 83 52 33 30 6 5 0 14 1 0 0 0 0 0 0 0 30 41 42 10 7 12 5 3 1 0 0 0 0 0 0 0 0 0 0 0 0 0 0 0
75 89 51 98 60 58 90 31 23 19 0 5 7 2 0 0 0 0 0 0 0 44 44 19 5 2 0 1 0 0 0 0 0 0 0 0 0 0 0 0 0 0 0 0 0
77 85 36 11 30 63 42 0 5 3 2 2 7 0 0 0 0 0 0 0 0 24 5 27 1 0 0 0 0 0 0 0 0 0 0 0 0 0 0 0 0 0 0 0 0
53 18 8 26 45 53 9 0 14 0 3 5 2 0 0 0 0 0 0 1 4 0 0 7 2 2 1 1 1 0 0 0 0 0 0 0 0 0 0 0 0 0 0 0 0
14 16 23 38 32 0 0 0 4 0 1 20 10 1 0 0 0 0 0 2 0 6 1 0 0 0 0 0 1 0 0 0 0 0 0 0 0 0 0 0 0 0 0 0 0
17 24 33 38 1 0 6 20 1 0 0 1 5 3 1 0 0 0 3 0 2 1 0 0 0 0 0 0 0 0 0 0 0 0 0 0 0 0 0 0 0 0 0 0 0
11 26 24 45 20 1 3 17 0 0 0 1 6 3 10 0 0 2 0 8 0 0 0 0 0 0 0 0 0 0 0 0 0 0 0 0 0 0 0 0 0 0 0 0 0
0 9 42 14 29 5 1 11 0 0 0 1 1 13 17 9 1 1 3 1 0 4 1 0 0 0 0 0 0 0 0 0 0 0 0 0 0 0 0 0 0 0 0 0 0
16 31 42 33 10 1 0 1 0 0 0 0 2 3 3 23 1 0 2 1 0 0 1 4 0 0 0 0 0 0 0 0 0 0 0 0 0 0 0 0 0 0 0 0 0
26 62 3 44 20 5 0 0 0 0 0 3 1 11 15 6 4 4 2 0 0 0 0 0 0 0 0 0 0 0 0 0 0 0 0 0 0 0 0 0 0 0 0 0 0
52 1 5 17 2 2 4 0 0 0 1 2 1 0 3 5 3 7 8 0 0 0 0 0 0 0 0 0 0 0 0 0 0 0 0 0 0 0 0 0 0 0 0 0 0
0 5 11 22 14 0 0 0 0 2 2 0 0 0 0 5 1 2 3 0 1 0 0 0 0 1 2 0 0 0 0 0 0 0 0 0 0 0 0 0 0 0 0 0 0
0 2 6 41 0 0 0 6 0 5 2 1 0 0 0 3 1 3 0 0 0 0 0 0 0 0 0 0 0 0 1 0 0 0 0 0 0 0 0 0 0 0 0 0 0
0 0 4 0 0 0 11 6 1 2 0 1 0 0 0 2 1 0 0 0 0 0 0 0 0 0 0 0 0 0 0 0 0 0 0 0 0 0 0 0 0 0 0 0 0
0 0 0 0 1 1 5 0 2 4 17 9 1 0 0 0 0 0 0 0 0 0 0 0 0 0 0 0 0 0 0 0 0 0 0 1 0 0 0 0 0 0 0 0 0
0 0 0 0 0 0 0 0 0 9 9 0 0 0 3 3 0 0 0 0 0 0 1 0 0 0 0 0 0 0 0 0 0 0 0 0 0 0 0 0 0 0 0 0 0
0 0 0 0 0 0 1 0 8 7 6 8 5 1 2 0 0 0 0 0 0 0 0 0 0 0 0 0 0 0 0 0 0 0 0 0 0 0 0 1 0 1 1 0 0
0 0 0 0 1 0 0 0 4 0 0 0 0 0 0 0 0 0 0 0 0 0 0 0 0 0 0 0 0 0 0 0 0 0 0 1 0 0 0 0 1 0 0 1 0
0 0 1 0 0 0 0 2 1 0 0 0 1 0 0 0 0 0 0 0 0 0 0 0 0 0 0 0 0 0 0 0 0 0 0 0 0 0 0 1 1 0 2 3 2

GFSSW_con_mlcape_042.txt.gz
CAPE
20 4 10 18 16 9 2 5 6 0 11 49 0 2 2 3 5 0 0 0 0 5 0 0 0 0 0 0 0 0 0 0 0 0 0 0 0 0 0 0 0 0 0 0 116
32 31 21 10 15 13 12 3 7 0 3 18 33 5 5 3 0 0 0 0 0 26 2 0 0 0 0 0 0 0 0 0 0 0 0 0 0 0 0 0 0 0 0 140 222
32 33 35 23 33 16 19 18 5 1 1 4 78 6 4 5 1 0 0 0 0 15 0 0 0 0 0 0 0 0 0 0 0 0 0 0 0 0 0 0 0 0 12 125 202
41 32 23 23 34 42 42 19 7 7 1 3 12 18 0 0 0 0 112 0 0 42 12 0 0 0 0 0 0 0 0 0 0 0 0 0 0 0 0 0 0 0 0 0 62
73 76 68 33 37 24 34 20 13 6 0 4 2 17 3 0 0 0 0 1 21 39 0 0 1 0 0 0 0 0 0 0 0 0 0 0 0 0 0 0 0 0 0 0 0
62 54 71 94 83 63 40 42 14 18 5 1 1 28 0 0 0 0 0 117 53 30 2 1 2 0 0 0 0 0 0 0 0 0 0 0 0 0 0 0 0 0 0 0 0
58 72 82 91 95 100 76 34 31 18 19 0 0 13 2 0 0 0 9 70 51 30 0 2 22 5 0 0 0 0 0 0 0 0 0 0 0 0 0 0 0 0 0 0 0
65 99 114 118 118 111 96 44 9 4 11 0 2 38 0 0 0 0 0 0 0 0 35 36 25 4 0 0 0 0 0 0 0 0 0 0 0 0 0 0 0 0 0 0 0
56 89 95 83 103 88 88 86 46 22 15 6 3 12 0 0 0 0 0 0 0 0 11 61 43 16 4 0 0 0 0 0 0 0 0 0 0 0 0 0 0 0 0 0 0
51 56 58 44 28 42 62 33 1 24 8 9 0 1 0 0 0 0 0 0 0 91 22 55 24 3 19 5 0 0 0 0 0 0 0 0 0 0 0 0 0 0 0 0 0
32 30 25 17 28 48 18 0 0 0 0 10 1 0 0 0 0 0 0 0 2 36 7 22 5 2 3 0 0 0 0 0 0 0 0 0 0 0 0 0 0 0 0 0 0
17 22 16 27 37 55 5 0 0 2 0 0 2 0 0 0 0 0 0 0 3 14 15 14 7 0 0 0 2 1 1 0 0 0 0 0 0 0 0 0 0 0 0 0 0
32 28 29 44 26 1 0 0 5 1 3 0 10 2 0 0 0 0 0 1 0 0 0 2 0 0 1 1 5 1 0 0 0 0 0 0 0 0 0 0 0 0 0 0 0
16 15 19 50 24 0 2 2 3 5 0 1 5 2 2 0 0 0 8 1 14 1 2 1 0 0 0 0 0 0 0 0 0 0 0 0 0 0 0 0 0 0 0 0 0
8 2 29 57 38 3 13 8 1 0 0 1 3 5 11 0 0 4 0 5 0 1 0 0 0 0 0 0 0 0 0 0 0 0 0 0 0 0 0 0 0 0 0 0 0
29 47 56 48 5 6 10 14 0 0 0 5 3 8 6 1 0 4 11 0 0 2 0 0 0 0 0 0 0 0 0 0 0 0 0 0 0 0 0 0 0 0 0 0 0
39 64 106 28 12 22 0 7 0 0 0 0 1 11 1 4 0 14 5 0 0 1 0 0 0 0 0 0 0 0 0 0 0 0 0 0 0 0 0 0 0 0 0 0 0
25 44 10 22 8 0 1 0 0 0 0 1 1 4 2 6 11 15 2 0 0 0 0 0 0 0 0 0 0 0 0 0 0 0 0 0 0 0 0 0 0 0 0 0 0
0 4 0 0 2 0 6 0 0 0 1 5 8 4 1 7 3 5 0 0 0 0 0 0 0 0 0 0 0 0 0 0 0 0 0 0 0 0 0 0 0 0 0 0 0
0 2 4 20 0 0 0 1 0 0 1 0 0 0 0 2 2 1 1 0 0 0 0 0 0 0 0 0 0 0 0 0 0 0 0 0 0 0 0 0 0 0 0 0 0
0 1 1 1 0 0 0 1 0 2 2 0 0 0 0 0 0 0 0 0 0 0 0 0 0 0 0 0 0 0 0 0 0 0 0 0 0 0 0 0 0 0 0 0 0
0 0 0 0 0 0 2 0 2 0 0 0 0 0 0 0 0 0 0 0 0 0 0 0 0 0 0 0 0 0 0 0 0 0 0 0 0 0 0 0 0 0 0 0 0
0 0 0 0 0 0 1 1 1 3 2 0 0 0 0 0 0 0 0 0 0 0 0 0 0 0 0 0 0 0 0 0 0 0 0 0 0 0 0 0 0 0 0 0 0
0 0 0 0 0 0 0 0 2 5 0 0 0 0 0 0 0 0 0 0 0 0 1 0 0 0 0 0 0 0 0 0 0 0 0 0 0 0 0 0 0 0 0 2 0
0 0 0 0 0 1 0 0 8 14 1 0 0 0 4 3 0 0 0 0 0 0 0 0 0 0 0 0 0 0 0 0 0 0 0 0 0 0 0 0 0 0 0 0 0
0 0 1 0 1 0 0 0 0 1 0 0 0 0 0 0 0 0 0 0 0 0 0 0 0 0 0 0 0 0 0 0 0 0 0 0 0 0 0 0 0 0 1 0 0
0 0 1 0 0 0 0 0 0 0 0 0 0 0 0 0 0 0 0 0 0 0 0 0 0 0 0 0 0 0 0 0 0 0 0 0 0 0 0 0 0 1 0 0 0

GFSSW_con_mlcape_045.txt.gz
CAPE
35 34 23 28 26 44 38 13 2 0 0 1 8 48 6 2 11 5 0 0 0 0 0 0 0 0 0 0 0 0 0 0 0 0 0 0 0 0 0 0 0 0 0 0 0
35 31 27 25 28 30 36 40 20 4 0 0 1 34 28 8 1 0 0 0 0 0 5 0 0 0 0 0 0 0 0 0 0 0 0 0 0 0 0 0 0 0 0 2 18
30 45 73 55 62 45 32 24 29 17 5 0 3 12 49 11 0 0 0 0 0 0 29 0 0 0 0 0 0 0 0 0 0 0 0 0 0 0 0 0 0 0 0 20 28
56 50 54 80 77 59 67 48 30 14 9 1 2 4 11 0 0 0 108 0 0 11 30 6 0 0 0 0 0 0 0 0 0 0 0 0 0 0 0 0 0 0 0 0 21
31 41 54 101 68 83 86 87 55 15 7 3 0 4 20 0 0 0 4 127 11 57 23 3 0 0 0 0 0 0 0 0 0 0 0 0 0 0 0 0 0 0 0 0 0
34 37 55 81 74 79 129 99 58 23 20 9 6 4 3 0 0 0 0 105 104 40 8 13 0 0 0 0 0 0 0 0 0 0 0 0 0 0 0 0 0 0 0 0 0
39 42 63 90 98 112 144 119 70 46 42 3 3 4 4 0 0 0 62 147 165 90 4 11 1 7 0 0 0 0 0 0 0 0 0 0 0 0 0 0 0 0 0 0 0
31 33 40 57 84 117 137 144 104 57 37 11 15 12 5 0 0 0 0 57 90 71 45 46 26 13 0 0 0 0 0 0 0 0 0 0 0 0 0 0 0 0 0 0 0
32 28 23 24 61 50 79 118 108 93 51 33 9 4 0 0 0 0 0 1 17 30 69 36 49 26 7 7 0 0 0 0 0 0 0 0 0 0 0 0 0 0 0 0 0
28 21 16 8 19 36 98 100 47 75 47 30 9 13 0 0 0 0 0 0 0 1 33 83 45 7 9 12 0 0 0 0 0 0 0 0 0 0 0 0 0 0 0 0 0
25 25 21 4 18 70 34 0 0 0 1 0 0 1 0 0 0 0 0 0 54 69 39 35 21 4 0 0 0 0 0 0 0 0 0 0 0 0 0 0 0 0 0 0 0
27 13 17 12 39 78 16 8 0 3 0 0 0 1 1 0 0 0 0 0 30 36 14 23 11 1 0 6 2 0 0 0 0 0 0 0 0 0 0 0 0 0 0 0 0
11 12 9 17 48 1 0 0 0 4 0 0 0 3 3 0 1 0 0 3 23 43 10 3 2 0 1 1 1 1 0 0 0 0 0 0 0 0 0 0 0 0 0 0 0
26 47 21 26 6 4 0 6 0 4 0 0 0 3 0 0 2 0 0 28 19 1 2 0 0 0 2 0 0 0 0 0 0 0 0 0 0 0 0 0 0 0 0 0 0
67 49 43 48 7 12 2 11 3 1 0 0 3 8 20 0 0 0 0 1 0 0 0 0 0 0 0 0 0 0 0 0 0 0 0 0 0 0 0 0 0 0 0 0 0
91 72 18 24 12 8 12 15 0 0 0 0 2 4 0 3 5 2 6 0 0 0 0 0 0 0 0 0 0 0 0 0 0 0 0 0 0 0 0 0 0 0 0 0 0
25 19 2 20 1 18 15 2 0 0 0 0 0 2 1 13 13 13 4 13 4 3 0 0 0 0 0 0 0 0 0 0 0 0 0 0 0 0 0 0 0 0 0 0 0
4 0 2 0 5 1 0 0 0 0 0 3 2 2 4 9 19 5 0 3 0 0 0 0 0 0 0 0 0 0 0 0 0 0 0 0 0 0 0 0 0 0 0 0 0
0 0 2 5 0 0 0 0 0 0 0 4 6 1 0 2 1 8 11 2 0 0 0 0 0 0 0 0 0 0 0 0 0 0 0 0 0 0 0 0 0 0 0 0 0
0 0 0 0 0 0 0 0 0 0 1 0 0 0 0 0 0 2 1 1 0 0 0 0 0 0 0 0 0 0 0 0 0 0 0 0 0 0 0 0 0 0 0 0 0
0 0 0 0 0 0 0 0 1 0 1 0 0 0 0 0 0 2 0 0 0 0 0 0 0 0 0 1 0 0 0 0 0 0 0 0 0 0 0 0 0 0 0 0 0
0 0 0 0 0 0 1 0 1 0 0 0 0 0 0 0 0 0 0 0 0 0 0 0 0 0 0 0 0 0 0 0 0 0 0 0 0 0 0 0 0 0 0 0 0
0 0 0 0 0 0 0 0 0 0 0 0 0 0 0 0 0 0 0 0 0 0 0 0 0 0 0 0 0 0 0 0 0 0 0 0 0 0 0 0 0 0 0 0 0
0 0 0 0 0 0 0 0 1 0 0 0 0 0 0 0 0 0 0 0 0 0 0 0 0 0 0 0 0 0 0 0 0 0 0 0 0 0 0 0 0 0 0 0 0
0 0 0 0 0 0 0 0 3 0 0 0 0 0 0 0 0 0 0 0 0 3 0 0 0 0 0 0 0 0 0 0 0 0 0 0 0 0 0 0 0 0 0 0 0
0 1 0 0 0 0 0 0 0 0 0 0 0 1 1 0 0 0 0 0 0 0 0 0 0 0 0 0 0 0 0 0 0 0 0 0 0 0 0 0 0 0 0 0 0
0 0 0 0 0 0 0 0 0 0 1 0 0 0 0 0 0 0 0 0 0 0 0 0 0 0 0 0 0 0 0 0 0 0 0 0 0 0 0 0 0 0 0 0 0

GFSSW_con_mlcape_048.txt.gz
CAPE
30 32 31 35 47 39 34 25 27 8 8 0 0 0 9 31 5 7 0 0 0 0 15 0 4 0 0 0 0 0 0 0 0 0 0 0 0 0 0 0 0 0 0 0 4
21 37 43 46 55 65 48 37 38 27 4 5 0 0 1 32 1 0 0 0 0 0 2 17 0 0 0 0 0 0 0 0 0 0 0 0 0 0 0 0 0 0 0 0 217
39 31 28 30 35 60 50 74 51 30 17 0 0 1 7 20 0 0 0 0 0 1 10 8 0 0 0 0 0 0 0 0 0 0 0 0 0 0 0 0 0 0 0 0 234
42 37 24 40 41 44 66 93 105 98 49 1 2 1 4 7 3 0 34 7 0 0 48 19 1 5 0 0 0 0 0 0 0 0 0 0 0 0 0 0 0 0 0 0 0
34 39 38 38 43 47 73 81 126 120 73 27 13 5 3 1 0 0 0 73 0 6 11 25 7 2 0 0 0 0 0 0 0 0 0 0 0 0 0 0 0 0 0 0 0
24 42 39 36 37 54 104 126 150 155 125 67 33 5 5 0 0 0 0 52 11 138 38 27 10 1 0 0 0 0 0 0 0 0 0 0 0 0 0 0 0 0 0 0 0
34 42 46 28 28 37 107 128 133 169 134 73 42 28 5 0 0 0 0 121 77 194 89 19 6 1 0 0 0 0 0 0 0 0 0 0 0 0 0 0 0 0 0 0 0
48 54 42 45 31 33 83 101 140 150 138 87 37 29 3 0 0 0 0 60 191 185 120 39 7 17 0 0 0 0 0 0 0 0 0 0 0 0 0 0 0 0 0 0 0
66 57 38 27 20 33 76 151 170 176 169 113 21 1 23 11 0 1 0 53 131 83 80 14 54 27 11 0 0 0 0 0 0 0 0 0 0 0 0 0 0 0 0 0 0
57 59 36 19 24 41 108 83 44 62 92 73 12 5 4 0 0 0 0 1 35 69 77 60 23 13 12 7 0 0 0 0 0 0 0 0 0 0 0 0 0 0 0 0 0
14 16 9 13 36 96 45 0 0 0 0 0 5 0 7 0 0 0 0 0 63 33 44 26 13 2 2 2 0 0 0 0 0 0 0 0 0 0 0 0 0 0 0 0 0
37 27 29 10 46 116 5 0 0 2 0 0 0 0 0 18 0 2 0 1 46 18 10 4 8 4 0 0 0 0 0 0 0 0 0 0 0 0 0 0 0 0 0 0 0
118 121 72 62 16 4 0 0 0 2 3 16 1 7 15 7 7 0 0 7 30 52 24 10 3 2 8 6 10 10 0 0 0 0 0 0 0 0 0 0 0 0 0 0 0
42 69 107 53 2 5 0 1 0 11 0 0 0 6 1 6 1 0 0 48 40 21 21 2 14 4 2 3 7 0 0 0 0 0 0 0 0 0 0 0 0 0 0 0 0
26 33 33 8 6 6 6 8 9 2 0 0 0 17 7 4 0 1 0 5 37 11 0 0 6 1 4 1 0 0 0 0 0 0 0 0 0 0 0 0 0 0 0 0 0
3 13 6 0 0 9 8 1 0 0 0 0 8 2 1 2 9 8 16 0 0 0 0 0 0 0 0 0 0 0 0 0 0 0 0 0 0 0 0 0 0 0 0 0 0
1 1 7 1 1 11 3 0 0 0 0 0 0 2 5 10 14 23 8 11 0 0 0 0 0 0 0 0 0 0 0 0 0 0 0 0 0 0 0 0 0 0 0 0 0
0 0 1 2 9 0 0 0 0 0 0 0 1 3 6 14 17 2 0 6 0 0 0 0 0 0 0 0 0 0 0 0 0 0 0 0 0 0 0 0 0 0 0 0 0
0 0 1 5 1 0 0 0 0 0 0 0 1 0 2 19 6 2 0 1 0 0 0 0 0 0 0 0 0 0 0 0 0 0 0 0 0 0 0 0 0 0 0 0 0
0 0 0 0 0 0 0 0 0 0 1 0 0 0 0 1 1 0 0 0 0 0 0 0 0 0 0 0 0 0 0 0 0 0 0 0 0 0 0 0 0 0 0 0 0
0 0 0 0 0 0 0 0 0 0 0 0 0 0 0 0 0 0 0 0 0 0 0 0 0 0 0 0 0 0 0 0 0 0 0 0 0 0 0 0 0 0 0 0 0
0 0 0 0 0 0 0 1 1 0 0 0 0 0 0 0 0 0 0 0 0 0 0 0 0 0 0 0 0 0 0 0 0 0 0 0 0 0 0 0 0 0 0 0 0
0 0 0 0 0 0 0 0 0 0 0 0 0 0 0 0 0 0 0 0 0 0 0 0 0 0 0 0 0 0 0 0 0 0 0 0 0 0 0 0 0 0 0 0 0
0 0 0 0 0 0 0 1 0 0 0 0 0 0 0 0 0 0 0 0 0 0 0 0 0 0 0 0 0 0 0 0 0 0 0 0 0 0 0 0 0 0 0 0 0
0 0 0 0 0 0 0 1 0 0 0 0 0 0 0 0 0 0 0 0 0 0 0 0 0 0 0 0 0 0 0 0 0 0 0 0 0 0 0 0 0 0 0 0 0
0 0 0 0 0 0 0 2 0 0 0 0 0 0 0 0 0 0 0 0 0 0 0 0 0 0 0 0 0 0 0 0 0 0 0 0 0 0 0 0 0 0 0 0 0
0 0 0 0 0 0 0 0 0 0 2 0 0 0 0 0 0 0 0 0 0 0 0 0 0 0 0 0 0 0 0 0 0 0 0 0 0 0 0 0 0 0 0 0 0

GFSSW_con_mlcape_051.txt.gz
CAPE
30 25 38 36 37 41 39 54 42 36 35 0 0 0 0 3 5 21 1 0 0 0 34 0 28 30 0 0 0 0 0 0 0 0 0 0 0 0 0 0 0 0 0 0 0
32 43 42 44 38 32 38 33 45 38 32 4 0 0 0 5 0 4 0 0 0 0 0 4 14 22 0 0 0 0 0 0 0 0 0 0 0 0 0 0 0 0 0 2 148
30 33 35 31 38 45 40 28 22 49 43 39 25 0 0 15 4 0 0 0 0 0 0 19 0 21 0 0 0 0 0 0 0 0 0 0 0 0 0 0 0 0 0 0 250
29 40 36 48 48 41 31 39 35 32 35 56 39 13 8 6 5 0 7 0 1 0 24 49 3 12 2 0 0 0 0 0 0 0 0 0 0 0 0 0 0 0 0 0 57
38 45 44 50 54 39 47 43 63 93 145 119 100 43 31 10 5 0 0 0 8 0 6 18 1 15 4 0 0 0 0 0 0 0 0 0 0 0 0 0 0 0 0 0 0
51 49 46 66 69 36 41 70 124 172 195 190 123 50 25 0 1 0 0 0 3 2 61 12 0 0 4 0 0 0 0 0 0 0 0 0 0 0 0 0 0 0 0 0 0
49 73 72 73 74 76 60 91 111 175 212 225 140 39 14 0 0 0 0 6 28 5 94 64 1 2 0 0 0 0 0 0 0 0 0 0 0 0 0 0 0 0 0 0 0
51 86 124 88 67 50 76 104 149 125 223 209 154 40 7 6 9 1 0 15 52 143 218 139 10 5 0 0 0 0 0 0 0 0 0 0 0 0 0 0 0 0 0 0 0
25 26 41 72 23 78 59 160 209 222 273 234 65 9 10 75 0 4 0 1 140 150 138 102 70 39 8 0 0 0 0 0 0 0 0 0 0 0 0 0 0 0 0 0 0
31 51 26 11 10 42 125 154 79 34 131 176 46 15 5 14 9 1 0 1 70 75 62 69 39 1 15 0 0 0 0 0 0 0 0 0 0 0 0 0 0 0 0 0 0
89 81 72 25 3 63 47 0 0 0 8 0 0 0 17 36 32 6 0 44 80 34 5 41 2 0 0 1 0 0 0 0 0 0 0 0 0 0 0 0 0 0 0 0 0
30 57 82 81 31 59 2 0 0 0 0 0 0 0 0 0 34 7 0 30 47 35 1 26 4 1 0 4 0 0 0 0 0 0 0 0 0 0 0 0 0 0 0 0 0
29 45 81 77 41 0 0 0 0 2 1 0 16 2 0 8 2 0 0 1 30 3 2 3 6 12 0 10 2 0 0 0 0 0 0 0 0 0 0 0 0 0 0 0 0
12 11 32 17 0 1 0 13 0 7 0 0 4 6 9 13 2 0 6 13 13 7 0 3 0 10 5 2 3 0 0 0 0 0 0 0 0 0 0 0 0 0 0 0 0
7 6 13 8 16 3 0 13 11 0 0 0 0 10 5 7 0 0 0 7 13 0 0 0 8 7 3 0 1 0 0 0 0 0 0 0 0 0 0 0 0 0 0 0 0
3 0 1 0 1 0 0 0 0 0 0 0 2 1 3 3 12 9 9 0 0 5 0 0 0 0 0 0 1 0 0 0 0 0 0 0 0 0 0 0 0 0 0 0 0
0 0 0 0 3 3 0 0 0 0 0 2 0 0 4 8 8 6 2 0 2 1 0 1 0 0 0 0 0 0 0 0 0 0 0 0 0 0 0 0 0 0 0 0 0
0 0 0 0 0 0 0 0 0 0 0 1 0 5 2 2 12 8 1 0 0 0 0 0 0 0 0 0 0 0 0 0 0 0 0 0 0 0 0 0 0 0 0 0 0
0 0 0 0 0 0 0 0 0 0 2 0 2 1 1 5 1 0 0 0 0 0 0 0 0 0 0 0 0 0 0 0 0 0 0 0 0 0 0 0 0 0 0 0 0
0 0 0 0 0 0 0 0 0 1 0 1 0 0 0 1 0 0 0 0 0 0 0 0 0 0 0 0 0 0 0 0 0 0 0 0 0 0 0 0 0 0 0 0 0
0 0 0 0 0 0 0 0 0 0 0 0 0 0 0 0 0 0 0 0 0 0 0 0 0 0 0 0 0 0 0 0 0 0 0 0 0 0 0 0 0 0 0 0 0
0 0 0 0 0 0 0 0 0 0 0 0 0 0 0 0 0 0 0 0 0 0 0 0 0 0 0 0 0 0 0 0 0 0 0 0 0 0 0 0 0 0 0 0 0
0 0 0 0 0 0 0 1 0 0 0 0 0 0 0 0 0 0 0 0 0 0 0 0 0 0 0 0 0 0 0 0 0 0 0 0 0 0 0 0 0 0 0 0 0
0 0 0 0 0 0 0 1 0 0 0 0 0 0 0 0 0 0 0 0 0 0 0 0 0 0 0 0 0 0 0 0 0 0 0 0 0 0 0 0 0 0 0 0 0
0 0 1 0 0 0 0 0 0 0 0 0 0 0 0 0 0 0 0 0 0 0 0 0 0 0 0 0 0 0 0 0 0 0 0 0 0 0 0 0 0 0 0 0 0
0 1 0 0 0 0 0 0 0 0 0 0 0 0 0 0 0 0 0 0 0 0 0 0 0 0 0 0 0 0 0 0 0 0 0 0 0 0 0 0 0 0 0 0 0
0 0 1 0 0 0 0 0 1 0 0 0 0 0 0 0 0 0 0 0 0 0 0 0 0 0 0 0 0 0 0 0 0 0 0 0 0 0 0 0 0 0 0 0 0

GFSSW_con_mlcape_054.txt.gz
CAPE
22 31 27 26 40 35 54 45 30 42 51 29 1 0 0 0 0 2 1 4 0 0 42 0 4 67 0 0 0 0 0 0 0 0 0 0 0 0 0 0 0 0 0 0 0
28 29 25 26 33 56 44 46 53 38 45 44 22 2 0 0 0 0 0 0 0 0 78 0 26 73 0 0 0 0 0 0 0 0 0 0 0 0 0 0 0 0 0 91 272
25 24 27 45 54 54 54 54 52 49 51 47 34 29 1 1 0 0 7 37 19 0 7 15 54 66 9 0 0 0 0 0 0 0 0 0 0 0 0 0 0 0 0 45 211
40 34 38 37 55 66 68 62 63 57 35 42 29 39 8 3 0 44 9 299 91 6 22 15 41 49 17 0 0 0 0 0 0 0 0 0 0 0 0 0 0 0 0 0 256
42 41 49 42 75 89 69 73 73 89 74 70 66 59 36 8 0 11 0 0 195 36 19 15 21 39 17 8 0 0 0 0 0 0 0 0 0 0 0 0 0 0 0 0 0
43 43 66 75 109 126 103 110 133 117 137 157 163 60 20 1 0 21 0 0 4 40 15 35 11 29 26 16 1 0 0 0 0 0 0 0 0 0 0 0 0 0 0 0 0
35 26 34 84 108 127 70 131 173 175 162 195 201 112 13 0 12 18 1 0 40 18 3 81 24 37 17 15 3 0 0 0 0 0 0 0 0 0 0 0 0 0 0 0 0
38 50 54 50 71 83 92 100 136 147 190 231 186 89 2 0 0 0 13 1 30 2 27 167 122 42 25 8 0 0 0 0 0 0 0 0 0 0 0 0 0 0 0 0 0
53 64 91 72 26 6 23 117 211 235 210 263 132 26 0 132 3 0 32 27 102 40 155 159 92 17 15 4 3 0 0 0 0 0 0 0 0 0 0 0 0 0 0 0 0
25 30 53 63 17 2 96 152 162 82 205 179 13 11 0 46 20 41 43 10 260 56 133 142 60 33 18 7 0 0 0 0 0 0 0 0 0 0 0 0 0 0 0 0 0
16 27 47 90 36 1 98 0 0 3 32 0 1 18 29 0 108 32 0 21 251 52 30 34 5 0 3 0 0 0 0 0 0 0 0 0 0 0 0 0 0 0 0 0 0
9 20 70 55 16 16 8 0 0 0 0 0 0 0 0 0 17 17 0 213 26 6 9 10 7 8 21 11 0 0 0 0 0 0 0 0 0 0 0 0 0 0 0 0 0
9 14 79 25 4 0 0 3 4 6 1 0 5 0 0 0 21 1 5 23 23 11 3 4 4 22 9 7 2 0 0 0 0 0 0 0 0 0 0 0 0 0 0 0 0
6 21 14 1 0 0 1 8 4 1 3 2 3 0 0 3 51 16 0 5 11 1 0 0 8 8 12 9 3 3 0 0 0 0 0 0 0 0 0 0 0 0 0 0 0
3 0 2 0 2 0 0 16 6 0 0 0 1 5 3 3 0 1 0 28 2 2 3 1 0 5 8 6 8 10 0 0 0 0 0 0 0 0 0 0 0 0 0 0 0
6 0 0 0 5 4 3 2 0 0 0 1 2 1 3 3 6 3 31 0 9 2 0 1 13 0 0 0 2 0 0 0 0 0 0 0 0 0 0 0 0 0 0 0 0
4 0 0 0 0 0 6 2 0 0 0 0 0 0 2 14 11 13 3 2 1 4 2 1 2 1 1 0 0 0 0 1 0 0 0 0 0 0 0 0 0 0 0 0 0
0 0 0 0 0 0 1 0 0 0 1 3 0 5 2 11 19 7 0 0 0 0 0 0 0 0 0 0 0 1 0 0 0 0 0 0 0 0 0 0 0 0 0 0 0
0 0 0 0 0 0 0 0 0 0 0 0 3 1 0 2 7 0 1 0 0 0 0 0 0 0 0 0 0 0 0 0 0 0 0 0 0 0 0 0 0 0 0 0 0
0 0 0 0 0 0 0 0 0 0 1 1 0 1 1 2 2 0 0 0 0 0 0 0 0 0 0 0 0 0 0 0 0 0 0 0 0 0 0 0 0 0 0 0 0
0 0 0 0 0 0 0 0 0 0 0 0 0 0 2 1 0 0 0 0 0 0 0 0 0 0 0 0 0 0 0 0 0 0 0 0 0 0 0 0 0 0 0 0 0
0 0 0 0 0 0 0 0 0 0 0 0 0 0 0 0 0 0 0 0 0 0 0 0 0 1 0 0 0 0 0 0 0 0 0 0 0 0 0 0 0 0 0 0 0
0 0 0 0 0 0 1 0 0 0 0 0 0 0 0 0 0 0 0 0 0 0 0 0 0 0 1 0 0 0 0 0 0 0 0 0 0 0 0 0 0 0 0 0 0
0 0 0 0 0 0 0 0 0 0 0 0 0 0 0 0 0 0 0 0 0 0 0 0 0 0 0 0 0 0 0 0 0 0 0 0 0 0 0 0 0 0 0 0 0
0 0 0 0 0 0 0 0 0 0 0 0 0 0 0 0 0 0 0 0 0 0 0 0 0 0 0 0 0 0 0 0 0 0 0 0 0 0 0 0 0 0 0 0 0
1 1 0 0 0 0 0 0 0 0 0 0 0 0 0 0 0 0 0 0 0 0 0 0 0 0 0 0 0 0 0 0 0 0 0 0 0 0 0 0 0 0 0 0 0
0 0 1 1 0 0 0 0 0 0 0 0 0 0 0 0 0 0 0 0 0 0 0 0 0 0 0 0 0 0 0 0 0 0 0 0 0 0 0 0 0 0 0 0 0

GFSSW_con_mlcape_057.txt.gz
CAPE
31 25 35 25 24 36 42 43 53 37 44 50 49 33 0 0 0 0 0 20 1 14 40 0 0 107 7 0 0 0 0 8 1 0 0 2 0 0 0 0 0 0 0 0 13
26 29 30 24 23 36 36 27 40 49 56 61 55 32 31 0 0 0 0 13 30 0 22 0 2 108 10 0 0 0 0 0 0 0 0 0 0 0 0 0 0 0 0 30 65
22 30 31 27 21 22 26 47 69 76 80 75 79 56 23 0 0 0 0 0 140 38 40 5 13 171 26 1 0 0 0 0 0 0 0 0 0 0 0 0 0 0 0 0 131
12 23 26 26 27 23 33 50 62 126 120 102 94 64 26 9 0 7 0 5 199 124 24 19 9 67 52 1 0 0 0 0 0 0 0 0 0 0 0 0 0 0 0 0 72
28 25 27 25 35 50 66 93 124 167 204 160 114 83 6 18 0 6 55 177 362 119 3 29 4 9 18 12 0 0 0 0 0 0 0 0 0 0 0 0 0 0 0 0 0
29 27 30 39 47 54 109 124 160 181 168 97 106 31 3 2 0 0 4 9 290 129 1 27 2 6 38 34 3 0 1 0 0 0 0 0 0 0 0 0 0 0 0 0 0
34 44 57 79 82 52 99 123 147 171 185 174 108 46 19 0 0 153 1 1 5 170 6 11 17 38 19 15 33 5 1 2 0 0 0 0 0 0 0 0 0 0 0 0 0
44 44 37 95 132 45 37 30 152 167 240 218 193 62 15 0 0 0 3 4 0 166 15 15 90 61 42 27 29 15 2 1 0 0 0 0 0 0 0 0 0 0 0 0 0
31 14 45 107 75 44 2 31 144 252 262 239 135 53 2 48 0 0 14 34 25 209 15 55 197 85 86 28 31 27 0 0 0 0 0 0 0 0 0 0 0 0 0 0 0
17 31 89 93 41 0 0 117 161 94 187 155 82 19 0 0 39 4 20 36 77 113 32 60 57 41 26 32 9 0 0 0 0 0 0 0 0 0 0 0 0 0 0 0 0
18 15 63 1 12 0 48 61 54 92 90 26 12 4 3 0 24 0 142 53 186 21 14 74 44 9 1 0 0 0 0 0 0 0 0 0 0 0 0 0 0 0 0 0 0
23 17 23 8 0 0 34 26 14 11 8 0 0 0 0 4 1 66 45 22 174 10 10 63 0 9 16 13 8 0 0 0 0 0 0 0 0 0 0 0 0 0 0 0 0
27 13 0 12 0 10 8 1 0 4 10 5 15 6 0 3 3 37 50 20 11 2 17 5 1 0 7 12 11 2 0 0 0 0 0 0 0 0 0 0 0 0 0 0 0
14 11 0 0 2 7 3 0 7 5 7 0 5 7 1 0 0 0 9 2 1 8 22 2 15 2 8 15 6 10 0 0 0 0 0 0 0 0 0 0 0 0 0 0 0
2 11 0 0 3 1 2 3 15 4 0 0 0 0 0 13 2 3 0 5 0 0 0 0 1 8 5 8 11 21 0 0 0 0 0 0 0 0 0 0 0 0 0 0 0
2 1 0 6 3 0 0 3 1 1 0 0 3 1 5 4 9 14 16 0 0 0 0 1 0 0 4 0 26 5 0 0 0 0 0 0 0 0 0 0 0 0 0 0 0
2 1 0 0 5 5 8 9 0 0 0 0 0 9 8 12 12 3 4 2 0 0 0 0 0 2 0 0 0 16 14 2 2 0 0 0 0 0 0 0 0 0 0 0 0
2 0 0 0 4 10 1 1 0 1 0 1 1 2 1 11 10 0 5 2 13 0 0 0 0 0 4 0 0 5 24 20 1 0 0 0 0 0 0 0 0 0 0 0 0
0 0 0 1 1 4 1 0 0 0 1 0 7 1 2 6 2 1 10 6 2 1 0 0 0 3 2 3 0 2 0 0 0 0 0 0 0 0 0 0 0 0 0 0 0
0 0 0 0 0 0 1 0 1 0 1 0 0 0 0 3 0 1 5 0 0 0 0 0 0 0 0 3 0 1 0 0 0 0 0 0 0 0 0 0 0 0 0 0 0
0 0 0 0 0 2 0 0 1 2 1 0 0 3 1 3 3 0 0 0 0 0 0 0 0 0 0 0 1 0 0 0 0 0 0 0 0 0 0 0 0 0 0 0 0
1 0 0 0 2 1 3 0 0 3 0 0 2 2 7 5 4 1 1 2 0 0 0 0 0 1 0 0 0 0 1 0 0 0 0 0 0 0 0 0 0 0 0 0 0
0 0 0 0 0 0 0 0 0 0 0 0 0 0 0 0 0 0 0 0 0 0 0 0 0 0 0 0 0 0 0 0 0 0 0 0 0 0 0 0 0 0 0 0 0
0 0 0 2 1 7 0 0 0 0 0 0 0 0 0 0 0 0 0 0 0 0 0 0 0 0 0 0 0 0 0 0 0 0 0 0 0 0 0 0 0 0 0 0 0
0 0 1 1 5 2 0 0 0 0 0 0 0 0 0 0 0 0 0 0 0 0 0 0 0 0 0 0 0 0 0 0 0 0 0 0 0 0 0 0 0 0 0 0 0
0 1 1 1 0 0 3 4 0 0 0 0 0 0 0 0 0 0 0 0 0 0 0 0 0 0 0 0 0 0 0 0 0 0 0 0 0 0 0 0 0 0 0 0 0
0 5 1 0 0 1 2 11 8 0 0 0 0 0 0 0 0 0 0 0 0 0 0 0 0 0 0 0 0 0 0 0 0 0 0 0 0 0 0 0 0 0 0 0 0

GFSSW_con_mlcape_060.txt.gz
CAPE
27 26 30 33 35 25 29 31 35 37 42 37 35 44 29 10 0 0 0 3 20 45 2 0 0 13 217 76 1 0 0 5 0 3 0 2 0 0 0 0 0 0 2 61 890
23 20 21 26 34 31 29 27 27 31 34 38 49 50 45 24 0 0 0 0 78 49 5 0 0 48 158 17 1 0 0 0 0 0 0 1 0 0 0 0 0 0 0 23 495
14 21 28 33 41 37 39 34 29 26 35 51 89 95 76 28 15 0 0 0 14 115 0 9 0 173 146 16 0 0 0 0 0 2 0 0 0 0 0 0 0 0 0 45 197
33 31 31 33 38 51 52 53 48 40 62 95 125 148 119 41 1 21 2 0 17 209 25 25 0 21 79 1 0 0 0 0 1 0 0 0 0 0 0 0 0 0 0 0 79
35 37 38 42 97 98 95 96 113 102 109 146 198 188 84 22 0 0 53 4 116 256 10 34 0 12 7 2 0 0 0 0 0 0 0 0 0 0 0 0 0 0 0 0 0
26 39 37 79 136 145 151 111 138 160 137 126 37 63 12 0 0 6 4 58 73 118 44 25 0 15 12 61 1 0 0 0 0 0 0 0 0 0 0 0 0 0 0 0 0
27 30 64 69 98 154 168 96 141 189 196 175 189 32 5 0 18 262 25 0 8 93 84 7 4 9 22 29 39 5 4 0 1 0 0 0 0 0 0 0 0 0 0 0 0
35 24 29 49 88 83 56 49 58 178 187 268 164 84 2 0 0 0 0 0 0 0 77 1 15 7 77 64 38 36 5 4 0 0 0 0 0 0 0 0 0 0 0 0 0
31 19 17 42 76 8 12 0 109 188 277 291 167 50 3 3 0 0 0 0 3 0 112 101 51 34 33 21 20 31 0 2 0 0 0 0 0 0 0 0 0 0 0 0 0
19 18 21 19 3 0 0 31 169 157 228 166 92 29 3 11 20 7 0 0 2 82 96 72 40 12 27 37 0 0 0 0 0 0 0 0 0 0 0 0 0 0 0 0 0
7 17 2 1 0 0 66 124 110 143 114 71 21 4 4 0 75 32 26 0 2 133 5 12 24 0 0 0 0 0 0 0 0 0 0 0 0 0 0 0 0 0 0 0 0
6 16 4 0 0 1 19 6 9 4 0 3 0 0 5 0 0 19 22 5 1 44 22 16 1 0 0 0 1 5 1 0 0 0 0 0 0 0 0 0 0 0 0 0 0
7 5 7 0 0 15 4 1 0 9 1 11 18 7 1 0 0 1 16 15 5 3 0 3 2 3 7 6 16 0 0 0 0 0 0 0 0 0 0 0 0 0 0 0 0
0 2 6 0 1 1 2 0 3 6 0 1 5 4 6 0 0 41 46 35 9 1 27 16 1 0 10 2 9 10 0 3 1 0 0 0 0 0 0 0 0 0 0 0 0
0 1 2 0 4 1 0 0 6 2 0 0 0 0 5 0 0 3 9 1 3 11 0 0 1 1 0 3 25 10 4 1 0 0 0 0 0 0 0 0 0 0 0 0 0
2 1 0 1 1 0 8 7 1 0 0 0 0 0 2 1 7 2 9 0 2 0 0 0 0 1 0 1 2 7 20 0 0 0 0 0 0 0 0 0 0 0 0 0 0
3 2 0 0 4 3 1 1 0 0 0 0 0 3 2 2 1 0 0 3 0 0 0 0 0 1 0 4 3 5 0 1 0 0 0 0 0 0 0 0 0 0 0 0 0
0 0 0 0 1 1 0 1 0 0 0 0 0 0 0 2 2 4 9 3 6 0 0 0 0 0 0 1 0 11 0 0 0 0 0 0 0 0 0 0 0 0 0 0 0
0 0 0 0 0 0 1 0 0 0 0 0 7 3 2 0 0 3 0 0 2 0 0 0 0 2 4 0 0 1 0 0 0 0 0 0 0 0 0 0 0 0 0 0 0
0 0 0 0 0 0 0 0 1 0 0 0 5 5 0 0 0 2 0 0 0 0 0 0 0 1 3 0 0 0 0 0 0 0 0 0 0 0 0 0 0 0 0 0 0
0 0 0 0 0 0 0 0 0 1 1 0 2 1 0 0 6 1 1 0 0 0 0 0 0 0 2 0 0 0 0 0 0 0 0 0 0 0 0 0 0 0 0 0 0
0 0 0 0 0 2 0 0 0 1 0 0 0 0 8 0 1 0 0 0 0 0 0 0 0 0 0 0 0 0 0 0 0 0 0 0 0 0 0 0 0 0 0 0 0
0 0 0 0 0 2 0 0 0 0 0 0 0 0 0 2 0 0 0 0 0 0 0 0 0 0 0 0 0 0 0 0 0 0 0 0 0 0 0 0 0 0 0 0 0
0 0 0 2 0 0 1 0 0 0 0 0 0 0 0 0 0 0 0 0 0 0 0 0 0 0 0 0 0 0 0 0 0 0 0 0 0 0 0 0 0 0 0 0 0
0 0 0 0 0 0 0 1 1 0 0 0 0 0 0 0 0 0 0 0 0 0 0 0 0 0 0 0 0 0 0 0 0 0 0 0 0 0 0 0 0 0 0 0 0
0 0 0 1 0 0 0 3 0 3 0 0 0 0 0 0 0 0 0 0 0 0 0 0 0 0 0 0 0 0 0 0 0 0 0 0 0 0 0 0 0 0 0 0 0
0 0 1 0 0 1 2 7 4 1 0 0 0 0 0 0 0 0 0 0 0 0 0 0 0 0 0 0 0 0 0 0 0 0 0 0 0 0 0 0 0 0 0 0 0

GFSSW_con_mlcape_063.txt.gz
CAPE
10 20 10 22 49 60 67 61 49 44 29 6 27 39 46 45 9 0 0 0 26 81 0 0 0 35 50 150 17 19 3 5 0 0 0 0 0 0 0 0 0 2 52 703 802
28 28 30 38 47 62 74 59 55 35 23 32 34 41 47 46 10 0 0 0 9 81 4 0 0 39 155 144 22 28 8 1 0 0 0 0 0 0 0 0 0 0 476 693 442
27 32 41 41 77 119 117 96 79 44 28 33 53 62 53 51 1 0 0 0 1 53 57 0 0 62 143 95 32 1 0 0 0 0 0 0 0 0 0 0 0 0 0 97 234
24 26 37 51 72 142 153 153 135 106 44 57 65 85 56 20 0 5 8 18 0 2 23 21 0 74 8 29 34 0 0 0 15 0 0 0 0 0 0 0 0 0 11 115 127
13 26 16 33 43 69 114 123 148 134 107 85 55 23 1 0 0 1 0 3 0 46 17 29 0 41 0 28 16 0 0 0 0 0 0 0 0 0 0 0 0 0 0 23 98
23 17 21 31 40 77 135 102 114 122 122 33 105 41 0 0 0 1 2 1 18 50 39 52 0 0 36 55 12 0 0 0 4 0 0 0 0 0 0 0 0 0 0 0 0
25 6 11 17 53 91 118 79 97 122 114 193 168 24 12 0 0 6 15 16 45 26 75 45 9 1 4 38 20 2 4 16 0 0 0 0 0 0 0 0 0 0 0 0 0
17 8 13 12 9 12 21 20 31 98 165 203 205 114 0 0 0 0 0 0 13 16 41 77 35 3 6 24 32 43 2 21 0 0 0 0 0 0 0 0 0 0 0 0 0
17 19 6 11 0 1 1 0 31 138 214 301 153 20 0 1 0 0 0 0 14 0 8 83 52 11 0 15 44 53 4 0 0 0 0 0 0 0 0 0 0 0 0 0 0
10 9 3 4 0 0 0 28 67 97 142 145 76 4 0 2 0 0 0 1 4 14 31 78 32 6 13 5 0 0 0 0 0 0 0 0 0 0 0 0 0 0 0 0 0
8 4 12 0 0 0 0 0 0 0 32 0 0 0 2 0 9 11 2 8 15 2 74 44 15 0 0 0 0 0 0 0 0 0 0 0 0 0 0 0 0 0 0 0 0
0 4 7 0 0 2 0 0 1 0 0 0 5 0 0 0 0 9 1 0 1 0 5 27 1 0 0 0 0 0 0 0 0 0 0 0 0 0 0 0 0 0 0 0 0
2 4 3 0 0 0 0 0 0 1 1 0 6 12 0 0 0 7 0 0 0 0 9 2 2 0 0 0 0 0 0 0 0 0 0 0 0 0 0 0 0 0 0 0 0
8 3 3 1 0 0 0 0 0 1 1 0 2 1 5 0 6 9 0 0 0 1 1 0 1 0 9 0 0 0 0 0 0 0 0 0 0 0 0 0 0 0 0 0 0
6 0 1 3 0 0 0 0 0 0 0 0 0 0 2 0 0 1 5 7 0 0 0 0 1 0 11 12 5 2 0 6 0 0 0 0 0 0 0 0 0 0 0 0 0
1 0 2 0 0 0 6 0 0 0 0 0 0 0 0 3 6 13 5 19 0 1 0 1 0 9 0 0 3 7 7 7 0 0 0 0 0 0 0 0 0 0 0 0 0
0 3 1 0 0 0 0 0 0 0 0 0 0 2 0 2 1 1 4 0 0 0 0 1 0 0 0 0 4 2 1 2 5 2 0 0 0 0 0 0 0 0 0 0 0
0 0 0 0 0 0 0 0 0 0 0 0 0 0 0 2 0 4 6 3 0 0 0 0 0 0 0 0 1 6 0 0 0 0 0 0 0 0 0 0 0 0 0 0 0
0 0 0 0 0 0 0 0 0 0 0 0 0 0 0 0 1 1 1 0 0 0 0 0 0 0 0 1 0 1 0 0 0 0 0 0 0 0 0 0 0 0 0 0 0
0 0 0 0 0 0 0 0 0 0 0 0 0 0 0 0 0 4 0 0 0 0 0 0 0 1 1 1 0 0 0 0 0 0 0 0 0 0 0 0 0 0 0 0 0
0 0 0 0 0 0 0 0 0 0 0 0 0 0 0 0 0 0 0 0 0 0 0 0 0 1 2 0 0 0 0 0 0 0 0 0 0 0 0 0 0 0 0 0 0
0 0 0 0 0 0 0 0 0 0 0 0 0 1 0 0 0 0 0 0 0 0 0 0 0 0 0 0 0 0 0 0 0 0 0 0 0 0 0 0 0 0 0 0 0
0 0 0 0 0 0 0 0 0 0 0 0 0 0 0 0 0 0 0 0 0 0 0 0 0 0 0 0 2 0 0 0 0 0 0 0 0 0 0 0 0 0 0 0 0
0 0 0 0 0 0 1 0 4 0 0 0 0 0 0 0 0 0 0 0 0 0 0 0 0 0 0 0 0 0 0 0 0 0 0 0 0 0 0 0 0 0 0 0 0
0 0 0 0 0 0 0 0 0 2 0 0 0 0 0 0 0 0 0 0 0 0 0 0 0 0 0 0 0 0 0 0 0 0 0 0 0 0 0 0 0 0 0 0 0
0 0 0 0 0 0 1 2 5 5 0 0 0 0 0 0 0 0 0 0 0 0 0 0 0 0 0 0 0 0 0 0 0 0 0 0 0 0 0 0 0 0 0 0 0
0 0 0 0 0 0 0 0 2 6 2 0 0 0 0 0 0 0 0 0 0 0 0 0 0 0 0 0 0 0 0 0 0 0 0 0 0 0 0 0 0 0 0 0 0

GFSSW_con_mlcape_066.txt.gz
CAPE
11 24 26 30 36 67 108 125 122 91 49 16 6 9 33 40 21 6 0 0 4 21 152 0 0 0 68 24 38 38 4 0 0 0 0 0 0 0 0 0 0 3 97 592 721
18 13 26 35 48 89 148 108 146 120 73 20 7 7 30 36 8 0 0 0 1 46 37 0 0 0 162 92 29 7 27 1 0 0 0 0 0 0 0 0 2 55 734 891 799
22 20 30 35 45 54 111 130 97 132 91 51 36 22 30 32 0 0 0 11 2 10 52 0 0 0 181 151 12 1 0 0 0 0 0 0 0 0 0 0 0 2 427 623 662
18 13 18 21 16 37 64 106 115 147 126 76 81 81 29 5 0 16 0 30 27 4 13 28 0 0 147 20 4 0 0 0 0 0 1 0 0 0 0 0 0 1 91 93 48
16 21 15 12 21 50 68 126 48 90 138 54 66 56 1 0 0 0 3 0 0 4 3 33 0 5 4 18 34 2 0 0 13 19 0 0 0 0 0 0 0 29 212 126 95
11 25 14 12 8 26 76 75 19 46 103 6 36 32 0 0 0 0 0 7 0 0 0 20 2 0 34 14 39 11 20 19 1 0 7 5 0 0 0 0 0 10 28 30 95
8 19 9 7 4 6 29 43 60 84 90 176 201 10 0 0 0 0 0 0 27 0 6 21 18 4 0 29 54 21 38 38 0 0 0 0 0 0 0 0 0 0 0 0 0
8 20 17 7 5 0 1 0 1 50 109 165 223 105 0 0 0 0 0 0 7 60 33 25 53 3 15 26 40 37 41 22 0 2 0 0 0 0 0 0 0 0 0 0 0
9 15 11 2 5 0 0 0 0 27 97 209 106 11 0 0 19 0 1 0 13 17 34 72 24 0 6 20 12 33 3 0 0 0 0 0 0 0 0 0 0 0 0 0 0
2 4 10 6 0 1 34 3 9 17 61 97 55 3 0 0 0 0 0 4 5 10 31 25 37 1 12 5 0 0 0 0 0 0 0 0 0 0 0 0 0 0 0 0 0
8 3 2 5 0 1 0 0 0 0 0 0 0 0 0 0 0 42 4 0 0 1 3 24 9 0 0 0 0 0 0 0 0 0 0 0 0 0 0 0 0 0 0 0 0
7 2 3 1 1 0 0 0 0 0 0 0 0 3 0 0 0 10 1 0 0 1 5 5 0 0 0 1 0 0 0 0 0 0 0 0 0 0 0 0 0 0 0 0 0
7 1 2 1 0 0 0 0 0 0 0 0 0 7 0 0 2 8 0 4 0 0 0 1 0 0 0 1 0 0 0 0 0 0 0 0 0 0 0 0 0 0 0 0 0
5 5 2 2 0 0 0 0 0 0 0 0 2 1 1 0 5 10 0 0 0 0 0 13 0 0 0 0 0 0 0 0 0 0 0 0 0 0 0 0 0 0 0 0 0
2 4 3 4 0 1 0 0 0 0 0 1 1 0 2 1 5 0 0 0 0 0 1 0 0 0 0 0 0 0 0 0 0 0 0 0 0 0 0 0 0 0 0 0 0
0 3 0 0 0 1 1 0 1 0 0 0 0 2 0 1 0 1 22 2 6 5 1 0 0 0 7 0 10 4 0 0 0 0 0 0 0 0 0 0 0 0 0 0 0
0 0 1 0 0 0 0 0 0 0 0 5 1 2 2 0 2 4 0 0 4 0 0 1 1 0 1 15 23 7 0 0 5 4 0 0 0 0 0 0 0 0 0 0 0
0 0 0 0 0 0 0 0 0 0 0 1 1 3 0 1 2 4 2 0 0 0 0 1 2 0 0 0 9 16 0 0 0 0 0 0 0 0 0 0 0 0 0 0 0
0 0 0 0 0 0 0 0 0 0 0 0 0 0 0 2 2 5 1 0 0 0 0 0 0 1 0 0 0 5 2 0 0 0 0 0 0 0 0 0 0 0 0 0 0
0 0 0 0 0 0 0 0 0 0 0 0 0 0 0 0 1 0 0 0 0 0 0 0 0 1 0 0 0 0 0 0 0 0 0 0 0 0 0 0 0 0 0 0 0
0 0 0 0 0 0 0 0 0 0 0 0 0 0 0 0 1 0 0 0 0 0 0 0 0 1 2 1 0 1 0 0 0 0 0 0 0 0 0 0 0 0 0 0 0
0 0 0 0 0 0 0 0 0 0 0 0 0 0 0 0 0 0 0 0 0 0 0 0 0 1 1 1 0 0 0 0 0 0 0 0 0 0 0 0 0 0 0 0 0
0 0 0 0 0 0 0 0 0 0 0 0 0 0 0 0 0 0 0 0 0 0 0 0 0 0 0 0 0 0 0 0 0 0 0 0 0 0 0 0 0 0 0 0 0
0 0 0 0 0 0 0 0 0 0 0 0 0 0 0 0 0 0 0 0 0 0 0 0 0 0 0 0 0 0 0 0 0 0 0 0 0 0 0 0 0 0 0 0 0
0 0 0 0 0 0 0 0 1 0 0 0 0 0 0 0 0 0 0 0 0 0 0 0 0 0 0 0 0 0 0 0 0 0 0 0 0 0 0 0 0 0 0 0 0
0 0 0 0 0 0 0 1 10 5 0 0 0 0 0 0 0 0 0 0 0 0 0 0 0 0 0 0 0 0 0 0 0 0 0 0 0 0 0 0 0 0 0 0 0
0 0 0 0 0 0 0 0 0 5 4 0 0 0 0 0 0 0 0 0 0 0 0 0 0 0 0 0 0 0 0 0 0 0 0 0 0 0 0 0 0 0 0 0 0

GFSSW_con_mlcape_069.txt.gz
CAPE
28 31 30 25 35 31 33 85 117 56 82 68 12 10 16 38 50 8 5 0 0 8 40 3 0 0 105 17 76 30 14 0 0 0 0 0 0 0 0 0 0 10 226 551 546
19 21 27 10 19 29 15 20 99 48 132 123 22 11 27 39 2 0 0 7 2 13 43 7 0 0 118 27 57 23 26 0 0 0 0 0 0 0 0 0 46 125 664 761 636
30 32 14 17 24 29 22 22 46 24 51 94 55 33 30 19 0 0 0 20 33 13 0 21 0 0 113 86 19 10 5 0 0 0 0 0 0 0 0 0 33 49 553 860 771
33 36 8 9 18 21 13 8 31 15 27 58 69 75 39 0 0 3 2 33 95 40 0 25 6 0 24 0 17 0 0 0 0 0 0 0 0 0 0 0 0 171 733 737 789
29 21 7 5 13 19 12 21 20 4 30 8 16 31 1 0 0 0 0 0 0 0 0 9 2 0 5 60 53 0 1 0 12 0 0 0 0 0 0 0 0 44 442 506 708
22 21 28 10 9 10 19 9 24 82 120 11 27 26 0 0 0 0 0 0 0 4 0 3 2 0 3 48 56 10 0 1 6 0 0 0 0 0 0 0 0 69 151 108 270
22 14 17 8 7 4 1 7 30 72 129 196 166 0 0 0 0 0 0 0 0 8 5 5 21 0 10 16 63 16 5 1 0 0 8 2 0 0 0 0 0 27 45 88 116
8 14 11 22 2 4 2 0 0 9 83 211 253 82 0 0 0 0 0 0 0 21 10 22 37 4 11 9 50 33 12 0 0 24 3 15 0 0 0 0 0 0 0 0 0
5 2 10 11 14 0 10 38 0 10 50 167 62 4 0 0 3 0 2 0 0 28 20 69 65 0 7 19 0 25 0 0 0 10 6 0 0 0 0 0 0 0 0 0 0
6 2 6 5 10 4 10 0 0 3 31 98 48 1 0 0 0 0 0 0 14 2 20 37 52 0 0 12 0 0 0 0 0 0 1 0 0 0 0 0 0 0 0 0 0
4 4 3 3 8 7 0 0 0 0 0 0 0 0 0 0 0 9 17 17 0 0 4 30 1 0 0 0 0 0 0 0 0 0 0 0 0 0 0 0 0 0 0 0 0
6 6 1 3 3 4 0 0 0 0 0 0 0 0 0 0 0 8 25 0 0 0 6 33 0 0 0 2 0 0 0 0 0 0 1 4 7 5 0 0 0 0 0 0 0
8 5 2 3 1 0 0 0 0 0 0 0 0 0 0 0 0 0 5 0 0 0 0 0 1 0 0 6 3 0 0 0 0 0 0 5 11 16 0 0 0 0 0 0 0
7 6 1 1 0 0 0 0 0 0 0 0 5 0 1 0 0 21 2 10 0 0 1 2 0 0 0 11 0 0 0 0 0 0 0 0 0 0 0 0 0 0 0 0 0
7 4 2 0 0 0 0 0 0 0 0 1 1 0 0 3 6 2 0 0 0 0 0 0 0 0 0 5 0 0 0 0 0 0 0 0 0 0 0 0 0 0 0 0 0
2 3 1 0 0 1 0 0 0 0 0 0 1 3 1 7 0 0 1 1 5 2 2 2 0 0 0 0 3 0 0 0 0 0 0 0 0 0 0 0 0 0 0 0 0
1 1 0 0 0 2 2 0 0 0 0 0 0 0 0 1 3 5 3 0 0 0 0 4 2 0 0 3 1 0 0 2 2 0 0 0 0 0 0 0 0 0 0 0 0
0 0 0 0 0 0 0 0 0 0 0 0 1 1 1 2 1 1 0 0 1 1 0 0 2 1 0 0 0 1 0 0 0 0 0 0 0 0 0 0 0 0 0 0 0
0 0 0 0 0 0 0 0 0 0 0 0 0 0 1 2 2 3 1 0 0 0 0 0 0 0 0 0 0 1 0 0 0 0 0 0 0 0 0 0 0 0 0 0 0
0 0 0 0 0 0 0 0 0 0 0 0 0 0 0 0 0 0 0 3 1 0 0 0 0 0 1 0 0 2 0 0 0 0 0 0 0 0 0 0 0 0 0 0 0
0 0 0 0 0 0 0 0 0 0 0 0 0 0 0 0 0 0 0 0 0 0 0 0 0 0 2 2 1 0 0 0 0 0 0 0 0 0 0 0 0 0 0 0 0
0 0 0 0 0 0 0 0 0 0 0 0 0 0 0 0 0 0 0 0 0 0 0 0 0 0 1 0 1 3 3 0 0 0 0 0 0 0 0 0 0 0 0 0 0
0 0 0 0 0 0 0 0 0 0 0 0 0 0 0 0 0 0 0 0 0 0 0 0 0 0 0 0 0 3 5 0 0 0 0 0 0 0 0 0 0 0 0 0 0
0 0 0 0 0 0 0 0 0 0 0 0 0 0 0 0 0 0 0 0 0 0 0 0 0 0 0 0 0 1 2 0 0 0 0 0 0 0 0 0 0 0 0 0 0
0 0 0 0 0 0 0 0 0 0 0 0 0 0 0 0 0 0 0 0 0 0 0 0 0 0 0 0 0 0 0 0 0 0 0 0 0 0 0 0 0 0 0 0 0
0 0 0 0 0 0 0 0 0 0 0 0 0 0 0 0 0 0 0 0 0 0 0 0 0 0 0 0 0 0 0 0 0 0 0 0 0 0 0 0 0 0 0 0 0
0 0 0 0 0 0 0 0 0 0 7 0 0 0 0 0 0 0 0 0 0 0 0 0 0 0 0 0 0 0 0 0 0 0 0 0 0 0 0 0 0 0 0 0 0

GFSSW_con_mlcape_072.txt.gz
CAPE
34 38 29 18 18 30 22 34 32 58 75 67 62 46 68 68 57 14 3 0 0 1 36 5 0 0 112 27 66 41 15 0 0 0 0 0 0 0 0 0 0 85 199 355 753
20 21 25 23 17 18 26 30 29 45 76 41 64 39 45 58 0 0 3 38 50 14 15 13 0 0 37 20 43 83 0 0 0 0 0 0 0 0 0 0 21 161 584 547 911
16 30 24 21 15 17 14 13 19 25 14 28 67 45 57 18 0 0 8 13 45 50 7 11 0 0 1 27 20 36 0 0 0 5 4 0 0 0 0 0 0 0 232 667 998
15 14 28 6 5 17 7 8 6 0 1 5 64 75 54 0 0 1 37 34 49 77 5 4 16 0 9 2 4 5 1 1 4 26 2 0 0 0 0 0 0 0 0 376 658
13 17 29 26 9 5 14 7 4 0 5 4 0 22 2 0 0 0 0 46 18 10 0 3 13 0 8 26 20 0 1 14 11 5 0 0 0 0 0 0 0 0 21 260 441
10 18 20 32 11 7 3 8 3 0 5 10 38 20 0 0 0 0 0 0 0 0 0 0 4 0 23 22 18 7 3 0 11 5 0 0 0 0 0 0 0 0 16 170 279
8 9 11 20 25 15 12 0 7 4 39 63 42 0 0 0 0 0 1 0 0 0 0 0 26 3 14 28 45 32 33 24 8 8 1 0 0 0 0 0 0 0 0 157 208
6 4 9 14 19 17 20 29 0 0 16 72 142 11 0 0 0 0 0 0 0 2 0 41 51 5 20 12 33 36 16 13 0 1 13 0 0 0 0 0 0 0 0 0 2
7 12 4 12 12 23 19 8 0 0 10 69 0 0 0 0 9 0 0 0 0 7 56 85 52 10 30 17 0 24 1 0 1 0 0 0 0 0 0 0 0 0 0 0 0
11 4 2 9 9 17 21 10 0 0 9 21 0 0 0 0 0 0 0 0 0 3 14 49 23 2 12 6 0 0 0 0 0 0 0 0 0 0 0 0 0 0 0 0 0
14 7 4 6 6 11 3 0 0 0 0 0 0 0 0 0 0 20 0 3 0 1 0 1 3 0 0 0 0 0 0 0 0 0 0 0 0 0 0 0 0 0 0 0 0
8 7 2 8 2 11 0 0 0 0 0 0 0 0 0 0 0 10 13 0 2 1 0 11 0 0 0 1 0 0 0 0 0 0 0 0 0 0 0 0 0 0 0 0 0
6 2 4 8 3 0 0 0 0 0 0 0 0 0 0 0 0 8 18 3 0 0 1 2 0 0 0 12 1 0 0 0 0 0 2 7 7 0 0 0 0 0 0 0 0
4 8 3 3 0 0 0 0 0 0 0 0 0 0 1 3 0 15 15 4 0 0 0 17 0 0 0 13 8 0 0 0 0 0 0 4 0 0 0 0 0 0 0 0 0
6 2 6 1 0 0 0 0 0 0 0 1 0 2 1 14 1 0 2 0 0 0 1 4 1 4 7 20 19 0 0 0 0 3 0 0 1 0 0 0 0 0 0 0 0
4 1 2 0 0 0 0 1 0 0 0 0 3 1 0 4 1 0 3 17 0 0 1 1 1 10 9 12 2 0 0 0 0 0 0 0 0 0 0 0 0 0 0 0 0
4 0 1 0 0 2 1 0 0 0 0 0 0 1 0 0 0 0 0 0 0 0 0 2 2 0 0 10 6 0 0 0 0 0 0 0 0 0 0 0 0 0 0 0 0
0 0 0 0 0 0 0 0 0 0 0 0 2 1 0 0 3 1 1 0 1 0 0 0 0 2 0 0 2 12 0 0 0 0 0 0 0 0 0 0 0 0 0 0 0
0 0 0 0 0 0 0 0 0 0 0 0 1 0 3 1 2 5 0 0 0 1 0 0 0 0 0 0 0 4 2 0 0 0 0 0 0 0 0 0 0 0 0 0 0
0 0 0 0 0 0 0 0 0 0 0 0 0 0 0 0 0 0 1 2 0 0 0 0 0 0 0 0 0 0 0 0 0 0 0 0 0 0 0 0 0 0 0 0 0
0 0 0 0 0 0 0 0 0 0 0 0 0 0 0 0 0 0 0 1 0 0 0 0 0 0 0 0 0 0 0 0 0 0 0 0 0 0 0 0 0 0 0 0 0
0 0 0 0 0 0 0 0 0 0 0 0 0 0 0 0 0 0 0 0 0 0 0 0 0 0 0 0 0 0 0 0 0 0 0 0 0 0 0 0 0 0 0 0 0
0 0 0 0 0 0 0 0 0 0 0 0 0 0 0 0 0 0 0 0 0 0 0 0 0 0 0 1 0 0 1 0 0 0 0 0 0 0 0 0 0 0 0 0 0
0 0 0 0 0 0 0 0 0 0 0 0 0 0 0 0 0 0 0 0 0 0 0 0 0 0 0 0 0 0 0 3 0 0 0 0 0 0 0 0 0 0 0 0 0
0 0 0 0 0 0 0 0 0 0 0 0 0 0 0 0 0 0 0 0 0 0 0 0 0 0 0 0 0 0 0 0 2 0 0 0 0 0 0 0 0 0 0 0 0
0 0 0 0 0 0 0 0 0 0 0 0 0 0 0 0 0 0 0 0 0 0 0 0 0 0 0 0 0 0 0 0 0 1 0 0 0 0 0 0 0 0 0 0 0
0 0 0 0 0 0 0 0 0 0 0 0 0 0 0 0 0 0 0 0 0 0 0 0 0 0 0 0 0 0 0 0 0 0 0 0 0 0 0 0 0 0 0 0 0

GFSSW_con_mlcape_075.txt.gz
CAPE
21 19 25 12 10 19 20 24 20 18 33 60 15 33 24 73 67 8 3 1 17 6 43 0 4 0 80 85 64 38 18 0 0 0 0 0 0 0 0 0 0 178 197 251 738
14 16 26 16 7 8 12 8 5 14 24 26 16 39 31 74 0 0 0 41 24 83 11 13 2 5 68 42 84 65 16 0 0 0 1 0 0 0 0 0 0 0 0 392 790
6 14 20 31 6 7 14 14 5 0 5 11 27 41 68 5 0 0 15 37 55 69 27 14 3 5 25 42 50 15 0 0 7 1 14 16 0 0 0 0 0 0 0 114 774
4 14 15 19 4 7 9 19 1 0 8 30 21 15 22 0 0 0 0 133 65 68 51 4 34 6 11 1 9 25 1 0 3 28 13 16 1 0 0 0 0 0 0 75 649
8 11 18 14 16 6 2 16 10 6 0 0 23 73 1 0 0 0 0 15 63 32 20 3 28 3 1 17 4 5 10 56 48 26 5 0 0 0 0 0 0 0 0 115 354
13 8 13 14 20 6 14 0 10 2 1 6 61 35 0 0 0 0 0 0 0 19 1 8 29 0 18 23 4 4 1 30 63 13 0 2 0 0 0 0 0 0 0 1 239
29 6 12 17 16 24 13 26 0 0 4 46 20 0 0 0 0 0 0 0 0 0 0 0 24 15 22 25 34 27 0 7 11 13 4 0 0 0 0 0 0 0 0 0 5
18 19 6 9 14 12 25 10 2 0 0 41 70 0 0 0 0 0 0 0 0 0 0 2 4 7 20 25 34 25 22 0 0 0 0 0 0 0 0 0 0 0 0 0 0
21 20 7 8 14 7 19 4 0 0 0 26 0 0 0 0 0 0 0 0 3 3 13 16 13 6 12 13 14 15 0 1 3 1 0 0 0 0 0 0 0 0 0 0 0
22 24 14 6 9 8 18 0 0 0 0 0 0 0 0 0 0 0 1 0 12 9 14 5 1 6 1 1 0 0 0 2 0 3 2 0 0 0 0 0 0 0 0 0 0
17 19 11 5 11 6 3 0 0 0 0 0 0 0 0 0 0 4 0 0 0 6 1 7 1 0 0 11 0 0 0 0 3 0 0 0 0 0 0 0 0 0 0 0 0
16 14 3 2 10 7 0 0 0 0 0 0 0 0 0 0 0 15 0 0 0 1 0 1 0 0 4 15 2 0 0 0 0 0 0 0 0 0 0 0 0 0 0 0 0
13 7 2 9 2 0 0 0 0 0 0 0 0 0 0 0 1 22 5 0 0 0 2 12 0 1 5 38 8 0 0 0 0 0 0 0 0 0 0 0 0 0 0 0 0
3 2 3 2 0 0 0 0 0 0 0 0 0 0 0 0 0 14 4 0 0 0 8 19 2 0 3 20 9 0 0 0 0 0 0 0 0 0 0 0 0 0 0 0 0
2 3 4 1 0 0 0 0 0 0 0 1 0 2 0 2 1 4 8 0 0 0 0 7 0 1 0 13 30 3 0 0 0 0 0 0 0 0 0 0 0 0 0 0 0
3 2 2 0 0 0 0 0 0 0 0 0 1 0 0 0 2 1 5 10 0 0 0 0 4 5 0 12 6 0 0 0 0 0 0 0 0 0 0 0 0 0 0 0 0
3 2 0 0 0 0 1 0 0 0 0 0 0 1 0 1 0 0 2 0 0 3 7 8 2 2 4 8 0 0 0 0 2 2 0 0 0 0 0 0 0 0 0 0 0
0 1 0 0 0 0 0 0 0 0 0 0 1 0 0 0 1 1 0 0 0 0 2 0 2 4 0 0 0 0 0 0 0 0 0 0 0 0 0 0 0 0 0 0 0
0 0 0 0 0 0 0 0 0 0 0 0 0 0 0 5 1 6 0 0 0 0 0 0 0 0 0 0 0 0 0 0 0 0 0 0 0 0 0 0 0 0 0 0 0
0 0 0 0 0 0 0 0 0 0 0 0 0 0 0 0 2 0 0 0 0 0 0 0 0 0 0 0 0 2 0 0 0 0 0 0 0 0 0 0 0 0 0 0 0
0 0 0 0 0 0 0 0 0 0 0 0 0 0 0 2 0 0 0 0 0 1 0 0 0 0 3 0 0 0 0 0 0 0 0 0 0 0 0 0 0 0 0 0 0
0 0 0 0 1 0 0 0 0 0 0 0 0 0 0 0 0 0 0 0 0 0 0 0 0 0 0 0 0 0 0 0 0 0 0 0 0 0 0 0 0 0 0 0 0
0 0 0 0 0 0 0 0 0 0 0 0 0 0 0 0 0 0 0 0 0 0 0 0 0 0 0 0 0 0 0 0 0 0 0 0 0 0 0 0 0 0 0 0 0
0 0 0 0 0 0 0 0 0 0 0 0 0 0 0 0 0 0 0 0 0 0 0 0 0 0 0 0 0 0 0 0 0 0 0 0 0 0 0 0 0 0 0 0 0
0 0 0 0 0 0 0 0 0 0 0 0 0 0 0 0 0 0 0 0 0 0 0 0 0 0 0 0 0 0 0 0 0 0 0 0 0 0 0 0 0 0 0 0 0
0 0 0 0 0 0 0 0 0 0 0 0 0 0 0 0 0 0 0 0 0 0 0 0 0 0 0 0 0 0 0 0 0 0 0 0 0 0 0 0 0 0 0 0 0
0 0 0 0 0 0 0 0 0 0 0 0 0 0 0 0 0 0 0 0 0 0 0 0 0 0 0 0 0 0 0 0 0 0 0 0 0 0 0 0 0 0 0 0 0

GFSSW_con_mlcape_078.txt.gz
CAPE
22 26 22 28 5 7 13 11 10 8 8 14 12 29 12 24 39 20 0 1 43 35 51 22 25 15 161 228 313 199 48 31 16 0 0 0 0 0 0 0 183 0 134 452 1013
17 26 20 23 12 6 9 7 7 3 1 0 0 11 49 29 8 0 0 54 6 55 46 21 14 27 119 157 180 136 44 5 5 8 0 0 5 0 0 0 0 0 21 439 825
11 18 25 17 25 8 1 17 4 2 0 0 0 0 2 2 3 0 66 65 51 41 26 25 45 48 60 102 119 68 1 14 51 55 7 9 9 0 0 0 0 0 0 128 842
16 6 18 14 28 5 0 12 15 6 0 0 0 1 15 0 0 0 0 62 117 86 14 16 58 43 26 9 82 45 62 97 87 94 60 15 20 14 0 0 0 0 0 45 746
39 13 4 11 17 19 10 0 10 4 0 0 0 30 0 0 0 0 0 40 129 23 26 34 42 23 9 25 56 37 56 100 94 75 46 0 10 22 3 0 0 0 0 207 458
33 27 7 7 19 24 5 17 3 2 1 0 22 6 0 0 0 0 0 6 12 28 5 31 51 14 22 15 16 27 31 75 81 30 8 38 8 16 0 0 0 0 0 0 303
31 24 14 9 13 14 14 19 0 0 0 26 0 0 0 0 0 0 0 0 0 14 20 2 47 24 13 10 26 40 9 67 49 49 54 8 11 0 7 0 0 0 0 0 0
32 26 17 7 11 15 0 34 20 0 0 34 12 0 0 0 6 2 0 0 0 0 0 0 2 33 29 35 54 34 20 39 48 69 17 26 0 0 0 0 0 0 0 0 0
31 22 20 9 5 12 1 13 12 0 0 6 0 0 0 1 1 1 21 21 8 0 0 3 14 21 16 10 17 30 0 1 19 32 2 0 0 11 9 0 0 0 0 0 0
25 21 20 9 7 9 12 8 4 0 0 0 0 0 0 0 0 0 43 34 31 0 3 10 7 12 12 13 1 2 6 22 20 13 12 4 6 0 0 0 0 0 0 0 0
20 15 14 7 8 10 9 0 0 0 1 0 0 0 0 0 0 30 23 11 29 3 1 7 0 1 1 0 9 15 13 2 16 5 4 4 3 0 0 0 0 0 0 0 0
14 12 12 11 15 5 0 0 0 0 0 0 0 0 0 0 0 32 2 6 19 0 7 1 1 7 13 10 0 10 19 16 6 2 8 2 0 0 0 0 0 0 0 0 0
13 10 8 10 3 0 0 0 0 0 0 0 0 0 0 0 0 1 9 2 2 0 0 4 2 7 3 11 3 9 6 16 0 8 6 6 0 0 0 0 0 0 0 0 0
11 8 8 5 0 0 0 0 0 0 0 0 2 2 0 1 14 5 5 2 0 2 1 5 8 0 11 11 8 2 2 0 0 0 0 0 0 0 0 0 0 0 0 0 0
6 4 5 2 0 0 0 0 0 0 1 1 1 6 1 9 2 5 0 2 0 4 2 4 0 0 2 12 5 0 0 0 0 0 1 0 0 0 0 0 0 0 0 0 0
1 4 3 0 0 0 0 0 0 0 0 1 2 2 1 0 7 1 7 3 4 8 0 4 2 1 3 14 5 0 0 0 4 11 4 1 1 0 0 0 0 0 0 0 0
1 1 0 0 0 0 4 0 0 0 0 0 0 3 0 0 1 0 2 1 1 5 0 3 1 3 1 23 0 3 5 2 2 3 1 0 1 0 0 0 0 0 0 0 0
0 0 0 0 0 0 0 0 0 0 0 1 0 0 0 0 0 5 0 1 0 9 0 4 1 1 13 5 0 14 4 2 0 0 0 0 0 0 0 0 0 0 0 0 0
0 0 0 0 0 0 0 0 0 0 0 3 1 0 0 0 1 13 7 0 0 0 0 0 0 1 0 1 0 1 5 0 0 0 0 0 0 0 0 0 0 0 0 0 0
0 0 0 0 0 0 0 0 0 0 0 0 1 0 1 7 3 2 0 0 0 0 0 0 0 3 2 0 0 2 0 0 0 0 0 0 0 0 0 0 0 0 0 0 0
0 1 0 0 0 0 0 0 0 0 0 0 0 1 0 0 1 1 1 0 0 0 3 0 0 0 1 1 4 0 0 0 0 0 0 0 0 0 0 0 0 0 0 0 0
0 0 0 0 0 0 0 0 0 0 0 0 0 0 0 0 0 0 0 0 0 0 0 0 0 1 0 0 0 0 0 0 3 0 0 0 0 0 0 0 0 0 0 0 0
0 1 0 0 0 0 0 0 0 0 0 0 0 0 0 0 0 0 0 0 0 0 0 0 0 1 0 0 0 0 0 0 0 0 0 0 0 0 0 0 0 0 0 0 0
0 0 0 0 0 0 0 0 0 0 0 0 0 0 0 0 0 0 0 0 0 0 0 0 0 0 0 0 0 0 0 0 0 0 0 0 0 0 0 0 0 0 0 0 0
0 0 0 0 0 0 0 0 0 0 0 0 0 0 0 0 0 0 0 0 0 0 0 0 0 0 0 0 0 0 0 0 0 0 0 0 0 0 0 0 0 0 0 0 0
0 0 0 0 0 0 0 0 0 0 0 0 0 0 0 0 0 0 0 0 0 0 0 0 0 0 0 0 0 0 0 0 0 0 0 0 0 0 0 0 0 0 0 0 0
0 0 0 0 0 0 0 0 0 0 0 0 0 0 0 0 0 0 0 0 0 0 0 0 0 0 0 0 0 0 0 0 0 0 0 0 0 0 0 0 0 0 0 0 0

GFSSW_con_mlcape_081.txt.gz
CAPE
6 13 25 23 32 10 3 19 9 4 1 1 0 0 2 9 0 20 6 4 80 76 34 7 43 33 56 90 87 130 50 25 24 22 17 0 0 0 0 0 141 0 248 652 1209
6 6 7 27 27 11 0 22 10 2 0 0 0 0 0 0 0 1 2 8 46 90 60 24 59 58 50 58 109 106 67 96 21 18 17 0 0 0 0 4 0 0 75 641 1040
36 5 5 19 20 20 2 5 15 3 1 0 0 0 0 0 0 0 82 109 121 62 71 45 59 71 35 17 90 128 10 17 27 14 55 0 0 0 0 9 0 0 0 451 1092
25 27 7 0 19 30 17 0 11 2 0 0 0 0 0 21 8 18 35 52 158 111 55 76 92 94 39 11 33 39 15 38 146 109 26 9 0 0 1 1 0 0 27 317 992
19 27 27 7 10 24 26 21 9 0 0 0 0 0 0 1 2 0 0 14 138 39 2 61 80 64 16 5 18 70 97 137 115 203 43 8 0 0 0 0 0 0 57 364 822
24 27 19 11 8 17 13 31 0 0 0 0 0 0 0 16 0 0 0 27 82 33 22 2 18 38 17 12 6 22 117 137 159 76 94 84 2 0 0 0 0 0 0 108 410
24 30 24 18 4 10 19 31 21 0 0 0 0 0 0 1 8 1 0 7 7 54 43 17 0 29 1 22 61 101 65 195 93 114 82 150 54 0 0 0 0 0 2 0 3
21 31 25 28 9 3 24 17 25 0 0 1 0 0 1 1 44 9 12 21 0 0 2 1 11 1 50 20 73 52 81 66 74 100 82 68 26 0 0 14 3 1 0 0 0
17 24 22 20 14 10 14 16 14 0 0 0 3 2 12 8 25 2 52 19 8 0 7 18 17 11 67 40 37 50 18 17 45 112 52 39 1 84 8 27 16 6 6 0 0
16 16 17 13 12 9 13 18 10 0 1 0 0 1 0 24 3 0 30 4 25 0 16 13 11 1 28 26 6 6 19 29 26 43 32 23 51 29 0 0 0 0 2 5 0
13 13 14 13 15 16 9 9 5 2 2 0 0 0 0 0 0 44 7 3 8 0 1 2 0 0 2 12 0 0 14 12 29 16 7 11 25 16 1 0 0 0 0 2 1
6 12 9 10 11 9 8 3 0 0 1 0 0 0 0 0 0 31 0 5 10 0 13 1 0 1 8 29 42 60 33 2 7 1 0 6 1 14 11 0 0 0 0 0 1
7 9 6 8 5 1 5 0 0 0 2 1 0 9 5 0 16 3 1 2 16 0 0 3 1 2 3 14 46 13 4 18 6 5 11 18 5 0 0 0 0 0 0 0 0
6 8 6 3 0 1 2 0 0 0 3 1 5 3 8 0 4 0 0 6 5 1 0 14 1 4 19 11 8 15 17 10 5 6 0 0 0 0 0 0 0 0 0 0 0
7 6 5 1 2 0 1 0 0 0 1 1 6 0 3 10 6 0 0 14 4 0 1 1 3 0 13 11 1 19 3 1 13 15 10 13 0 0 0 0 0 0 0 0 0
5 5 2 0 6 2 0 0 1 0 0 0 4 3 8 9 3 2 6 1 19 4 12 5 7 0 16 26 7 0 4 4 8 8 4 1 2 0 5 0 0 0 0 0 0
0 0 1 0 2 2 0 0 0 0 0 0 0 2 1 0 1 2 1 19 2 0 4 3 2 1 9 9 8 7 2 6 6 3 1 0 1 0 0 0 0 0 0 0 0
1 0 0 0 2 0 3 0 0 1 1 1 0 0 5 3 0 1 0 7 0 2 0 0 0 5 12 15 4 10 0 0 0 0 0 0 0 0 0 0 0 0 0 0 0
0 2 2 0 0 0 2 1 0 0 2 0 1 1 1 0 1 3 2 16 8 23 14 0 0 0 2 17 10 25 17 0 0 0 3 1 0 0 0 0 0 0 0 0 0
2 5 6 0 0 0 1 0 0 0 0 3 3 7 1 6 0 2 0 0 0 0 1 5 0 1 10 1 0 6 6 0 0 0 0 0 0 0 0 0 0 0 0 0 0
3 3 1 0 1 2 1 2 0 0 0 0 8 0 0 2 0 0 3 0 0 0 0 1 12 2 11 1 11 0 0 4 4 0 0 0 0 0 0 0 0 0 0 0 0
6 1 0 0 2 1 5 0 0 0 0 0 0 5 11 8 15 16 1 0 0 0 0 0 3 0 3 4 0 5 15 17 6 0 0 0 0 0 0 0 0 0 0 0 0
2 0 0 0 0 3 0 0 2 0 0 0 0 0 0 1 7 1 2 0 0 0 0 0 2 1 2 4 0 0 0 0 6 0 0 0 0 0 0 0 0 0 0 0 0
0 0 2 0 0 0 3 4 0 0 0 0 0 0 0 0 0 2 0 0 2 0 0 0 3 3 4 1 0 0 0 0 2 0 0 0 0 0 0 0 0 0 0 0 0
0 0 0 0 0 0 0 2 3 0 0 0 0 0 0 0 0 0 0 0 0 0 0 0 0 0 0 0 0 0 0 0 3 0 0 0 0 0 0 0 0 0 0 0 0
0 0 0 0 0 0 0 4 9 0 0 0 0 0 0 1 0 1 0 4 3 0 0 0 0 0 0 0 0 0 0 0 0 0 1 0 0 0 0 0 0 0 0 0 0
0 0 0 0 0 0 0 2 3 0 0 0 0 0 0 0 0 0 0 0 0 2 1 1 4 0 1 0 0 0 0 0 0 0 0 0 0 0 0 0 0 0 0 0 0

GFSSW_con_mlcape_084.txt.gz
CAPE
24 5 3 6 30 31 3 0 20 4 1 0 0 0 0 0 0 0 0 28 61 108 96 10 6 11 16 25 69 192 53 1 8 13 62 0 0 0 0 26 18 111 340 1046 1143
13 31 17 8 21 27 7 0 16 1 1 0 0 0 0 0 0 5 64 139 83 131 45 9 27 61 15 6 90 22 11 0 9 103 24 0 0 0 0 33 26 53 339 1143 1193
11 28 29 10 9 18 23 5 12 3 0 0 0 0 0 0 4 19 155 227 240 158 100 10 44 48 33 38 73 36 4 0 0 13 30 2 1 0 0 4 2 0 130 966 1198
8 26 26 23 10 3 23 19 0 1 0 0 0 0 0 19 11 35 58 85 146 159 64 11 48 52 43 22 40 47 0 22 6 17 30 14 0 0 2 0 0 0 166 663 1365
4 29 27 33 10 0 19 27 13 0 1 0 0 0 0 23 15 0 4 14 125 51 32 20 39 70 28 0 16 8 17 6 0 9 0 0 2 0 0 0 0 3 380 722 1035
6 28 19 33 20 3 11 16 21 0 0 1 0 0 6 25 0 17 0 31 94 92 45 35 44 68 62 7 19 40 44 64 48 3 25 16 12 0 0 0 0 0 99 568 780
11 14 26 30 29 5 7 18 14 5 0 0 30 7 0 26 5 31 21 91 29 6 14 28 21 0 17 36 11 75 63 64 62 3 3 39 19 0 0 0 0 0 0 75 499
6 11 28 18 26 12 1 7 7 13 0 0 8 4 3 3 19 4 40 51 6 0 5 5 1 0 4 4 21 62 72 52 62 30 7 50 7 0 6 0 0 0 0 4 0
5 15 15 19 17 12 6 4 7 0 0 0 0 17 7 8 39 0 14 20 2 0 0 8 0 3 1 7 31 44 11 11 51 85 44 75 6 51 8 2 1 0 0 0 0
5 10 12 13 10 9 13 0 2 0 0 0 0 0 3 17 8 0 14 1 28 0 4 2 1 0 0 18 5 7 20 9 1 5 37 26 15 19 11 4 0 0 0 0 0
6 7 13 11 13 10 5 0 0 0 0 0 0 0 14 0 0 31 2 0 9 0 0 5 0 0 0 0 0 0 0 0 7 30 13 26 14 9 12 0 0 0 0 0 0
7 10 7 7 9 5 0 1 0 0 1 0 0 0 0 0 0 34 8 10 11 0 1 1 0 0 17 20 4 39 3 9 42 41 9 23 16 0 0 0 0 0 0 0 0
6 7 5 11 3 0 1 0 0 0 0 0 0 0 0 0 2 3 0 6 1 0 1 0 2 0 0 0 0 0 0 0 5 3 2 12 0 0 0 0 0 0 0 0 0
5 5 6 3 0 3 0 0 0 0 0 0 7 3 2 2 2 3 7 6 1 0 1 1 2 0 0 7 33 7 39 25 17 0 0 10 0 0 0 0 0 0 0 0 0
4 3 7 0 1 1 0 0 0 0 0 0 5 0 0 12 0 4 0 6 2 0 0 0 2 1 3 0 21 3 26 58 29 34 22 0 0 0 0 0 0 0 0 0 0
1 6 0 0 4 0 0 0 0 0 0 0 1 2 2 3 4 2 10 0 3 0 2 2 1 0 0 3 1 0 17 4 1 10 0 0 0 0 0 0 0 0 0 0 0
0 0 0 1 5 1 0 0 0 0 0 0 0 2 0 2 1 0 1 0 0 0 0 0 0 0 0 5 7 14 0 0 0 0 0 0 0 0 0 0 0 0 0 0 0
0 0 0 1 0 0 1 0 0 0 3 0 0 0 0 0 0 0 0 1 0 0 0 0 0 0 2 21 4 8 2 0 0 0 0 0 0 0 0 0 0 0 0 0 0
0 2 3 0 0 0 1 0 0 0 0 0 0 1 1 0 0 0 0 0 0 0 0 0 1 0 0 16 16 8 0 0 0 0 0 0 0 0 0 0 0 0 0 0 0
1 3 4 0 0 1 0 0 0 0 5 0 2 2 0 0 0 0 0 0 0 0 0 0 0 0 5 6 6 10 6 0 0 0 0 0 0 0 0 0 0 0 0 0 0
0 3 0 0 2 0 0 0 0 0 0 0 6 1 0 0 0 0 1 0 0 0 0 0 0 1 10 0 3 6 3 1 0 0 0 0 0 0 0 0 0 0 0 0 0
1 0 0 1 1 0 1 0 0 0 0 0 0 3 3 0 0 6 0 0 0 0 0 0 0 0 0 0 0 0 0 2 0 0 0 0 0 0 0 0 0 0 0 0 0
1 0 0 0 0 0 0 0 2 0 0 0 0 0 0 2 5 0 0 0 0 0 0 0 2 0 0 0 0 0 0 8 1 0 0 0 0 0 0 0 0 0 0 0 0
0 0 0 0 0 0 0 0 0 0 0 0 0 0 0 0 0 1 0 0 0 0 0 0 3 1 0 0 0 0 0 0 1 0 0 0 0 0 0 0 0 0 0 0 0
0 0 0 0 0 0 3 0 2 0 0 0 0 0 0 0 0 3 0 0 0 0 0 0 0 0 0 0 0 0 0 0 0 0 0 0 0 0 0 0 0 0 0 0 0
0 0 0 0 0 0 0 0 2 0 0 0 1 0 0 0 0 2 0 0 0 0 0 0 0 0 0 0 0 0 0 0 0 0 0 0 0 0 0 0 0 0 0 0 0
0 0 0 0 0 0 0 1 0 1 0 0 0 0 0 0 0 0 0 0 0 0 0 0 0 0 0 0 0 0 0 0 0 0 0 0 0 0 0 0 0 0 0 0 0

GFSSW_con_mlcape_087.txt.gz
CAPE
11 10 25 15 5 7 29 10 3 9 5 5 2 0 0 0 0 0 0 0 30 62 77 27 12 0 10 0 31 152 75 0 0 0 13 0 0 0 0 3 111 152 570 800 1048
8 10 27 26 6 3 22 22 0 8 2 4 0 0 0 0 0 0 0 73 133 74 61 37 17 27 16 14 11 41 74 0 2 8 0 0 0 0 2 14 68 283 957 1246 1105
7 4 31 28 17 7 5 44 14 5 1 0 0 0 0 0 0 0 145 156 124 258 178 51 32 12 30 25 30 37 6 0 35 9 13 0 0 0 0 0 0 51 878 1234 1095
6 8 27 27 24 9 0 34 26 0 0 0 0 0 0 0 0 11 60 148 0 211 99 17 7 30 21 12 11 34 2 0 0 1 15 28 0 0 0 0 0 27 513 1056 1168
2 8 31 12 19 17 0 23 20 14 0 1 0 0 0 4 8 11 45 19 81 86 35 3 1 6 8 0 27 58 15 0 2 20 0 5 0 0 0 0 56 322 547 1164 1231
7 15 20 28 22 24 6 3 22 24 0 0 0 0 0 0 0 0 20 122 64 50 92 19 2 2 32 38 18 0 13 4 3 14 0 2 1 0 0 0 78 222 627 1041 1206
6 10 19 24 25 21 5 1 13 16 2 0 0 0 0 0 0 0 92 129 15 2 31 32 1 20 3 40 0 0 0 11 25 0 0 0 1 2 0 0 0 71 207 783 1022
4 10 23 19 12 16 6 0 5 8 0 0 0 0 0 0 0 0 4 40 1 0 0 0 17 1 1 0 0 1 43 31 34 5 1 0 0 0 0 0 0 0 53 172 649
7 11 20 15 13 7 1 3 0 0 0 0 0 1 0 10 6 0 0 9 0 1 0 0 10 2 10 13 25 24 17 31 55 32 3 0 0 0 0 3 1 0 0 0 35
7 9 13 8 9 8 0 0 0 0 0 0 0 1 3 6 0 0 3 3 19 4 0 0 0 0 2 14 2 0 0 23 7 3 0 5 4 4 1 11 7 0 0 0 0
4 11 8 8 10 8 0 0 0 0 0 0 0 0 0 0 0 15 0 0 1 2 0 2 0 0 0 0 0 7 0 0 20 14 7 10 15 19 22 0 0 0 0 0 0
3 9 7 5 6 4 0 0 0 0 0 0 0 0 0 0 1 7 0 0 12 0 0 1 0 0 0 0 2 26 15 14 15 37 23 15 0 0 21 5 0 0 0 0 0
1 7 4 7 2 0 0 0 0 0 0 0 0 0 0 0 0 0 0 0 0 0 0 0 2 3 1 14 10 9 18 18 4 25 37 21 2 0 2 0 0 0 0 0 0
0 3 4 4 0 0 0 0 0 0 0 0 4 2 1 0 0 0 0 0 1 1 1 0 1 13 1 0 0 0 0 2 10 2 0 8 0 0 0 0 0 0 0 0 0
0 4 4 0 1 0 0 0 0 0 0 3 0 0 3 4 0 0 0 2 2 4 2 2 0 0 6 0 0 8 0 0 5 0 0 1 0 0 0 0 0 0 0 0 0
0 1 2 0 0 0 0 0 0 0 0 0 0 0 0 3 8 0 0 0 0 1 0 2 1 0 0 0 0 0 0 12 0 3 6 0 0 0 0 0 0 0 0 0 0
0 0 0 2 1 0 0 0 0 0 0 0 0 0 0 0 0 0 0 0 0 0 0 0 0 0 0 0 0 1 0 0 0 0 0 0 0 0 0 0 0 0 0 0 0
0 0 0 1 0 0 0 0 0 0 0 0 0 0 0 0 0 0 0 0 0 0 0 0 0 0 0 0 0 0 0 0 0 0 0 0 0 0 0 0 0 0 0 0 0
0 0 0 0 0 0 0 0 0 0 0 0 0 0 0 0 0 0 0 0 0 0 0 0 0 0 0 0 0 0 0 0 0 0 0 0 0 0 0 0 0 0 0 0 0
0 4 0 0 0 0 0 0 0 0 1 0 0 0 0 0 0 0 0 0 0 0 0 0 0 0 0 0 0 0 0 0 0 0 0 0 0 0 0 0 0 0 0 0 0
0 4 1 0 0 0 0 0 0 0 0 0 0 0 0 0 0 0 0 0 0 0 0 0 0 0 0 0 0 0 0 0 0 0 0 0 0 0 0 0 0 0 0 0 0
0 0 0 0 0 0 0 0 0 0 0 0 0 0 0 0 0 0 0 0 0 0 0 0 0 0 0 0 0 0 0 0 0 0 0 0 0 0 0 0 0 0 0 0 0
0 0 0 2 0 0 0 0 0 0 0 0 0 0 1 2 2 0 0 0 0 0 0 0 0 0 0 0 0 0 0 3 0 0 0 0 0 0 0 0 0 0 0 0 0
0 0 2 1 0 0 0 0 0 0 0 0 0 0 0 0 0 0 0 0 0 0 0 0 0 0 0 0 0 0 0 0 0 0 0 0 0 0 0 0 0 0 0 0 0
0 0 0 0 0 0 0 0 0 0 0 0 0 0 0 0 0 0 0 0 0 0 0 0 0 0 0 0 0 0 0 0 0 0 0 0 0 0 0 0 0 0 0 0 0
0 0 0 0 0 0 0 0 0 0 0 0 0 0 0 0 0 0 0 0 0 0 0 0 0 0 0 0 0 0 0 0 0 0 0 0 0 0 0 0 0 0 0 0 0
0 0 0 0 0 0 0 0 0 0 0 0 0 0 0 0 0 0 0 0 0 0 0 0 0 0 0 0 0 0 0 0 0 0 0 0 0 0 0 0 0 0 0 0 0

GFSSW_con_mlcape_090.txt.gz
CAPE
5 8 7 33 21 2 9 39 11 1 8 7 9 4 4 0 0 0 0 0 0 21 47 0 8 17 0 3 8 113 120 1 0 0 0 0 0 0 17 117 189 329 426 632 127
5 4 6 32 21 20 8 7 35 3 9 1 2 0 0 0 0 0 0 7 72 72 23 6 3 34 0 11 15 52 76 4 0 0 0 1 2 0 87 141 335 575 894 1047 644
3 4 6 29 23 25 8 0 35 18 4 4 2 0 0 0 0 0 7 14 6 75 49 12 22 35 20 24 24 1 20 26 8 49 57 9 6 0 59 16 116 472 680 1092 881
3 4 6 31 17 27 12 0 28 39 8 5 0 0 0 0 0 0 53 36 176 42 0 13 17 34 17 11 15 32 7 88 19 27 63 35 1 0 0 0 49 812 1010 884 778
4 4 12 9 32 22 20 0 12 25 16 0 2 0 0 0 0 0 3 19 150 103 5 6 4 6 13 7 15 18 22 0 0 21 8 7 1 0 0 0 22 271 935 804 451
6 5 5 8 25 25 28 5 1 26 28 0 3 8 0 0 0 0 1 69 88 11 20 21 0 3 1 12 12 1 20 0 20 1 0 2 1 0 0 67 187 255 339 776 720
4 3 5 7 17 14 21 7 3 16 30 9 0 0 0 0 0 0 121 129 37 3 3 2 21 6 12 3 6 19 19 0 10 26 0 0 0 0 0 1 117 169 366 646 880
3 2 2 8 13 15 4 6 9 0 14 22 0 0 0 0 0 0 5 61 19 0 0 0 1 0 20 18 7 22 37 21 30 31 0 0 6 0 0 0 7 64 275 423 781
4 2 0 1 10 7 5 0 3 2 1 0 0 0 0 0 9 0 0 12 6 10 4 0 8 7 2 14 7 33 11 0 26 13 6 2 0 0 0 0 0 0 13 223 416
2 0 2 0 6 6 6 0 0 0 0 0 0 0 0 0 0 0 0 0 13 3 8 2 8 0 0 1 0 26 20 14 5 5 5 2 1 0 0 0 0 0 0 0 90
0 0 1 0 1 1 2 0 0 0 0 0 0 0 0 0 0 0 0 1 4 4 0 1 0 0 0 1 0 8 13 17 18 1 0 0 0 0 0 0 0 0 0 0 0
0 0 0 0 1 6 0 0 0 0 0 0 0 0 0 0 2 4 0 6 10 0 1 0 0 0 0 2 10 34 2 23 33 0 0 0 1 0 0 0 0 0 0 0 0
0 0 0 0 0 0 0 0 0 0 0 0 0 0 0 0 0 0 0 4 1 0 0 2 1 0 1 2 22 30 0 2 0 8 12 0 0 0 0 0 0 0 0 0 0
0 0 0 0 0 0 0 0 0 0 0 0 0 0 0 1 0 0 0 0 2 0 0 0 4 0 2 0 0 0 0 0 0 0 0 0 0 0 0 0 0 0 0 0 0
0 0 0 0 0 0 0 0 0 0 0 0 0 0 0 0 0 0 0 1 3 2 1 0 6 1 4 0 0 0 1 3 6 0 0 1 0 0 0 0 0 0 0 0 0
0 0 0 0 0 0 0 0 0 0 0 0 0 0 0 3 0 0 0 0 4 2 0 1 0 0 0 0 0 4 13 2 0 0 0 0 0 0 0 0 0 0 0 0 0
0 0 0 0 0 0 0 0 0 0 0 0 0 0 0 0 0 0 0 0 0 0 0 0 0 0 0 9 5 16 6 2 0 0 0 0 0 0 0 0 0 0 0 0 0
0 0 0 0 0 0 0 0 0 0 0 0 0 0 0 0 0 0 0 0 0 0 0 0 0 0 0 0 0 0 0 0 0 0 0 0 0 0 0 0 0 0 0 0 0
0 0 0 0 0 0 0 0 0 0 0 0 0 0 0 0 0 0 0 0 0 0 0 0 0 0 0 0 0 0 0 0 0 0 0 0 0 0 0 0 0 0 0 0 0
0 0 0 0 0 0 0 0 0 0 0 0 0 0 0 0 0 0 0 0 0 0 0 0 0 0 0 0 0 0 0 0 0 0 0 0 0 0 0 0 0 0 0 0 0
0 0 0 0 0 0 0 0 0 0 0 0 0 0 0 0 0 0 0 0 0 0 0 0 0 0 0 0 0 0 0 0 0 0 0 0 0 0 0 0 0 0 0 0 0
0 0 1 0 1 0 0 0 0 0 0 0 0 0 0 0 0 0 0 0 0 0 0 0 0 0 0 0 0 0 0 0 0 0 0 0 0 0 0 0 0 0 0 0 0
0 1 0 2 0 0 0 0 0 0 0 0 0 0 0 0 0 0 0 0 0 0 0 0 0 0 0 0 0 0 0 0 0 0 0 0 0 0 0 0 0 0 0 0 0
0 0 1 4 0 0 0 0 0 0 0 0 0 0 0 0 0 0 0 0 0 0 0 0 0 0 0 0 0 0 0 0 0 0 0 0 0 0 0 0 0 0 0 0 0
0 0 0 0 0 0 0 0 0 0 0 0 0 0 0 0 0 0 0 0 0 0 0 0 0 0 0 0 0 0 0 0 0 0 0 0 0 0 0 0 0 0 0 0 0
0 0 0 0 0 0 0 0 0 0 0 0 0 0 0 0 0 0 0 0 0 0 0 0 0 0 0 0 0 0 0 0 0 0 0 0 0 0 0 0 0 0 0 0 0
0 0 0 0 0 0 0 0 0 0 0 0 0 0 0 0 0 0 0 0 0 0 0 0 0 0 0 0 0 0 0 0 0 0 0 0 0 0 0 0 0 0 0 0 0

GFSSW_con_mlcape_093.txt.gz
CAPE
3 5 1 1 17 8 10 2 9 14 14 2 4 6 5 1 0 0 0 0 0 5 16 0 0 3 11 0 4 75 10 4 0 0 0 0 0 0 13 109 143 86 132 66 87
2 2 4 2 23 11 18 7 1 33 13 1 1 2 1 0 0 0 0 0 52 49 0 0 0 5 13 0 1 42 14 14 0 1 0 0 0 10 144 226 249 393 785 189 119
4 4 4 4 21 9 24 13 0 34 19 0 2 3 0 0 0 0 7 3 9 19 0 2 0 7 10 17 0 15 9 2 5 32 8 29 4 1 153 164 240 344 622 681 205
7 2 2 4 9 16 21 15 0 29 31 0 2 0 0 0 0 0 14 1 29 11 0 0 0 3 9 0 0 2 3 0 143 55 59 37 4 28 7 48 162 948 748 680 317
6 1 5 1 6 14 9 21 6 8 34 2 0 1 0 0 0 0 0 0 64 128 31 9 16 2 4 9 1 14 18 0 0 29 21 41 1 36 0 21 652 946 928 668 589
7 3 5 0 5 7 14 20 6 2 23 6 0 0 0 0 0 0 0 11 103 40 12 2 1 1 9 8 7 6 0 13 0 1 1 33 1 0 0 140 337 613 722 717 680
3 6 4 0 7 5 2 13 4 0 19 31 0 0 0 0 0 0 4 67 97 25 15 4 41 14 0 1 0 18 13 4 0 10 10 0 15 2 0 144 149 192 488 469 629
8 6 1 0 2 1 7 3 0 7 9 22 0 0 0 0 0 0 0 48 55 32 0 0 1 35 6 2 32 2 5 6 30 16 38 1 9 0 0 18 78 122 143 401 332
7 6 1 3 0 0 0 0 0 9 1 0 0 0 0 0 0 0 0 0 20 22 2 19 8 5 3 2 12 10 15 0 44 12 6 2 6 0 0 0 0 6 113 175 233
4 3 0 0 0 0 0 0 0 0 0 0 0 0 0 0 0 0 0 3 0 7 3 5 8 0 0 8 2 0 29 10 5 50 8 8 0 0 0 0 0 0 1 21 89
7 2 0 0 0 0 0 0 0 0 0 0 0 0 0 0 0 0 0 0 1 1 0 2 1 0 0 0 0 0 0 1 1 1 2 4 5 0 0 0 0 0 0 0 0
4 1 0 0 0 0 0 0 0 0 0 0 0 0 0 0 0 0 0 0 5 0 0 0 0 0 1 1 0 5 12 1 4 4 0 0 4 0 0 0 0 0 0 0 0
1 4 0 0 0 0 0 0 0 0 0 0 0 0 0 0 0 0 0 0 1 1 0 2 2 0 0 0 0 1 16 22 0 11 4 1 1 1 0 0 0 0 0 0 0
1 2 0 0 0 0 0 0 0 0 0 0 0 0 0 0 0 0 1 1 0 0 1 17 2 0 0 5 7 0 34 17 2 0 0 0 0 0 0 0 0 0 0 0 0
0 0 0 0 0 0 0 0 0 0 0 0 0 0 0 1 0 0 0 4 1 7 1 2 1 0 3 5 2 7 0 0 1 1 0 2 0 0 0 0 0 0 0 0 0
0 1 0 0 0 0 0 0 0 0 0 0 0 0 0 0 0 0 2 0 0 1 1 1 0 0 1 9 14 18 13 2 0 0 0 0 0 0 0 0 0 0 0 0 0
2 2 0 0 0 0 0 0 0 0 0 0 0 0 0 0 0 0 0 1 0 0 0 0 0 0 0 7 1 6 1 0 2 3 0 0 0 0 0 0 0 0 0 0 0
6 5 0 0 0 0 0 0 0 0 0 0 0 0 0 0 0 0 0 0 0 0 0 0 0 0 0 4 0 0 0 0 0 0 0 0 0 0 0 0 0 0 0 0 0
13 0 0 0 0 0 0 0 0 0 0 0 0 0 0 0 0 0 0 0 0 0 0 0 0 0 0 0 0 0 0 0 0 0 0 0 0 0 0 0 0 0 0 0 0
0 0 0 0 0 0 0 0 0 0 0 0 0 0 0 0 0 0 0 0 0 0 0 0 0 0 0 0 0 0 0 0 0 0 0 0 0 0 0 0 0 0 0 0 0
0 0 0 0 0 0 0 0 0 0 0 0 0 0 0 0 0 0 0 0 0 0 0 0 0 0 0 0 0 0 0 0 0 0 0 0 0 0 0 0 0 0 0 0 0
0 0 0 0 0 0 0 0 0 0 0 0 0 0 0 0 0 0 0 0 0 0 0 0 0 0 0 0 0 0 0 0 0 0 0 0 0 0 0 0 0 0 0 0 0
0 1 1 4 0 0 0 0 0 0 0 0 0 0 0 0 0 0 0 0 0 0 0 0 0 0 0 0 0 0 0 0 0 0 0 0 0 0 0 0 0 0 0 0 0
0 1 6 11 0 0 0 0 0 0 0 0 0 0 0 0 0 0 0 0 0 0 0 0 0 0 0 0 0 0 0 0 0 0 0 0 0 0 0 0 0 0 0 0 0
0 0 0 0 1 0 0 0 0 0 0 0 0 0 0 0 0 0 0 0 0 0 0 0 0 0 0 0 0 0 0 0 0 0 0 0 0 0 0 0 0 0 0 0 0
0 0 0 0 0 0 0 0 0 0 0 0 0 0 0 0 0 0 0 0 0 0 0 0 0 0 0 0 0 0 0 0 0 0 0 0 0 0 0 0 0 0 0 0 0
0 0 0 0 0 0 0 0 0 0 0 0 0 0 0 0 0 0 0 0 0 0 0 0 0 0 0 0 0 0 0 0 0 0 0 0 0 0 0 0 0 0 0 0 0

GFSSW_con_mlcape_096.txt.gz
CAPE
5 4 9 5 9 19 1 0 1 3 14 8 0 6 7 1 0 0 0 0 0 10 37 0 0 0 8 1 2 61 52 19 15 1 0 0 0 0 10 72 27 2 0 19 38
0 4 6 6 7 21 6 6 4 0 26 1 0 7 5 0 0 0 0 0 24 38 0 0 0 0 2 12 2 15 7 2 7 6 1 0 0 0 68 177 105 93 209 10 25
2 6 6 6 8 21 12 7 3 0 26 6 0 2 0 0 0 0 5 15 1 10 0 0 0 0 5 16 4 6 1 0 12 0 23 56 1 0 105 63 191 21 227 14 0
2 9 9 7 8 14 12 7 4 0 11 22 7 1 0 0 0 0 12 0 14 0 0 0 0 0 0 0 10 2 0 5 0 12 1 42 11 0 57 76 136 290 456 269 169
6 5 6 9 6 12 17 5 5 0 1 24 5 23 0 0 0 0 10 0 0 3 6 0 0 2 0 0 4 4 0 12 0 17 11 81 31 0 2 3 410 793 709 212 24
4 0 8 11 7 16 0 12 9 0 0 16 2 7 0 0 0 0 0 0 0 11 33 10 0 10 39 3 14 2 0 0 3 0 6 74 39 0 9 5 429 447 562 329 211
5 2 6 4 9 19 3 4 0 0 0 22 8 0 0 0 0 0 0 0 21 25 6 0 0 4 1 21 0 0 12 0 0 3 0 1 6 0 0 58 253 399 372 337 374
7 1 4 0 10 5 2 0 0 0 0 22 13 0 0 0 0 0 0 1 29 3 0 3 5 16 71 15 33 0 12 0 0 12 3 0 1 0 0 70 101 250 236 227 315
12 2 6 1 11 0 0 0 0 2 1 5 0 0 0 0 0 0 0 0 0 0 3 1 0 5 7 14 3 7 0 0 4 6 1 1 1 0 0 0 3 64 180 185 187
23 7 6 1 7 0 0 0 0 0 0 0 0 0 0 0 0 0 0 0 0 1 1 7 2 3 3 5 0 0 0 0 0 37 6 0 0 0 0 0 0 0 44 155 159
23 6 3 5 2 0 0 0 0 0 0 0 0 0 0 0 0 0 0 0 0 1 1 2 0 0 0 0 0 0 0 0 7 25 0 2 3 3 2 0 0 0 0 19 119
16 2 0 12 0 0 0 0 0 0 0 0 0 0 0 0 0 0 0 0 1 0 0 1 1 0 0 0 3 3 10 4 43 2 0 0 2 3 0 0 0 0 0 0 0
15 3 4 8 2 0 0 0 0 0 0 0 0 0 0 0 0 0 0 0 0 1 0 1 4 0 0 1 4 0 16 17 3 3 5 0 0 0 0 0 0 0 0 0 0
21 3 9 5 0 0 0 0 0 0 0 0 0 0 0 0 0 0 0 1 0 0 1 1 0 1 0 2 11 0 1 39 6 0 0 2 0 0 0 0 0 0 0 0 0
29 3 13 0 0 0 0 0 0 0 0 0 0 0 0 0 0 0 0 3 0 2 0 1 1 1 0 11 0 2 35 25 21 0 0 0 0 0 0 0 0 0 0 0 0
29 3 23 0 0 0 0 0 0 0 0 0 0 0 0 0 0 0 1 1 2 1 2 1 0 0 1 10 25 1 7 1 2 0 0 0 0 0 0 0 0 0 0 0 0
11 5 24 0 0 0 0 0 0 0 0 0 0 0 0 0 0 0 0 1 0 0 0 0 0 0 0 14 16 8 0 0 0 0 0 0 0 0 0 0 0 0 0 0 0
6 10 12 0 0 0 0 0 0 0 0 0 0 0 0 0 0 0 0 0 0 0 0 0 0 0 0 0 1 0 0 0 0 0 0 0 0 0 0 0 0 0 0 0 0
11 12 2 0 0 0 0 0 0 0 0 0 0 0 0 0 0 0 0 0 0 0 0 0 3 0 0 0 0 0 0 0 0 0 0 0 0 0 0 0 0 0 0 0 0
4 11 4 0 0 0 0 0 0 0 0 0 0 0 0 0 0 0 0 0 0 0 0 0 0 0 0 0 0 0 0 0 0 0 0 0 0 0 0 0 0 0 0 0 0
4 3 1 0 2 0 0 0 0 0 0 0 0 0 0 0 0 0 0 0 0 0 0 0 0 0 0 0 0 0 0 0 0 0 0 0 0 0 0 0 0 0 0 0 0
4 0 2 6 1 1 0 0 0 0 0 0 0 0 0 0 0 0 0 0 0 0 0 0 0 0 0 0 0 0 0 0 0 0 0 0 0 0 0 0 0 0 0 0 0
2 2 3 6 0 0 0 0 0 0 0 0 0 0 0 0 0 0 0 0 0 0 0 0 0 0 0 0 0 0 0 0 0 0 0 0 0 0 0 0 0 0 0 0 0
0 1 2 11 1 0 0 0 0 0 0 0 0 0 0 0 0 0 0 0 0 0 0 0 0 0 0 0 0 0 0 0 0 0 0 0 0 0 0 0 0 0 0 0 0
0 0 0 0 1 0 0 0 0 0 0 0 0 0 0 0 0 0 0 0 0 0 0 0 0 0 0 0 0 0 0 0 0 0 0 0 0 0 0 0 0 0 0 0 0
0 0 0 0 0 0 0 0 0 0 0 0 0 0 0 0 0 0 0 0 0 0 0 0 0 0 0 0 0 0 0 0 0 0 0 0 0 0 0 0 0 0 0 0 0
0 0 0 0 0 0 0 0 0 0 0 0 0 0 0 0 0 0 0 0 0 0 0 0 0 0 0 0 0 0 0 0 0 0 0 0 0 0 0 0 0 0 0 0 0

GFSSW_con_mlcape_099.txt.gz
CAPE
3 2 1 6 2 3 26 12 7 0 9 23 0 0 1 1 0 0 0 0 0 2 25 0 0 0 0 1 6 50 13 1 8 16 0 0 0 0 1 94 76 0 0 0 12
4 4 2 5 1 3 13 16 15 7 6 27 0 0 0 0 0 0 0 0 6 52 0 0 0 0 0 14 13 12 5 0 0 12 0 0 0 0 12 39 145 6 110 124 1
36 6 6 5 1 5 2 24 15 10 0 32 0 0 0 0 0 0 3 33 1 1 0 0 0 0 0 11 20 8 0 0 0 0 61 75 73 7 1 19 36 16 199 79 40
10 11 7 4 5 0 7 14 5 16 0 26 0 11 0 0 0 0 14 0 41 0 0 0 0 0 0 0 3 4 0 0 0 0 45 86 93 49 0 2 0 164 325 107 20
6 41 6 3 6 0 0 12 6 16 3 23 0 26 0 0 0 0 0 0 0 0 0 0 0 0 0 0 2 2 0 0 2 0 1 54 20 34 5 0 0 308 262 46 6
4 18 4 2 2 0 6 0 5 21 1 28 0 1 0 0 0 0 0 0 0 0 0 0 0 0 1 0 2 0 0 0 1 9 23 45 24 12 22 0 0 173 210 68 40
2 6 6 3 10 11 11 4 0 12 0 30 4 0 0 0 0 0 0 0 0 0 0 0 0 0 7 0 9 0 16 10 0 0 36 11 2 0 0 0 5 76 293 277 101
10 19 16 6 4 0 6 2 0 13 19 22 5 0 0 0 0 0 0 0 0 0 0 0 5 1 3 1 32 12 9 5 0 0 19 2 0 2 0 0 1 38 317 261 151
1 11 16 3 0 16 0 0 1 25 16 17 0 0 0 0 0 0 0 0 0 0 1 13 8 3 3 6 1 24 5 3 1 0 1 0 0 0 0 0 0 0 152 269 150
4 8 18 2 0 8 10 3 6 11 5 0 0 0 0 0 0 0 0 0 0 0 8 16 6 0 1 4 0 15 0 3 22 9 0 0 0 0 0 0 0 0 0 231 198
0 19 4 0 0 4 19 0 0 0 0 0 0 0 0 0 0 0 0 0 0 1 0 3 0 0 0 0 0 1 0 0 5 51 6 0 0 0 0 0 0 0 0 48 159
9 5 7 0 2 0 9 0 0 0 0 0 0 0 0 0 0 0 0 0 5 0 1 0 1 0 0 0 0 0 0 2 23 73 15 0 0 0 0 0 0 0 0 0 7
12 5 6 5 7 2 0 0 0 0 0 0 0 0 0 0 0 0 0 0 0 0 0 1 0 2 0 2 2 0 0 11 5 28 8 8 0 0 0 1 0 0 0 0 0
5 7 4 2 1 0 0 0 0 0 0 0 0 0 0 0 0 0 0 1 0 0 0 0 1 1 2 0 2 0 1 37 41 46 36 4 0 0 0 0 0 0 0 0 0
16 17 5 0 0 0 0 0 0 0 0 0 0 0 0 0 0 0 0 0 0 0 0 1 6 0 3 0 6 0 2 38 9 13 0 0 0 0 0 0 0 0 0 0 0
15 30 9 0 0 0 0 0 0 0 0 0 0 0 0 0 0 0 0 1 1 1 1 0 0 0 7 5 2 5 9 11 3 0 0 0 0 0 0 0 0 0 0 0 0
10 19 7 0 0 0 0 0 0 0 0 0 0 0 0 0 0 0 0 0 0 0 0 0 1 2 1 15 2 0 0 0 0 0 0 0 0 0 0 0 0 0 0 0 0
21 29 8 0 0 0 0 0 0 0 0 0 0 0 0 0 0 0 0 0 0 0 0 0 0 0 0 0 1 0 0 0 0 0 0 0 0 0 0 0 0 0 0 0 0
35 1 0 0 0 0 0 0 0 0 0 0 0 0 0 0 0 0 0 0 0 0 0 0 1 2 0 0 0 0 0 0 0 0 0 0 0 0 0 0 0 0 0 0 0
1 1 2 0 0 0 0 0 0 0 0 0 0 0 0 0 0 0 0 0 0 0 0 0 0 0 0 0 0 0 0 0 0 0 0 0 0 0 0 0 0 0 0 0 0
0 0 7 0 0 0 0 0 0 0 0 0 0 0 0 0 0 0 0 0 0 0 0 0 0 0 0 0 0 0 0 0 0 0 0 0 0 0 0 0 0 0 0 0 0
1 2 2 0 0 1 0 0 0 0 0 0 0 0 0 0 0 0 0 0 0 0 0 0 0 0 0 0 0 0 0 0 0 0 0 0 0 0 0 0 0 0 0 0 0
1 3 3 9 0 0 0 0 0 0 0 0 0 0 0 0 0 0 0 0 0 0 0 0 0 0 0 0 0 0 0 0 0 0 0 0 0 0 0 0 0 0 0 0 0
0 0 4 22 0 0 0 0 0 0 0 0 0 0 0 0 0 0 0 0 0 0 0 0 0 0 0 0 0 0 0 0 0 0 0 0 0 0 0 0 0 0 0 0 0
0 1 0 0 2 0 0 0 0 0 0 0 0 0 0 0 0 0 0 0 0 0 0 0 0 0 0 0 0 0 0 0 0 0 0 0 0 0 0 0 0 0 0 0 0
0 0 0 0 0 0 0 0 0 0 0 0 0 0 0 0 0 0 0 0 0 0 0 0 0 0 0 0 0 0 0 0 0 0 0 0 0 0 0 0 0 0 0 0 0
0 0 0 0 0 0 0 0 0 0 0 0 0 0 0 0 0 0 0 0 0 0 0 0 0 0 0 0 0 0 0 0 0 0 0 0 0 0 0 0 0 0 0 0 0

GFSSW_con_mlcape_102.txt.gz
CAPE
1 21 7 3 3 0 0 2 11 0 0 3 9 0 1 1 0 0 0 0 0 2 22 0 0 0 0 5 19 25 25 6 0 0 10 5 55 28 32 1 32 109 2 5 0
4 12 40 6 4 0 2 8 8 0 0 0 13 0 2 0 0 0 0 0 4 45 0 0 0 0 1 9 12 30 2 1 0 0 21 0 34 46 29 18 13 99 53 96 1
9 4 7 4 4 2 4 4 4 5 0 0 17 0 0 0 0 0 0 0 37 0 0 0 0 0 0 3 14 9 0 0 0 5 25 46 76 58 18 0 1 5 92 169 1
2 6 4 10 5 1 9 11 3 2 6 0 18 0 0 0 0 0 1 3 14 0 0 0 0 0 0 0 1 8 0 0 0 22 9 11 83 75 106 0 4 33 151 140 7
5 3 11 54 5 9 0 0 7 18 8 8 16 10 0 0 0 0 0 10 0 0 0 0 0 0 0 0 0 1 0 0 6 1 0 1 32 67 111 113 62 3 31 181 92
11 7 14 24 5 2 0 2 0 13 8 6 14 4 0 0 0 0 0 0 0 0 0 0 2 2 3 1 0 0 0 0 4 2 1 1 10 78 77 2 19 6 43 187 143
12 10 2 30 5 1 1 7 0 6 8 8 18 0 0 0 0 0 0 0 0 0 0 0 7 6 12 7 6 0 0 2 0 0 2 0 9 44 38 3 3 0 0 43 137
14 6 27 30 6 3 2 0 0 0 12 19 22 0 0 0 0 0 0 0 0 0 1 8 15 17 13 4 0 8 13 1 0 1 5 65 0 0 13 11 22 0 0 35 133
6 3 14 20 4 0 0 0 0 0 24 24 0 0 0 0 0 0 0 0 3 12 9 16 20 6 0 0 5 6 1 0 6 1 1 47 1 25 0 3 0 0 0 0 94
3 1 0 19 1 0 0 4 3 3 4 0 0 0 0 0 0 0 0 0 0 13 24 19 26 3 0 0 1 2 9 2 3 2 9 48 2 0 0 0 0 0 0 0 32
2 0 24 2 4 1 0 1 0 0 0 0 0 0 0 0 0 0 0 0 0 1 1 9 2 0 0 5 17 3 15 10 38 0 6 13 2 0 0 0 0 0 0 0 12
7 4 1 10 8 1 0 0 0 0 0 0 0 0 0 0 0 0 0 0 3 2 4 3 0 1 7 1 19 0 13 18 74 46 19 34 0 0 0 0 0 0 0 0 36
4 0 0 8 6 2 0 0 0 0 0 0 0 0 0 0 0 0 0 0 1 2 2 1 0 0 4 0 7 0 1 14 54 85 128 76 29 1 2 4 0 0 0 0 0
7 0 64 1 0 0 3 0 0 0 0 0 0 0 0 0 0 0 0 1 1 0 0 0 1 0 2 3 1 1 0 56 96 103 101 72 10 1 8 2 0 0 0 0 0
10 0 43 0 0 1 0 0 0 0 0 0 0 0 0 0 0 0 0 0 0 0 0 0 2 2 0 1 0 1 0 54 64 35 111 11 0 0 0 3 1 0 0 0 0
18 1 15 0 0 0 0 0 0 0 0 0 0 0 0 0 0 0 0 1 2 0 1 1 2 1 16 1 0 13 4 13 4 9 1 0 0 1 0 4 1 0 0 0 0
12 2 7 0 0 0 0 0 0 0 0 0 0 0 0 0 0 0 0 2 2 0 0 0 6 6 14 17 8 14 3 3 2 3 0 0 1 0 0 2 0 0 0 0 0
0 10 4 0 0 0 0 0 0 0 0 0 0 0 0 0 0 0 0 2 0 0 0 2 4 1 2 13 10 13 0 1 0 0 0 0 0 0 0 0 0 0 0 0 0
2 2 0 0 0 0 0 0 0 0 0 0 0 0 0 0 0 0 0 0 0 0 0 3 0 0 0 0 1 0 0 0 0 0 0 0 0 0 0 0 0 0 0 0 0
1 0 2 1 0 0 0 0 0 0 0 0 0 0 0 0 0 0 0 0 0 0 0 0 0 1 0 0 0 0 0 0 0 0 0 0 0 0 0 0 0 0 0 0 0
0 0 1 0 0 0 0 0 0 0 0 0 0 0 0 0 0 0 0 0 0 0 0 0 0 0 0 0 0 0 0 0 0 0 0 0 0 0 0 0 0 0 0 0 0
0 0 3 0 1 0 0 0 0 0 0 0 0 0 0 0 0 0 0 0 0 0 0 0 0 0 0 0 0 0 0 0 0 0 0 0 0 0 0 0 0 0 0 0 0
1 3 4 4 1 0 0 0 0 0 0 0 0 0 0 0 0 0 0 0 0 0 0 0 0 0 0 0 0 0 0 0 0 0 0 0 0 0 0 0 0 0 0 0 0
0 0 5 3 0 0 0 0 0 0 0 0 0 0 0 0 0 0 0 0 0 0 0 0 0 0 0 0 0 0 0 0 0 0 0 0 0 0 0 0 0 0 0 0 0
0 2 1 2 2 0 0 0 0 0 0 0 0 0 0 0 0 0 0 0 0 0 0 0 0 0 0 0 0 0 0 0 0 0 0 0 0 0 0 0 0 0 0 0 0
0 0 0 0 0 0 0 0 0 0 0 0 0 0 0 0 0 0 0 0 0 0 0 0 0 0 0 0 0 0 0 0 0 0 0 0 0 0 0 0 0 0 0 0 0
0 0 0 0 1 0 0 0 0 0 0 0 0 0 0 0 0 0 0 0 0 0 0 0 0 0 0 0 0 0 0 0 0 0 0 0 0 0 0 0 0 0 0 0 0

GFSSW_con_mlcape_105.txt.gz
CAPE
9 10 17 25 4 5 0 1 6 3 0 0 17 5 0 0 0 0 0 0 0 0 0 5 0 0 0 0 10 28 15 3 0 0 0 0 8 18 41 70 38 28 42 66 65
5 10 5 4 14 2 0 1 5 0 0 0 7 0 0 0 0 0 0 0 0 2 6 1 0 0 0 0 3 14 9 0 0 2 1 0 1 12 22 42 46 26 70 126 78
13 5 9 13 41 3 3 4 0 0 0 0 14 0 0 0 0 0 0 0 20 14 1 0 0 0 0 0 11 12 1 3 2 6 4 2 11 46 22 38 32 71 39 192 109
13 16 3 10 22 13 7 3 0 0 0 4 14 0 0 0 0 0 16 13 27 0 0 0 0 0 0 0 9 9 9 16 6 2 5 10 12 29 53 29 41 16 124 108 96
8 11 4 12 4 40 4 0 7 0 0 1 11 0 0 0 0 0 0 7 1 0 0 0 0 0 0 0 0 0 2 1 7 8 10 4 3 1 12 23 93 84 73 134 137
11 11 12 2 7 15 0 0 0 0 1 1 7 0 0 0 0 0 0 0 0 0 1 0 0 0 0 0 0 0 0 0 0 1 28 15 2 10 19 79 158 100 54 136 97
11 9 0 3 10 2 0 1 0 0 2 4 4 0 2 0 0 0 0 0 3 0 4 9 5 4 4 2 3 4 3 0 0 2 7 20 6 7 11 85 104 91 87 38 5
7 3 0 5 15 2 3 3 0 0 0 0 12 3 2 0 0 0 0 0 6 15 13 23 22 16 13 11 6 10 11 14 0 0 0 2 1 0 0 161 83 74 112 0 0
0 0 0 0 8 4 6 1 0 0 0 6 10 2 0 0 0 0 0 4 10 25 24 25 22 17 16 4 5 5 2 4 8 0 38 17 0 0 101 96 59 51 7 0 0
0 0 0 0 22 4 0 0 15 10 6 1 0 0 0 0 0 0 0 0 3 15 16 17 23 5 3 2 0 7 4 7 4 2 68 26 13 108 160 95 55 7 6 1 7
0 0 0 22 2 0 0 5 0 0 2 0 0 0 0 0 0 0 2 2 4 9 7 17 3 1 2 2 2 13 0 0 14 6 53 28 26 0 69 69 30 13 0 0 0
0 0 0 5 1 11 1 0 0 0 0 0 0 0 0 0 0 0 0 5 4 2 0 0 0 0 3 6 8 5 0 0 11 6 60 61 43 4 42 9 7 6 0 0 0
0 0 0 6 6 1 0 0 0 0 0 0 0 0 0 0 2 3 0 2 5 2 0 0 0 0 0 4 2 0 0 4 0 29 69 59 108 155 102 23 1 0 0 0 0
0 0 15 26 1 1 1 0 0 0 0 0 0 0 0 0 0 0 0 1 2 1 0 0 0 0 1 3 1 0 0 0 0 26 58 139 34 49 16 10 5 0 1 0 0
0 4 39 0 0 3 0 0 0 0 0 0 0 0 0 0 1 1 0 1 0 0 0 1 1 1 3 3 1 2 11 0 27 25 96 50 8 1 3 4 1 0 0 0 1
0 12 32 0 0 0 0 0 0 0 0 0 0 0 0 1 0 1 2 0 0 0 0 3 0 0 4 11 0 0 4 0 2 8 13 0 0 1 1 3 2 0 0 1 0
0 0 7 0 0 0 0 0 0 0 0 0 0 0 0 0 0 0 3 1 1 0 1 1 5 3 12 9 0 0 1 1 0 0 1 3 0 0 3 0 0 0 0 0 0
0 6 7 1 0 0 0 0 0 0 0 0 0 0 0 0 0 0 4 1 0 0 11 1 0 0 1 11 0 0 0 0 0 0 1 0 0 0 0 1 0 0 0 0 0
3 1 0 1 0 0 0 0 0 0 0 0 0 0 0 0 0 0 1 3 0 0 0 9 1 2 13 11 2 5 0 0 0 0 0 0 0 1 0 0 0 0 0 0 0
0 0 1 1 0 0 3 0 0 0 0 0 0 0 0 0 0 0 2 0 1 0 0 0 0 0 0 1 6 0 0 0 0 0 0 0 0 0 0 0 0 0 0 0 0
0 0 1 0 0 0 2 1 0 0 0 0 0 0 0 0 0 0 0 0 0 0 0 0 0 0 11 0 0 0 0 0 0 0 0 0 0 0 0 0 0 0 0 0 0
0 0 2 0 3 0 0 0 0 0 0 0 0 0 0 0 0 0 0 0 0 0 0 0 7 0 0 0 0 0 0 0 0 0 0 0 0 0 0 0 0 0 0 0 0
0 1 1 2 3 0 0 0 0 0 0 0 0 0 0 0 0 0 0 0 0 0 0 0 0 0 0 0 0 0 0 0 0 0 0 0 1 0 0 0 0 0 0 0 0
1 0 0 3 0 0 0 0 0 0 0 0 0 0 0 0 0 0 0 0 0 0 0 0 0 0 0 0 0 0 0 0 0 0 0 0 0 0 0 0 0 0 0 0 0
0 1 1 2 0 0 0 1 0 0 0 0 0 0 0 0 0 0 0 0 0 0 0 0 0 0 0 0 0 0 0 0 0 0 0 0 0 0 0 0 0 0 0 0 0
0 0 1 1 0 0 0 1 0 0 0 0 0 0 0 0 0 0 0 0 0 0 0 0 0 0 0 0 0 0 0 0 0 0 0 0 0 0 0 0 0 0 0 0 0
0 0 0 0 0 0 0 0 0 0 0 0 0 0 0 0 0 0 0 0 0 0 0 0 0 0 0 0 0 0 0 0 0 0 0 0 0 0 0 0 0 0 0 0 0

GFSSW_con_mlcape_108.txt.gz
CAPE
2 3 3 1 4 81 4 0 3 8 0 0 0 2 0 0 0 0 0 0 0 0 0 0 0 0 0 0 0 9 6 0 0 0 0 0 0 0 2 1 0 0 11 83 56
15 8 4 3 11 51 12 0 2 5 0 0 0 2 0 0 0 0 0 0 0 0 0 1 0 0 0 0 0 0 6 1 0 0 0 0 0 0 0 0 10 0 25 147 78
11 5 22 8 7 18 38 2 3 0 0 0 0 0 0 0 0 0 0 0 0 0 2 0 0 0 0 0 0 0 3 0 0 0 0 0 0 0 0 0 38 17 3 131 122
18 11 8 22 19 22 72 3 1 0 0 0 0 0 0 0 0 0 0 1 27 0 0 0 0 0 0 0 0 0 0 12 5 1 0 0 0 0 1 0 20 15 8 64 141
24 17 17 7 3 8 41 2 0 0 0 0 2 0 0 0 0 0 0 9 10 0 0 0 0 0 0 0 0 0 0 0 0 0 0 0 0 0 0 0 2 34 50 4 63
0 12 12 6 2 3 21 0 1 0 0 0 3 0 0 0 0 0 0 0 1 0 0 0 0 0 0 0 0 0 0 0 0 0 0 0 0 0 0 0 0 7 42 37 91
8 1 0 0 0 8 3 3 0 2 0 0 0 0 0 0 0 0 0 0 0 0 0 0 0 0 0 0 0 0 0 0 0 0 0 0 0 0 0 0 0 65 44 30 97
7 0 0 0 0 31 5 5 1 0 0 0 6 2 0 0 0 0 0 0 0 0 0 0 0 0 1 2 0 3 0 0 0 0 0 0 0 0 0 0 0 0 39 84 11
15 0 0 0 0 6 17 2 0 0 8 2 6 2 0 0 0 0 0 0 0 0 3 6 18 12 11 0 1 0 0 0 0 0 0 0 0 0 0 0 0 69 12 11 25
7 0 0 0 0 24 2 0 1 19 25 7 0 0 0 0 0 0 0 0 0 10 7 11 22 4 4 4 0 0 0 0 0 0 11 0 0 0 10 26 0 43 53 30 5
15 0 0 2 10 1 0 5 4 0 2 0 0 0 0 0 0 0 0 0 0 2 0 4 5 0 0 0 1 0 6 0 1 16 12 0 0 0 0 133 97 136 73 24 0
0 0 0 11 3 3 0 0 0 0 0 0 0 0 0 0 0 0 0 0 0 0 0 0 1 0 0 1 6 7 1 0 0 13 5 0 0 1 1 53 173 163 78 5 0
0 1 0 10 11 0 0 0 0 0 0 0 0 0 0 0 0 0 0 1 4 1 0 0 0 1 0 0 5 7 0 0 0 6 4 0 0 33 42 60 55 62 13 0 0
0 0 0 20 0 1 0 0 0 0 0 0 0 0 0 0 0 0 0 2 2 2 0 0 0 1 5 3 6 1 0 0 0 0 0 0 0 11 86 182 165 12 0 3 24
0 16 13 11 2 0 0 0 0 0 0 0 0 0 0 0 0 0 0 0 0 0 0 2 4 0 0 0 2 0 0 3 2 1 3 0 13 0 60 38 37 34 22 62 9
0 1 1 0 0 0 0 0 0 0 0 0 0 0 0 0 1 0 0 0 0 0 0 0 0 0 0 1 11 0 0 0 0 0 0 13 7 0 0 0 3 10 43 39 28
0 0 0 0 0 0 0 0 0 0 0 0 0 0 0 0 0 0 0 1 2 0 0 2 1 1 1 3 0 0 0 0 0 0 1 0 0 0 4 0 1 0 3 1 13
0 0 1 1 0 0 0 0 0 0 0 0 0 0 0 0 0 0 1 4 0 1 0 0 0 0 9 0 0 1 1 0 3 4 1 0 0 0 3 4 0 0 0 0 0
1 0 1 1 0 0 0 0 0 0 0 0 0 0 0 0 0 0 0 1 0 0 0 2 0 0 0 1 5 0 0 0 0 0 0 0 0 3 5 2 1 0 0 0 0
0 0 1 0 0 0 0 1 0 0 0 0 0 0 0 0 0 0 0 0 0 0 0 0 0 0 1 8 5 0 0 0 0 0 0 0 0 0 0 0 0 0 0 0 0
0 0 2 0 0 0 1 0 0 0 0 0 0 0 0 0 0 0 0 0 0 0 0 0 1 0 4 0 0 0 0 0 0 0 0 0 0 0 1 1 1 0 0 0 0
2 0 0 0 0 0 0 0 0 0 0 0 0 0 0 0 0 0 0 0 0 0 0 0 0 0 0 0 0 0 0 0 0 0 0 0 0 0 0 0 0 0 0 0 0
0 1 0 0 0 0 0 0 0 0 0 0 0 0 0 0 0 0 0 0 0 0 0 0 0 0 1 0 0 0 0 0 0 0 0 0 0 0 0 0 0 0 0 0 0
0 1 0 0 0 0 0 0 0 0 0 0 0 0 0 0 0 0 0 0 0 0 0 0 0 0 0 0 0 0 0 0 0 0 0 0 0 0 0 0 0 0 0 0 0
0 0 0 0 0 0 0 0 0 0 0 0 0 0 0 0 0 0 0 0 0 0 0 0 0 0 0 0 0 0 0 0 0 0 0 0 0 0 0 0 0 0 0 0 0
0 0 0 0 0 0 0 0 0 0 0 0 0 0 0 0 0 0 0 0 0 0 0 0 0 0 0 0 0 0 0 0 0 0 0 0 0 0 0 0 0 0 0 0 0
0 0 0 0 0 0 0 0 0 0 0 0 0 0 0 0 0 0 0 0 0 0 0 0 0 0 0 0 0 0 0 0 0 0 0 0 0 0 0 0 0 0 0 0 0

GFSSW_con_mlcape_111.txt.gz
CAPE
24 20 5 5 4 12 64 42 0 7 0 0 0 1 0 0 0 0 0 0 0 0 0 0 0 0 0 0 0 0 3 3 0 0 0 0 0 0 0 0 0 0 10 52 74
38 21 26 13 7 2 24 57 0 3 0 0 0 0 0 0 0 0 0 0 0 0 0 0 0 0 0 0 0 0 0 0 0 0 0 0 0 0 0 0 0 0 87 117 103
9 28 22 13 13 12 21 40 2 5 0 0 0 0 0 0 0 0 0 0 0 0 0 0 0 0 0 0 0 0 0 0 0 0 0 0 0 0 0 0 0 0 0 72 72
27 31 29 18 8 0 4 60 0 3 0 0 0 0 0 0 0 0 0 0 0 0 0 0 0 0 0 0 0 0 0 0 0 0 0 0 0 0 0 0 0 0 1 13 25
61 32 23 17 12 1 20 30 10 0 0 0 0 0 0 0 0 10 10 26 0 0 0 0 0 0 0 0 0 0 0 0 0 0 0 0 0 0 0 0 0 0 0 0 8
68 50 11 12 3 0 0 72 9 1 0 0 0 0 0 0 0 1 0 0 0 0 0 0 0 0 0 0 0 0 0 0 0 0 0 0 0 0 0 0 0 0 0 0 1
52 54 8 2 0 2 26 20 16 1 0 0 0 0 0 0 0 0 0 0 0 0 0 0 0 0 0 0 0 0 0 0 0 0 0 0 0 0 0 0 0 0 0 3 0
75 68 2 0 0 0 85 8 1 5 0 0 0 0 0 0 0 0 0 0 0 0 0 0 0 0 0 0 0 0 0 0 0 0 0 0 0 0 0 0 0 0 0 0 0
69 57 2 0 0 11 15 1 0 0 0 0 0 0 0 0 0 0 0 0 0 0 0 0 0 0 0 0 0 0 0 0 0 0 0 0 0 0 0 0 0 0 0 0 5
36 13 0 0 0 28 1 0 0 1 1 9 0 0 0 0 0 0 0 1 1 0 0 0 0 0 0 0 0 0 0 0 0 0 0 0 0 0 0 0 0 0 0 0 9
3 0 0 200 44 0 0 13 5 0 4 0 0 0 0 0 0 0 0 0 0 0 0 1 0 0 0 0 0 0 0 0 0 0 0 0 0 0 0 0 0 0 0 9 27
0 0 0 45 8 0 0 0 0 0 0 0 0 0 0 0 0 0 0 0 0 0 0 0 0 0 0 0 1 2 1 0 0 0 1 7 0 0 0 0 0 0 12 55 58
0 0 0 33 0 0 0 0 0 0 0 0 0 0 0 0 0 0 0 0 0 1 0 0 0 0 2 0 0 0 0 0 0 0 0 0 0 0 0 0 0 0 69 69 52
4 0 0 14 3 0 0 0 0 0 0 0 0 0 0 0 0 0 0 0 1 1 2 0 0 0 2 1 5 0 0 0 0 0 0 0 0 0 0 0 0 0 61 49 29
16 22 22 0 0 0 0 0 0 0 0 0 0 0 0 0 0 0 0 0 0 0 1 0 0 0 0 0 0 0 0 0 0 0 1 0 0 0 0 0 1 55 5 0 55
2 5 0 0 0 0 0 0 0 0 0 0 0 0 0 0 0 0 0 0 0 0 0 0 0 0 0 0 0 2 0 0 1 0 0 0 0 0 0 1 0 4 22 30 43
1 0 0 0 0 0 0 0 0 0 0 0 0 0 0 0 0 0 0 0 0 0 0 1 0 0 0 1 0 0 0 0 0 0 0 1 0 0 0 2 0 1 0 50 105
0 0 1 1 0 0 0 0 0 0 0 0 0 0 0 0 0 0 5 2 3 0 0 0 0 0 0 0 0 0 0 0 0 0 0 0 0 0 2 1 0 0 1 14 0
0 0 1 0 0 0 0 0 0 0 0 0 0 0 0 0 0 0 0 0 0 0 0 0 0 0 0 7 1 1 0 0 0 0 0 0 0 0 3 2 0 6 2 1 0
0 0 0 0 0 0 0 0 0 0 0 0 0 0 0 0 0 0 0 0 0 0 0 0 0 0 11 1 1 2 0 0 0 0 0 0 0 0 0 1 5 3 1 0 0
0 0 0 0 0 0 0 0 0 0 0 0 0 0 0 0 0 0 0 0 0 0 0 0 0 0 0 0 0 0 0 0 0 0 0 0 0 0 0 3 1 1 0 0 0
0 0 0 0 0 0 0 0 0 0 0 0 0 0 0 0 0 0 0 0 0 0 0 0 0 0 0 0 0 0 0 0 0 0 0 0 0 0 0 0 0 0 0 0 0
0 0 0 0 0 0 0 0 0 0 0 0 0 0 0 0 0 0 0 0 0 0 0 0 0 0 0 0 0 0 0 0 0 0 0 0 0 0 0 0 0 0 0 0 0
0 0 0 0 0 0 0 0 0 0 0 0 0 0 0 0 0 0 0 0 0 0 0 0 0 0 0 0 0 0 0 0 0 0 0 0 0 0 0 0 0 0 0 0 0
0 0 0 0 0 0 0 0 0 0 0 0 0 0 0 0 0 0 0 0 0 0 0 0 0 0 0 0 0 0 0 0 0 0 0 0 0 0 0 0 0 0 0 0 0
0 0 0 0 0 0 0 0 0 0 0 0 0 0 0 0 0 0 0 0 0 0 0 0 0 0 0 0 0 0 0 0 0 0 0 0 0 0 0 0 0 0 0 0 0
2 0 0 0 0 0 0 0 0 0 0 0 0 0 0 0 0 0 0 0 0 0 0 0 0 0 0 0 0 0 0 0 0 0 0 0 0 0 0 0 0 0 0 0 0

GFSSW_con_mlcape_114.txt.gz
CAPE
4 19 19 3 3 0 1 35 41 5 1 0 0 0 0 0 0 0 0 0 0 0 0 0 0 0 0 0 0 0 0 0 0 0 0 0 0 0 0 0 0 0 21 57 123
6 2 26 27 9 6 15 4 72 10 0 0 0 0 0 0 0 0 0 0 0 0 0 0 0 0 0 0 0 0 0 0 0 0 0 0 0 0 0 0 0 0 0 86 110
18 10 24 32 12 10 0 19 84 5 2 0 0 1 0 0 0 0 0 0 0 0 0 0 0 0 0 0 0 0 0 0 0 0 0 0 0 0 0 0 0 0 0 1 69
5 24 12 16 11 7 0 2 57 32 2 0 0 1 0 0 0 0 0 0 0 0 0 0 0 0 0 0 0 0 0 0 0 0 0 0 0 0 0 0 0 0 0 0 24
21 24 17 11 14 7 3 2 92 13 2 0 0 0 0 0 0 0 10 0 0 0 0 0 0 0 0 0 0 0 0 0 0 0 0 0 0 0 0 0 0 0 0 0 0
23 20 29 10 4 3 0 2 115 3 0 0 0 0 0 0 0 4 0 0 0 0 0 0 0 0 0 0 0 0 0 0 0 0 0 0 0 0 0 0 0 0 0 0 0
26 11 44 8 4 5 43 124 12 2 0 0 0 0 0 0 0 0 0 0 0 0 0 0 0 0 0 0 0 0 0 0 0 0 0 0 0 0 0 0 0 0 0 0 0
11 9 12 5 0 8 101 44 0 1 13 0 0 0 0 0 0 0 0 0 0 0 0 0 0 0 0 0 0 0 0 0 0 0 0 0 0 0 0 0 0 0 0 0 0
27 18 6 8 0 0 39 8 0 12 6 0 0 0 0 0 0 0 0 0 0 0 0 0 0 0 0 0 0 0 0 0 0 0 0 0 0 0 0 0 0 0 0 0 0
4 1 1 3 8 6 0 0 1 0 0 0 0 0 0 0 0 0 0 0 0 0 0 0 0 0 0 0 0 0 0 0 0 0 0 0 0 0 0 0 0 0 0 0 0
0 12 211 215 9 3 0 1 0 0 0 0 0 0 0 0 0 0 0 0 0 0 0 0 0 0 0 0 0 0 0 0 0 0 0 0 0 0 0 0 0 0 0 0 0
0 76 137 58 7 16 0 0 0 0 0 0 0 0 0 0 0 0 0 0 0 0 0 0 0 0 0 0 0 1 0 0 0 0 0 0 0 0 0 0 0 0 0 0 0
0 0 40 15 0 0 0 0 0 0 0 0 0 0 0 0 0 0 0 0 0 0 1 1 0 2 0 2 1 1 0 0 0 0 0 0 0 0 0 0 0 0 0 0 0
0 0 2 0 0 0 0 0 0 0 0 0 0 0 0 0 0 0 0 0 0 1 1 0 0 0 0 0 1 0 0 0 0 0 0 0 0 0 0 0 0 0 0 0 0
0 0 0 0 0 0 0 0 0 0 0 0 0 0 0 0 0 0 0 0 0 0 0 0 0 0 0 0 0 0 0 0 0 0 0 0 0 0 0 0 0 0 1 0 0
4 0 0 0 0 0 0 0 0 0 0 0 0 0 0 0 0 0 0 0 0 2 1 0 0 0 0 0 0 0 2 0 1 0 0 0 0 0 0 1 0 0 6 18 0
0 0 0 0 0 0 0 0 0 0 0 0 0 0 0 0 0 0 0 0 0 0 0 0 0 0 0 0 0 2 0 0 0 0 0 0 0 0 0 0 2 0 2 24 25
0 0 0 0 0 0 0 0 0 0 0 0 0 0 0 0 0 0 1 4 0 0 0 0 0 0 0 0 0 0 0 0 0 0 0 0 0 0 2 9 4 2 2 1 2
0 0 0 0 0 0 0 0 0 0 0 0 0 0 0 0 0 2 0 0 0 0 0 0 0 0 0 0 0 3 0 0 0 0 0 0 0 1 2 1 0 1 0 2 0
0 0 0 0 0 0 0 0 0 0 0 0 0 0 0 0 0 0 0 0 0 0 0 0 0 0 0 0 0 1 0 0 0 0 0 0 0 0 0 0 4 5 6 2 0
0 0 0 0 0 0 0 0 0 0 0 0 0 0 0 0 0 0 0 0 0 0 0 0 0 0 0 0 0 0 0 0 0 0 0 0 0 0 0 0 2 4 0 0 0
0 0 0 0 0 0 0 0 0 0 0 0 0 0 0 0 0 0 0 0 0 0 0 0 0 0 0 0 0 0 0 0 0 0 0 0 0 0 2 5 2 0 0 0 0
0 0 0 0 0 0 0 0 0 0 0 0 0 0 0 0 0 0 0 0 0 0 0 0 0 0 0 0 0 0 0 0 0 0 0 0 0 0 0 0 0 0 0 0 0
0 0 0 0 0 0 0 0 0 0 0 0 0 0 0 0 0 0 0 0 0 0 0 0 0 0 0 0 0 0 0 0 0 0 0 0 0 0 0 0 0 0 0 0 0
0 0 0 0 0 0 0 0 0 0 0 0 0 0 0 0 0 0 0 0 0 0 0 0 0 0 0 0 0 0 0 0 0 0 0 0 0 0 0 0 0 0 0 0 0
0 0 0 0 0 0 0 0 0 0 0 0 0 0 0 0 0 0 0 0 0 0 0 0 0 0 0 0 0 0 0 0 0 0 0 0 0 0 0 0 0 0 0 0 0
0 0 0 0 0 0 0 0 0 0 0 0 0 0 0 0 0 0 0 0 0 0 0 0 0 0 0 0 0 0 0 0 0 0 0 0 0 0 0 0 0 0 0 0 0

GFSSW_con_mlcape_117.txt.gz
CAPE
22 17 28 9 3 6 0 4 25 10 3 0 0 0 0 0 0 0 0 0 0 0 0 0 0 0 0 0 0 0 0 0 0 0 0 0 0 0 0 0 0 0 0 0 0
12 13 6 16 23 5 1 1 20 9 6 0 0 0 0 0 0 0 0 0 0 0 0 0 0 0 0 0 0 0 0 0 0 0 0 0 0 0 0 0 0 0 0 0 6
13 8 13 31 24 16 9 0 32 58 0 0 0 0 0 0 0 0 0 0 0 0 0 0 0 0 0 0 0 0 0 0 0 0 0 0 0 0 0 0 0 0 0 0 0
18 13 19 4 8 12 3 0 2 83 2 0 0 0 0 0 0 0 0 0 0 0 0 0 0 0 0 0 0 0 0 0 0 0 0 0 0 0 0 0 0 0 0 0 0
64 26 20 2 0 7 9 1 3 125 1 0 0 0 0 0 0 0 4 0 0 0 0 0 0 0 0 0 0 0 0 0 0 0 0 0 0 0 0 0 0 0 0 0 0
21 12 21 17 4 4 0 0 12 60 0 0 0 0 0 0 0 0 0 0 0 0 0 0 0 0 0 0 0 0 0 0 0 0 0 0 0 0 0 0 0 0 0 0 0
9 14 19 1 2 4 34 24 92 1 1 3 0 0 0 0 0 0 0 0 0 0 0 0 0 0 0 0 0 0 0 0 0 0 0 0 0 0 0 0 0 0 0 0 0
11 2 5 3 6 34 146 70 3 0 5 0 0 0 0 0 0 0 0 0 0 0 0 0 0 0 0 0 0 0 0 0 0 0 0 0 0 0 0 0 0 0 0 0 0
15 1 0 4 0 74 38 2 1 0 11 0 0 0 0 0 0 0 0 0 0 0 0 0 0 0 0 0 0 0 0 0 0 0 0 0 0 0 0 0 0 0 0 0 0
4 0 0 150 168 16 24 5 0 1 0 0 0 0 0 0 0 0 0 0 0 0 0 0 0 0 0 0 0 0 0 0 0 0 0 0 0 0 0 0 0 0 0 0 0
33 41 23 114 8 1 0 0 0 0 0 0 0 0 0 0 0 0 0 0 0 0 0 0 0 0 0 0 0 0 0 0 0 0 0 0 0 0 0 0 0 0 0 0 0
158 276 40 22 45 0 0 0 0 0 0 0 0 0 0 0 0 0 0 0 0 0 0 0 0 0 0 0 0 0 1 0 0 0 0 0 0 0 0 0 0 0 0 0 0
109 44 20 10 0 0 0 0 0 0 0 0 0 0 0 0 0 0 0 0 0 0 0 1 0 0 0 0 1 0 0 0 0 0 0 0 0 0 0 0 0 0 0 0 0
32 29 2 0 0 0 0 0 0 0 0 0 0 0 0 0 0 0 0 0 0 0 0 0 0 0 0 0 0 0 0 0 0 0 0 0 0 0 0 0 0 0 0 0 0
0 0 0 0 0 0 0 0 0 0 0 0 0 0 0 0 0 0 0 0 0 0 0 0 0 0 0 0 0 0 0 0 0 2 0 0 0 0 0 0 0 0 9 21 7
0 0 0 0 0 0 0 0 0 0 0 0 0 0 0 0 0 0 0 0 0 0 0 0 0 1 0 0 0 0 0 2 3 0 0 0 0 0 0 1 0 0 10 80 103
0 0 0 0 0 0 0 0 0 0 0 0 0 0 0 0 0 0 1 0 0 0 0 0 0 0 0 0 0 1 0 0 0 0 0 0 0 0 0 0 1 6 16 47 74
0 0 0 0 0 0 0 0 0 0 0 0 0 0 0 0 0 0 5 0 0 1 1 0 0 0 0 0 0 0 0 0 0 0 0 0 0 0 2 1 0 0 0 4 3
0 0 0 0 0 0 0 0 0 0 0 0 0 0 0 0 0 1 0 0 0 0 0 0 0 0 0 0 0 2 0 1 0 1 0 0 0 1 1 0 2 0 1 1 0
0 0 0 0 0 0 0 0 0 0 0 0 0 0 0 0 0 0 0 0 0 0 0 0 0 0 0 0 0 0 0 0 0 0 0 0 0 0 0 0 0 3 4 3 0
0 0 0 0 0 0 0 0 0 0 0 0 0 0 0 0 0 0 0 0 0 0 0 0 0 0 0 0 0 0 0 0 0 0 0 0 0 3 0 0 0 3 3 0 0
0 0 0 0 0 0 0 0 0 0 0 0 0 0 0 0 0 0 0 0 0 0 0 0 0 0 0 0 0 0 0 0 0 0 0 0 0 0 1 1 6 0 0 0 0
0 0 0 0 0 0 0 0 0 0 0 0 0 0 0 0 0 0 0 0 0 0 0 0 0 0 0 0 0 0 0 0 0 0 0 0 0 0 0 0 0 0 0 0 0
0 0 0 0 0 0 0 0 0 0 0 0 0 0 0 0 0 0 0 0 0 0 0 0 0 0 0 0 0 0 0 0 0 0 0 0 0 0 0 0 0 0 0 0 0
0 0 0 0 0 0 0 0 0 0 0 0 0 0 0 0 0 0 0 0 0 0 0 0 0 0 0 0 0 0 0 0 0 0 0 0 0 0 0 0 0 0 0 0 0
0 0 0 0 0 0 0 0 0 0 0 0 0 0 0 0 0 0 0 0 0 0 0 0 0 0 0 0 0 0 0 0 0 0 0 0 0 0 0 0 0 0 0 0 0
0 0 0 0 0 0 0 0 0 0 0 0 0 0 0 0 0 0 0 0 0 0 0 0 0 0 0 0 0 0 0 0 0 0 0 0 0 0 0 0 0 0 0 0 0